<?xml version="1.0" encoding="UTF-8"?>
<gpx version="1.1" creator="https://www.youtrack.es" xsi:schemaLocation="http://www.topografix.com/GPX/1/1 http://www.topografix.com/GPX/1/1/gpx.xsd http://www.garmin.com/xmlschemas/GpxExtensions/v3 http://www.garmin.com/xmlschemas/GpxExtensionsv3.xsd http://www.garmin.com/xmlschemas/TrackPointExtension/v1 http://www.garmin.com/xmlschemas/TrackPointExtensionv1.xsd" xmlns:gpxtpx="http://www.garmin.com/xmlschemas/TrackPointExtension/v1" xmlns:gpxx="http://www.garmin.com/xmlschemas/GpxExtensions/v3" xmlns:xsi="http://www.w3.org/2001/XMLSchema-instance">
  <metadata>
    <link href="https://www.youtrack.es">
      <text>YouTrack.es</text>
    </link>
    <time>2026-05-09T06:22:46Z</time>
  </metadata>
  <trk>
    <src>https://www.youtrack.es</src>
    <link href="https://www.youtrack.es/ruta/12896-rafael">
      <text>YouTrack.es</text>
    </link>
    <trkseg>
      <trkpt lat="37.4701250" lon="-4.4427850">
        <ele>-72.2</ele>
        <time>2020-05-02T06:03:04Z</time>
      </trkpt>
      <trkpt lat="37.4701250" lon="-4.4427850">
        <ele>-72.2</ele>
        <time>2020-05-02T06:03:08Z</time>
      </trkpt>
      <trkpt lat="37.4701250" lon="-4.4427850">
        <ele>-72.2</ele>
        <time>2020-05-02T06:03:12Z</time>
      </trkpt>
      <trkpt lat="37.4700950" lon="-4.4425030">
        <ele>-71.8</ele>
        <time>2020-05-02T06:03:16Z</time>
      </trkpt>
      <trkpt lat="37.4700650" lon="-4.4422080">
        <ele>-71.0</ele>
        <time>2020-05-02T06:03:20Z</time>
      </trkpt>
      <trkpt lat="37.4700050" lon="-4.4419450">
        <ele>-69.6</ele>
        <time>2020-05-02T06:03:24Z</time>
      </trkpt>
      <trkpt lat="37.4699580" lon="-4.4416760">
        <ele>-69.8</ele>
        <time>2020-05-02T06:03:28Z</time>
      </trkpt>
      <trkpt lat="37.4699280" lon="-4.4414210">
        <ele>-69.2</ele>
        <time>2020-05-02T06:03:32Z</time>
      </trkpt>
      <trkpt lat="37.4699100" lon="-4.4411630">
        <ele>-68.4</ele>
        <time>2020-05-02T06:03:36Z</time>
      </trkpt>
      <trkpt lat="37.4699780" lon="-4.4408610">
        <ele>-68.0</ele>
        <time>2020-05-02T06:03:40Z</time>
      </trkpt>
      <trkpt lat="37.4699800" lon="-4.4405460">
        <ele>-66.8</ele>
        <time>2020-05-02T06:03:44Z</time>
      </trkpt>
      <trkpt lat="37.4699900" lon="-4.4402260">
        <ele>-66.4</ele>
        <time>2020-05-02T06:03:48Z</time>
      </trkpt>
      <trkpt lat="37.4699950" lon="-4.4399230">
        <ele>-65.2</ele>
        <time>2020-05-02T06:03:52Z</time>
      </trkpt>
      <trkpt lat="37.4700930" lon="-4.4396850">
        <ele>-64.0</ele>
        <time>2020-05-02T06:03:56Z</time>
      </trkpt>
      <trkpt lat="37.4702680" lon="-4.4396380">
        <ele>-63.2</ele>
        <time>2020-05-02T06:04:00Z</time>
      </trkpt>
      <trkpt lat="37.4704160" lon="-4.4396310">
        <ele>-62.8</ele>
        <time>2020-05-02T06:04:04Z</time>
      </trkpt>
      <trkpt lat="37.4706230" lon="-4.4396400">
        <ele>-62.2</ele>
        <time>2020-05-02T06:04:08Z</time>
      </trkpt>
      <trkpt lat="37.4707160" lon="-4.4396080">
        <ele>-62.4</ele>
        <time>2020-05-02T06:04:12Z</time>
      </trkpt>
      <trkpt lat="37.4709250" lon="-4.4395910">
        <ele>-62.4</ele>
        <time>2020-05-02T06:04:16Z</time>
      </trkpt>
      <trkpt lat="37.4710850" lon="-4.4395930">
        <ele>-61.4</ele>
        <time>2020-05-02T06:04:20Z</time>
      </trkpt>
      <trkpt lat="37.4712160" lon="-4.4395880">
        <ele>-61.4</ele>
        <time>2020-05-02T06:04:24Z</time>
      </trkpt>
      <trkpt lat="37.4713130" lon="-4.4395980">
        <ele>-61.2</ele>
        <time>2020-05-02T06:04:28Z</time>
      </trkpt>
      <trkpt lat="37.4715860" lon="-4.4396650">
        <ele>-62.0</ele>
        <time>2020-05-02T06:04:32Z</time>
      </trkpt>
      <trkpt lat="37.4718330" lon="-4.4397710">
        <ele>-62.4</ele>
        <time>2020-05-02T06:04:36Z</time>
      </trkpt>
      <trkpt lat="37.4721260" lon="-4.4398700">
        <ele>-62.8</ele>
        <time>2020-05-02T06:04:40Z</time>
      </trkpt>
      <trkpt lat="37.4724360" lon="-4.4399400">
        <ele>-62.8</ele>
        <time>2020-05-02T06:04:44Z</time>
      </trkpt>
      <trkpt lat="37.4726750" lon="-4.4400460">
        <ele>-63.6</ele>
        <time>2020-05-02T06:04:48Z</time>
      </trkpt>
      <trkpt lat="37.4729310" lon="-4.4401500">
        <ele>-63.8</ele>
        <time>2020-05-02T06:04:52Z</time>
      </trkpt>
      <trkpt lat="37.4732300" lon="-4.4402580">
        <ele>-63.6</ele>
        <time>2020-05-02T06:04:56Z</time>
      </trkpt>
      <trkpt lat="37.4735460" lon="-4.4402980">
        <ele>-63.4</ele>
        <time>2020-05-02T06:05:00Z</time>
      </trkpt>
      <trkpt lat="37.4738850" lon="-4.4403610">
        <ele>-63.2</ele>
        <time>2020-05-02T06:05:04Z</time>
      </trkpt>
      <trkpt lat="37.4742210" lon="-4.4404380">
        <ele>-62.8</ele>
        <time>2020-05-02T06:05:08Z</time>
      </trkpt>
      <trkpt lat="37.4744900" lon="-4.4405310">
        <ele>-63.8</ele>
        <time>2020-05-02T06:05:12Z</time>
      </trkpt>
      <trkpt lat="37.4747360" lon="-4.4406000">
        <ele>-63.6</ele>
        <time>2020-05-02T06:05:16Z</time>
      </trkpt>
      <trkpt lat="37.4749680" lon="-4.4406560">
        <ele>-63.6</ele>
        <time>2020-05-02T06:05:20Z</time>
      </trkpt>
      <trkpt lat="37.4752400" lon="-4.4407350">
        <ele>-64.2</ele>
        <time>2020-05-02T06:05:24Z</time>
      </trkpt>
      <trkpt lat="37.4754760" lon="-4.4408110">
        <ele>-64.6</ele>
        <time>2020-05-02T06:05:28Z</time>
      </trkpt>
      <trkpt lat="37.4756780" lon="-4.4408950">
        <ele>-65.0</ele>
        <time>2020-05-02T06:05:32Z</time>
      </trkpt>
      <trkpt lat="37.4758280" lon="-4.4409580">
        <ele>-65.6</ele>
        <time>2020-05-02T06:05:36Z</time>
      </trkpt>
      <trkpt lat="37.4759550" lon="-4.4410110">
        <ele>-65.6</ele>
        <time>2020-05-02T06:05:40Z</time>
      </trkpt>
      <trkpt lat="37.4761030" lon="-4.4410650">
        <ele>-65.6</ele>
        <time>2020-05-02T06:05:44Z</time>
      </trkpt>
      <trkpt lat="37.4763950" lon="-4.4411160">
        <ele>-66.8</ele>
        <time>2020-05-02T06:05:48Z</time>
      </trkpt>
      <trkpt lat="37.4766760" lon="-4.4409750">
        <ele>-66.2</ele>
        <time>2020-05-02T06:05:52Z</time>
      </trkpt>
      <trkpt lat="37.4769800" lon="-4.4407780">
        <ele>-65.6</ele>
        <time>2020-05-02T06:05:56Z</time>
      </trkpt>
      <trkpt lat="37.4772680" lon="-4.4405950">
        <ele>-66.2</ele>
        <time>2020-05-02T06:06:00Z</time>
      </trkpt>
      <trkpt lat="37.4775430" lon="-4.4404630">
        <ele>-64.8</ele>
        <time>2020-05-02T06:06:04Z</time>
      </trkpt>
      <trkpt lat="37.4778050" lon="-4.4402900">
        <ele>-63.4</ele>
        <time>2020-05-02T06:06:08Z</time>
      </trkpt>
      <trkpt lat="37.4780200" lon="-4.4401350">
        <ele>-60.8</ele>
        <time>2020-05-02T06:06:12Z</time>
      </trkpt>
      <trkpt lat="37.4782210" lon="-4.4400100">
        <ele>-60.4</ele>
        <time>2020-05-02T06:06:16Z</time>
      </trkpt>
      <trkpt lat="37.4784710" lon="-4.4398910">
        <ele>-59.2</ele>
        <time>2020-05-02T06:06:20Z</time>
      </trkpt>
      <trkpt lat="37.4787000" lon="-4.4397850">
        <ele>-58.0</ele>
        <time>2020-05-02T06:06:24Z</time>
      </trkpt>
      <trkpt lat="37.4788930" lon="-4.4396950">
        <ele>-57.8</ele>
        <time>2020-05-02T06:06:28Z</time>
      </trkpt>
      <trkpt lat="37.4790750" lon="-4.4396000">
        <ele>-56.4</ele>
        <time>2020-05-02T06:06:32Z</time>
      </trkpt>
      <trkpt lat="37.4792660" lon="-4.4395100">
        <ele>-55.6</ele>
        <time>2020-05-02T06:06:36Z</time>
      </trkpt>
      <trkpt lat="37.4794660" lon="-4.4394100">
        <ele>-55.2</ele>
        <time>2020-05-02T06:06:40Z</time>
      </trkpt>
      <trkpt lat="37.4796900" lon="-4.4392980">
        <ele>-54.2</ele>
        <time>2020-05-02T06:06:44Z</time>
      </trkpt>
      <trkpt lat="37.4799230" lon="-4.4391810">
        <ele>-53.6</ele>
        <time>2020-05-02T06:06:48Z</time>
      </trkpt>
      <trkpt lat="37.4801600" lon="-4.4390680">
        <ele>-52.4</ele>
        <time>2020-05-02T06:06:52Z</time>
      </trkpt>
      <trkpt lat="37.4803800" lon="-4.4389600">
        <ele>-51.6</ele>
        <time>2020-05-02T06:06:56Z</time>
      </trkpt>
      <trkpt lat="37.4806060" lon="-4.4388350">
        <ele>-50.2</ele>
        <time>2020-05-02T06:07:00Z</time>
      </trkpt>
      <trkpt lat="37.4808330" lon="-4.4387280">
        <ele>-49.4</ele>
        <time>2020-05-02T06:07:04Z</time>
      </trkpt>
      <trkpt lat="37.4810500" lon="-4.4386030">
        <ele>-48.8</ele>
        <time>2020-05-02T06:07:08Z</time>
      </trkpt>
      <trkpt lat="37.4812510" lon="-4.4384610">
        <ele>-47.6</ele>
        <time>2020-05-02T06:07:12Z</time>
      </trkpt>
      <trkpt lat="37.4814410" lon="-4.4383230">
        <ele>-46.8</ele>
        <time>2020-05-02T06:07:16Z</time>
      </trkpt>
      <trkpt lat="37.4816200" lon="-4.4381850">
        <ele>-46.2</ele>
        <time>2020-05-02T06:07:20Z</time>
      </trkpt>
      <trkpt lat="37.4817900" lon="-4.4380650">
        <ele>-45.0</ele>
        <time>2020-05-02T06:07:24Z</time>
      </trkpt>
      <trkpt lat="37.4819530" lon="-4.4379510">
        <ele>-44.0</ele>
        <time>2020-05-02T06:07:28Z</time>
      </trkpt>
      <trkpt lat="37.4821130" lon="-4.4378300">
        <ele>-43.4</ele>
        <time>2020-05-02T06:07:32Z</time>
      </trkpt>
      <trkpt lat="37.4822810" lon="-4.4377110">
        <ele>-42.6</ele>
        <time>2020-05-02T06:07:36Z</time>
      </trkpt>
      <trkpt lat="37.4824610" lon="-4.4376250">
        <ele>-41.8</ele>
        <time>2020-05-02T06:07:40Z</time>
      </trkpt>
      <trkpt lat="37.4826530" lon="-4.4375930">
        <ele>-40.8</ele>
        <time>2020-05-02T06:07:44Z</time>
      </trkpt>
      <trkpt lat="37.4828530" lon="-4.4375750">
        <ele>-40.6</ele>
        <time>2020-05-02T06:07:48Z</time>
      </trkpt>
      <trkpt lat="37.4830500" lon="-4.4375660">
        <ele>-40.0</ele>
        <time>2020-05-02T06:07:52Z</time>
      </trkpt>
      <trkpt lat="37.4832360" lon="-4.4375610">
        <ele>-39.2</ele>
        <time>2020-05-02T06:07:56Z</time>
      </trkpt>
      <trkpt lat="37.4834300" lon="-4.4375530">
        <ele>-38.4</ele>
        <time>2020-05-02T06:08:00Z</time>
      </trkpt>
      <trkpt lat="37.4836260" lon="-4.4375480">
        <ele>-37.0</ele>
        <time>2020-05-02T06:08:04Z</time>
      </trkpt>
      <trkpt lat="37.4838210" lon="-4.4375610">
        <ele>-36.6</ele>
        <time>2020-05-02T06:08:08Z</time>
      </trkpt>
      <trkpt lat="37.4840210" lon="-4.4375360">
        <ele>-35.6</ele>
        <time>2020-05-02T06:08:12Z</time>
      </trkpt>
      <trkpt lat="37.4842130" lon="-4.4375250">
        <ele>-34.6</ele>
        <time>2020-05-02T06:08:16Z</time>
      </trkpt>
      <trkpt lat="37.4858980" lon="-4.4374680">
        <ele>-26.8</ele>
        <time>2020-05-02T06:08:48Z</time>
      </trkpt>
      <trkpt lat="37.4858980" lon="-4.4374680">
        <ele>-26.8</ele>
        <time>2020-05-02T06:08:52Z</time>
      </trkpt>
      <trkpt lat="37.4858980" lon="-4.4374680">
        <ele>-26.2</ele>
        <time>2020-05-02T06:08:56Z</time>
      </trkpt>
      <trkpt lat="37.4860610" lon="-4.4374530">
        <ele>-25.2</ele>
        <time>2020-05-02T06:09:00Z</time>
      </trkpt>
      <trkpt lat="37.4862300" lon="-4.4374500">
        <ele>-24.4</ele>
        <time>2020-05-02T06:09:04Z</time>
      </trkpt>
      <trkpt lat="37.4863960" lon="-4.4374480">
        <ele>-23.6</ele>
        <time>2020-05-02T06:09:08Z</time>
      </trkpt>
      <trkpt lat="37.4865730" lon="-4.4374350">
        <ele>-22.6</ele>
        <time>2020-05-02T06:09:12Z</time>
      </trkpt>
      <trkpt lat="37.4867430" lon="-4.4374250">
        <ele>-21.8</ele>
        <time>2020-05-02T06:09:16Z</time>
      </trkpt>
      <trkpt lat="37.4869160" lon="-4.4374210">
        <ele>-20.2</ele>
        <time>2020-05-02T06:09:20Z</time>
      </trkpt>
      <trkpt lat="37.4870850" lon="-4.4374130">
        <ele>-19.4</ele>
        <time>2020-05-02T06:09:24Z</time>
      </trkpt>
      <trkpt lat="37.4872580" lon="-4.4373730">
        <ele>-18.8</ele>
        <time>2020-05-02T06:09:28Z</time>
      </trkpt>
      <trkpt lat="37.4874330" lon="-4.4372730">
        <ele>-17.6</ele>
        <time>2020-05-02T06:09:32Z</time>
      </trkpt>
      <trkpt lat="37.4875450" lon="-4.4371000">
        <ele>-16.6</ele>
        <time>2020-05-02T06:09:36Z</time>
      </trkpt>
      <trkpt lat="37.4875950" lon="-4.4368810">
        <ele>-15.6</ele>
        <time>2020-05-02T06:09:40Z</time>
      </trkpt>
      <trkpt lat="37.4875980" lon="-4.4366610">
        <ele>-15.2</ele>
        <time>2020-05-02T06:09:44Z</time>
      </trkpt>
      <trkpt lat="37.4875750" lon="-4.4364250">
        <ele>-14.6</ele>
        <time>2020-05-02T06:09:48Z</time>
      </trkpt>
      <trkpt lat="37.4875630" lon="-4.4362110">
        <ele>-13.4</ele>
        <time>2020-05-02T06:09:52Z</time>
      </trkpt>
      <trkpt lat="37.4875460" lon="-4.4360160">
        <ele>-12.4</ele>
        <time>2020-05-02T06:09:56Z</time>
      </trkpt>
      <trkpt lat="37.4875330" lon="-4.4358180">
        <ele>-11.8</ele>
        <time>2020-05-02T06:10:00Z</time>
      </trkpt>
      <trkpt lat="37.4875130" lon="-4.4356250">
        <ele>-11.0</ele>
        <time>2020-05-02T06:10:04Z</time>
      </trkpt>
      <trkpt lat="37.4874950" lon="-4.4354300">
        <ele>-9.8</ele>
        <time>2020-05-02T06:10:08Z</time>
      </trkpt>
      <trkpt lat="37.4874700" lon="-4.4352280">
        <ele>-8.6</ele>
        <time>2020-05-02T06:10:12Z</time>
      </trkpt>
      <trkpt lat="37.4874510" lon="-4.4350180">
        <ele>-7.4</ele>
        <time>2020-05-02T06:10:16Z</time>
      </trkpt>
      <trkpt lat="37.4874430" lon="-4.4348130">
        <ele>-6.4</ele>
        <time>2020-05-02T06:10:20Z</time>
      </trkpt>
      <trkpt lat="37.4874460" lon="-4.4346030">
        <ele>-5.2</ele>
        <time>2020-05-02T06:10:24Z</time>
      </trkpt>
      <trkpt lat="37.4874710" lon="-4.4344100">
        <ele>-4.2</ele>
        <time>2020-05-02T06:10:28Z</time>
      </trkpt>
      <trkpt lat="37.4874950" lon="-4.4342330">
        <ele>-2.6</ele>
        <time>2020-05-02T06:10:32Z</time>
      </trkpt>
      <trkpt lat="37.4875210" lon="-4.4340530">
        <ele>-2.0</ele>
        <time>2020-05-02T06:10:36Z</time>
      </trkpt>
      <trkpt lat="37.4875450" lon="-4.4338760">
        <ele>-1.0</ele>
        <time>2020-05-02T06:10:40Z</time>
      </trkpt>
      <trkpt lat="37.4875700" lon="-4.4337000">
        <ele>-0.2</ele>
        <time>2020-05-02T06:10:44Z</time>
      </trkpt>
      <trkpt lat="37.4875910" lon="-4.4335230">
        <ele>0.6</ele>
        <time>2020-05-02T06:10:48Z</time>
      </trkpt>
      <trkpt lat="37.4876200" lon="-4.4333680">
        <ele>1.8</ele>
        <time>2020-05-02T06:10:52Z</time>
      </trkpt>
      <trkpt lat="37.4876450" lon="-4.4332010">
        <ele>2.8</ele>
        <time>2020-05-02T06:10:56Z</time>
      </trkpt>
      <trkpt lat="37.4876700" lon="-4.4330400">
        <ele>4.0</ele>
        <time>2020-05-02T06:11:00Z</time>
      </trkpt>
      <trkpt lat="37.4876930" lon="-4.4328760">
        <ele>4.8</ele>
        <time>2020-05-02T06:11:04Z</time>
      </trkpt>
      <trkpt lat="37.4877150" lon="-4.4327030">
        <ele>5.0</ele>
        <time>2020-05-02T06:11:08Z</time>
      </trkpt>
      <trkpt lat="37.4877410" lon="-4.4325260">
        <ele>7.0</ele>
        <time>2020-05-02T06:11:12Z</time>
      </trkpt>
      <trkpt lat="37.4877730" lon="-4.4323510">
        <ele>7.6</ele>
        <time>2020-05-02T06:11:16Z</time>
      </trkpt>
      <trkpt lat="37.4877980" lon="-4.4321650">
        <ele>8.4</ele>
        <time>2020-05-02T06:11:20Z</time>
      </trkpt>
      <trkpt lat="37.4878310" lon="-4.4319780">
        <ele>8.6</ele>
        <time>2020-05-02T06:11:24Z</time>
      </trkpt>
      <trkpt lat="37.4878700" lon="-4.4317900">
        <ele>10.6</ele>
        <time>2020-05-02T06:11:28Z</time>
      </trkpt>
      <trkpt lat="37.4879060" lon="-4.4316110">
        <ele>11.2</ele>
        <time>2020-05-02T06:11:32Z</time>
      </trkpt>
      <trkpt lat="37.4879380" lon="-4.4314430">
        <ele>11.8</ele>
        <time>2020-05-02T06:11:36Z</time>
      </trkpt>
      <trkpt lat="37.4879800" lon="-4.4312680">
        <ele>13.2</ele>
        <time>2020-05-02T06:11:40Z</time>
      </trkpt>
      <trkpt lat="37.4880230" lon="-4.4311060">
        <ele>14.0</ele>
        <time>2020-05-02T06:11:44Z</time>
      </trkpt>
      <trkpt lat="37.4880680" lon="-4.4309450">
        <ele>15.2</ele>
        <time>2020-05-02T06:11:48Z</time>
      </trkpt>
      <trkpt lat="37.4881180" lon="-4.4307800">
        <ele>16.4</ele>
        <time>2020-05-02T06:11:52Z</time>
      </trkpt>
      <trkpt lat="37.4881410" lon="-4.4306300">
        <ele>16.8</ele>
        <time>2020-05-02T06:11:56Z</time>
      </trkpt>
      <trkpt lat="37.4881610" lon="-4.4304960">
        <ele>17.0</ele>
        <time>2020-05-02T06:12:00Z</time>
      </trkpt>
      <trkpt lat="37.4881550" lon="-4.4303450">
        <ele>18.0</ele>
        <time>2020-05-02T06:12:04Z</time>
      </trkpt>
      <trkpt lat="37.4881400" lon="-4.4301900">
        <ele>18.6</ele>
        <time>2020-05-02T06:12:08Z</time>
      </trkpt>
      <trkpt lat="37.4881230" lon="-4.4300400">
        <ele>19.4</ele>
        <time>2020-05-02T06:12:12Z</time>
      </trkpt>
      <trkpt lat="37.4881010" lon="-4.4298580">
        <ele>20.6</ele>
        <time>2020-05-02T06:12:16Z</time>
      </trkpt>
      <trkpt lat="37.4881000" lon="-4.4296710">
        <ele>21.8</ele>
        <time>2020-05-02T06:12:20Z</time>
      </trkpt>
      <trkpt lat="37.4880830" lon="-4.4294830">
        <ele>22.0</ele>
        <time>2020-05-02T06:12:24Z</time>
      </trkpt>
      <trkpt lat="37.4880780" lon="-4.4292810">
        <ele>23.2</ele>
        <time>2020-05-02T06:12:28Z</time>
      </trkpt>
      <trkpt lat="37.4880860" lon="-4.4291150">
        <ele>24.0</ele>
        <time>2020-05-02T06:12:32Z</time>
      </trkpt>
      <trkpt lat="37.4881180" lon="-4.4289410">
        <ele>24.2</ele>
        <time>2020-05-02T06:12:36Z</time>
      </trkpt>
      <trkpt lat="37.4881850" lon="-4.4287880">
        <ele>26.0</ele>
        <time>2020-05-02T06:12:40Z</time>
      </trkpt>
      <trkpt lat="37.4882930" lon="-4.4286480">
        <ele>27.0</ele>
        <time>2020-05-02T06:12:44Z</time>
      </trkpt>
      <trkpt lat="37.4884380" lon="-4.4285550">
        <ele>27.8</ele>
        <time>2020-05-02T06:12:48Z</time>
      </trkpt>
      <trkpt lat="37.4885930" lon="-4.4285100">
        <ele>28.8</ele>
        <time>2020-05-02T06:12:52Z</time>
      </trkpt>
      <trkpt lat="37.4887410" lon="-4.4285050">
        <ele>29.0</ele>
        <time>2020-05-02T06:12:56Z</time>
      </trkpt>
      <trkpt lat="37.4888880" lon="-4.4285530">
        <ele>29.8</ele>
        <time>2020-05-02T06:13:00Z</time>
      </trkpt>
      <trkpt lat="37.4890160" lon="-4.4286450">
        <ele>29.6</ele>
        <time>2020-05-02T06:13:04Z</time>
      </trkpt>
      <trkpt lat="37.4891430" lon="-4.4287610">
        <ele>28.6</ele>
        <time>2020-05-02T06:13:08Z</time>
      </trkpt>
      <trkpt lat="37.4892850" lon="-4.4289410">
        <ele>27.4</ele>
        <time>2020-05-02T06:13:12Z</time>
      </trkpt>
      <trkpt lat="37.4894750" lon="-4.4291510">
        <ele>25.2</ele>
        <time>2020-05-02T06:13:16Z</time>
      </trkpt>
      <trkpt lat="37.4897130" lon="-4.4293280">
        <ele>24.6</ele>
        <time>2020-05-02T06:13:20Z</time>
      </trkpt>
      <trkpt lat="37.4899710" lon="-4.4293980">
        <ele>24.4</ele>
        <time>2020-05-02T06:13:24Z</time>
      </trkpt>
      <trkpt lat="37.4902380" lon="-4.4293700">
        <ele>25.0</ele>
        <time>2020-05-02T06:13:28Z</time>
      </trkpt>
      <trkpt lat="37.4904810" lon="-4.4293300">
        <ele>24.6</ele>
        <time>2020-05-02T06:13:32Z</time>
      </trkpt>
      <trkpt lat="37.4906980" lon="-4.4292810">
        <ele>24.6</ele>
        <time>2020-05-02T06:13:36Z</time>
      </trkpt>
      <trkpt lat="37.4909210" lon="-4.4292360">
        <ele>24.0</ele>
        <time>2020-05-02T06:13:40Z</time>
      </trkpt>
      <trkpt lat="37.4911850" lon="-4.4291750">
        <ele>23.2</ele>
        <time>2020-05-02T06:13:44Z</time>
      </trkpt>
      <trkpt lat="37.4914560" lon="-4.4290710">
        <ele>23.2</ele>
        <time>2020-05-02T06:13:48Z</time>
      </trkpt>
      <trkpt lat="37.4916050" lon="-4.4288030">
        <ele>23.2</ele>
        <time>2020-05-02T06:13:52Z</time>
      </trkpt>
      <trkpt lat="37.4914950" lon="-4.4285030">
        <ele>23.0</ele>
        <time>2020-05-02T06:13:56Z</time>
      </trkpt>
      <trkpt lat="37.4912850" lon="-4.4282860">
        <ele>23.0</ele>
        <time>2020-05-02T06:14:00Z</time>
      </trkpt>
      <trkpt lat="37.4911800" lon="-4.4279780">
        <ele>21.0</ele>
        <time>2020-05-02T06:14:04Z</time>
      </trkpt>
      <trkpt lat="37.4913500" lon="-4.4275980">
        <ele>18.4</ele>
        <time>2020-05-02T06:14:08Z</time>
      </trkpt>
      <trkpt lat="37.4916550" lon="-4.4272630">
        <ele>14.4</ele>
        <time>2020-05-02T06:14:12Z</time>
      </trkpt>
      <trkpt lat="37.4919980" lon="-4.4269380">
        <ele>12.8</ele>
        <time>2020-05-02T06:14:16Z</time>
      </trkpt>
      <trkpt lat="37.4923800" lon="-4.4267010">
        <ele>11.8</ele>
        <time>2020-05-02T06:14:20Z</time>
      </trkpt>
      <trkpt lat="37.4927560" lon="-4.4265030">
        <ele>11.8</ele>
        <time>2020-05-02T06:14:24Z</time>
      </trkpt>
      <trkpt lat="37.4930950" lon="-4.4263210">
        <ele>12.2</ele>
        <time>2020-05-02T06:14:28Z</time>
      </trkpt>
      <trkpt lat="37.4934130" lon="-4.4261580">
        <ele>11.6</ele>
        <time>2020-05-02T06:14:32Z</time>
      </trkpt>
      <trkpt lat="37.4937210" lon="-4.4259980">
        <ele>11.6</ele>
        <time>2020-05-02T06:14:36Z</time>
      </trkpt>
      <trkpt lat="37.4940100" lon="-4.4258150">
        <ele>11.8</ele>
        <time>2020-05-02T06:14:40Z</time>
      </trkpt>
      <trkpt lat="37.4941800" lon="-4.4255600">
        <ele>12.8</ele>
        <time>2020-05-02T06:14:44Z</time>
      </trkpt>
      <trkpt lat="37.4942450" lon="-4.4253000">
        <ele>14.0</ele>
        <time>2020-05-02T06:14:48Z</time>
      </trkpt>
      <trkpt lat="37.4942230" lon="-4.4250580">
        <ele>15.6</ele>
        <time>2020-05-02T06:14:52Z</time>
      </trkpt>
      <trkpt lat="37.4941880" lon="-4.4247930">
        <ele>17.4</ele>
        <time>2020-05-02T06:14:56Z</time>
      </trkpt>
      <trkpt lat="37.4941610" lon="-4.4246280">
        <ele>18.6</ele>
        <time>2020-05-02T06:15:00Z</time>
      </trkpt>
      <trkpt lat="37.4941430" lon="-4.4244760">
        <ele>19.6</ele>
        <time>2020-05-02T06:15:04Z</time>
      </trkpt>
      <trkpt lat="37.4941230" lon="-4.4242980">
        <ele>21.6</ele>
        <time>2020-05-02T06:15:08Z</time>
      </trkpt>
      <trkpt lat="37.4941010" lon="-4.4241050">
        <ele>22.4</ele>
        <time>2020-05-02T06:15:12Z</time>
      </trkpt>
      <trkpt lat="37.4940650" lon="-4.4239500">
        <ele>23.2</ele>
        <time>2020-05-02T06:15:16Z</time>
      </trkpt>
      <trkpt lat="37.4940160" lon="-4.4237510">
        <ele>24.0</ele>
        <time>2020-05-02T06:15:20Z</time>
      </trkpt>
      <trkpt lat="37.4939700" lon="-4.4235700">
        <ele>24.8</ele>
        <time>2020-05-02T06:15:24Z</time>
      </trkpt>
      <trkpt lat="37.4939250" lon="-4.4233700">
        <ele>26.0</ele>
        <time>2020-05-02T06:15:28Z</time>
      </trkpt>
      <trkpt lat="37.4938760" lon="-4.4231950">
        <ele>26.8</ele>
        <time>2020-05-02T06:15:32Z</time>
      </trkpt>
      <trkpt lat="37.4938350" lon="-4.4230150">
        <ele>27.2</ele>
        <time>2020-05-02T06:15:36Z</time>
      </trkpt>
      <trkpt lat="37.4938080" lon="-4.4228500">
        <ele>28.2</ele>
        <time>2020-05-02T06:15:40Z</time>
      </trkpt>
      <trkpt lat="37.4937660" lon="-4.4226850">
        <ele>28.8</ele>
        <time>2020-05-02T06:15:44Z</time>
      </trkpt>
      <trkpt lat="37.4937450" lon="-4.4225030">
        <ele>30.2</ele>
        <time>2020-05-02T06:15:48Z</time>
      </trkpt>
      <trkpt lat="37.4937280" lon="-4.4223180">
        <ele>30.8</ele>
        <time>2020-05-02T06:15:52Z</time>
      </trkpt>
      <trkpt lat="37.4937010" lon="-4.4221350">
        <ele>31.4</ele>
        <time>2020-05-02T06:15:56Z</time>
      </trkpt>
      <trkpt lat="37.4936930" lon="-4.4219580">
        <ele>32.2</ele>
        <time>2020-05-02T06:16:00Z</time>
      </trkpt>
      <trkpt lat="37.4937210" lon="-4.4217560">
        <ele>33.2</ele>
        <time>2020-05-02T06:16:04Z</time>
      </trkpt>
      <trkpt lat="37.4938230" lon="-4.4215880">
        <ele>33.6</ele>
        <time>2020-05-02T06:16:08Z</time>
      </trkpt>
      <trkpt lat="37.4939960" lon="-4.4215100">
        <ele>33.6</ele>
        <time>2020-05-02T06:16:12Z</time>
      </trkpt>
      <trkpt lat="37.4941860" lon="-4.4214600">
        <ele>35.0</ele>
        <time>2020-05-02T06:16:16Z</time>
      </trkpt>
      <trkpt lat="37.4943460" lon="-4.4214510">
        <ele>36.0</ele>
        <time>2020-05-02T06:16:20Z</time>
      </trkpt>
      <trkpt lat="37.4945210" lon="-4.4214800">
        <ele>37.0</ele>
        <time>2020-05-02T06:16:24Z</time>
      </trkpt>
      <trkpt lat="37.4947010" lon="-4.4215210">
        <ele>38.2</ele>
        <time>2020-05-02T06:16:28Z</time>
      </trkpt>
      <trkpt lat="37.4948860" lon="-4.4215910">
        <ele>38.6</ele>
        <time>2020-05-02T06:16:32Z</time>
      </trkpt>
      <trkpt lat="37.4950430" lon="-4.4216510">
        <ele>39.6</ele>
        <time>2020-05-02T06:16:36Z</time>
      </trkpt>
      <trkpt lat="37.4952160" lon="-4.4217160">
        <ele>40.2</ele>
        <time>2020-05-02T06:16:40Z</time>
      </trkpt>
      <trkpt lat="37.4953830" lon="-4.4217830">
        <ele>40.0</ele>
        <time>2020-05-02T06:16:44Z</time>
      </trkpt>
      <trkpt lat="37.4955600" lon="-4.4218560">
        <ele>39.8</ele>
        <time>2020-05-02T06:16:48Z</time>
      </trkpt>
      <trkpt lat="37.4957460" lon="-4.4219350">
        <ele>39.2</ele>
        <time>2020-05-02T06:16:52Z</time>
      </trkpt>
      <trkpt lat="37.4959450" lon="-4.4220100">
        <ele>38.8</ele>
        <time>2020-05-02T06:16:56Z</time>
      </trkpt>
      <trkpt lat="37.4961610" lon="-4.4220960">
        <ele>37.8</ele>
        <time>2020-05-02T06:17:00Z</time>
      </trkpt>
      <trkpt lat="37.4964060" lon="-4.4221910">
        <ele>36.6</ele>
        <time>2020-05-02T06:17:04Z</time>
      </trkpt>
      <trkpt lat="37.4967010" lon="-4.4223100">
        <ele>35.2</ele>
        <time>2020-05-02T06:17:08Z</time>
      </trkpt>
      <trkpt lat="37.4970150" lon="-4.4224380">
        <ele>34.4</ele>
        <time>2020-05-02T06:17:12Z</time>
      </trkpt>
      <trkpt lat="37.4973310" lon="-4.4225630">
        <ele>33.2</ele>
        <time>2020-05-02T06:17:16Z</time>
      </trkpt>
      <trkpt lat="37.4976780" lon="-4.4226810">
        <ele>31.8</ele>
        <time>2020-05-02T06:17:20Z</time>
      </trkpt>
      <trkpt lat="37.4980810" lon="-4.4227180">
        <ele>29.2</ele>
        <time>2020-05-02T06:17:24Z</time>
      </trkpt>
      <trkpt lat="37.4985260" lon="-4.4227280">
        <ele>27.8</ele>
        <time>2020-05-02T06:17:28Z</time>
      </trkpt>
      <trkpt lat="37.4989900" lon="-4.4227450">
        <ele>26.0</ele>
        <time>2020-05-02T06:17:32Z</time>
      </trkpt>
      <trkpt lat="37.4994360" lon="-4.4227230">
        <ele>24.6</ele>
        <time>2020-05-02T06:17:36Z</time>
      </trkpt>
      <trkpt lat="37.4998710" lon="-4.4225510">
        <ele>23.4</ele>
        <time>2020-05-02T06:17:40Z</time>
      </trkpt>
      <trkpt lat="37.5002930" lon="-4.4224550">
        <ele>22.6</ele>
        <time>2020-05-02T06:17:44Z</time>
      </trkpt>
      <trkpt lat="37.5007110" lon="-4.4225460">
        <ele>21.8</ele>
        <time>2020-05-02T06:17:48Z</time>
      </trkpt>
      <trkpt lat="37.5011100" lon="-4.4225180">
        <ele>19.2</ele>
        <time>2020-05-02T06:17:52Z</time>
      </trkpt>
      <trkpt lat="37.5015010" lon="-4.4223200">
        <ele>17.2</ele>
        <time>2020-05-02T06:17:56Z</time>
      </trkpt>
      <trkpt lat="37.5019460" lon="-4.4222650">
        <ele>14.0</ele>
        <time>2020-05-02T06:18:00Z</time>
      </trkpt>
      <trkpt lat="37.5023910" lon="-4.4222430">
        <ele>12.6</ele>
        <time>2020-05-02T06:18:04Z</time>
      </trkpt>
      <trkpt lat="37.5027230" lon="-4.4219360">
        <ele>11.4</ele>
        <time>2020-05-02T06:18:08Z</time>
      </trkpt>
      <trkpt lat="37.5028780" lon="-4.4214650">
        <ele>10.4</ele>
        <time>2020-05-02T06:18:12Z</time>
      </trkpt>
      <trkpt lat="37.5031400" lon="-4.4211030">
        <ele>9.4</ele>
        <time>2020-05-02T06:18:16Z</time>
      </trkpt>
      <trkpt lat="37.5034660" lon="-4.4208350">
        <ele>8.6</ele>
        <time>2020-05-02T06:18:20Z</time>
      </trkpt>
      <trkpt lat="37.5037810" lon="-4.4205710">
        <ele>8.4</ele>
        <time>2020-05-02T06:18:24Z</time>
      </trkpt>
      <trkpt lat="37.5040630" lon="-4.4203110">
        <ele>8.0</ele>
        <time>2020-05-02T06:18:28Z</time>
      </trkpt>
      <trkpt lat="37.5043030" lon="-4.4200360">
        <ele>7.4</ele>
        <time>2020-05-02T06:18:32Z</time>
      </trkpt>
      <trkpt lat="37.5045300" lon="-4.4197460">
        <ele>7.0</ele>
        <time>2020-05-02T06:18:36Z</time>
      </trkpt>
      <trkpt lat="37.5048010" lon="-4.4196250">
        <ele>7.2</ele>
        <time>2020-05-02T06:18:40Z</time>
      </trkpt>
      <trkpt lat="37.5050380" lon="-4.4197800">
        <ele>7.8</ele>
        <time>2020-05-02T06:18:44Z</time>
      </trkpt>
      <trkpt lat="37.5052310" lon="-4.4200050">
        <ele>8.0</ele>
        <time>2020-05-02T06:18:48Z</time>
      </trkpt>
      <trkpt lat="37.5054200" lon="-4.4201600">
        <ele>9.6</ele>
        <time>2020-05-02T06:18:52Z</time>
      </trkpt>
      <trkpt lat="37.5056300" lon="-4.4202180">
        <ele>11.0</ele>
        <time>2020-05-02T06:18:56Z</time>
      </trkpt>
      <trkpt lat="37.5058530" lon="-4.4202080">
        <ele>12.4</ele>
        <time>2020-05-02T06:19:00Z</time>
      </trkpt>
      <trkpt lat="37.5060750" lon="-4.4201310">
        <ele>13.8</ele>
        <time>2020-05-02T06:19:04Z</time>
      </trkpt>
      <trkpt lat="37.5062980" lon="-4.4200130">
        <ele>15.2</ele>
        <time>2020-05-02T06:19:08Z</time>
      </trkpt>
      <trkpt lat="37.5065250" lon="-4.4198750">
        <ele>17.0</ele>
        <time>2020-05-02T06:19:12Z</time>
      </trkpt>
      <trkpt lat="37.5067230" lon="-4.4197550">
        <ele>18.8</ele>
        <time>2020-05-02T06:19:16Z</time>
      </trkpt>
      <trkpt lat="37.5068880" lon="-4.4196500">
        <ele>20.0</ele>
        <time>2020-05-02T06:19:20Z</time>
      </trkpt>
      <trkpt lat="37.5070580" lon="-4.4195280">
        <ele>21.2</ele>
        <time>2020-05-02T06:19:24Z</time>
      </trkpt>
      <trkpt lat="37.5072500" lon="-4.4194180">
        <ele>22.4</ele>
        <time>2020-05-02T06:19:28Z</time>
      </trkpt>
      <trkpt lat="37.5074430" lon="-4.4192800">
        <ele>23.6</ele>
        <time>2020-05-02T06:19:32Z</time>
      </trkpt>
      <trkpt lat="37.5075960" lon="-4.4191630">
        <ele>25.8</ele>
        <time>2020-05-02T06:19:36Z</time>
      </trkpt>
      <trkpt lat="37.5077110" lon="-4.4190650">
        <ele>27.0</ele>
        <time>2020-05-02T06:19:40Z</time>
      </trkpt>
      <trkpt lat="37.5078650" lon="-4.4189450">
        <ele>27.8</ele>
        <time>2020-05-02T06:19:44Z</time>
      </trkpt>
      <trkpt lat="37.5079830" lon="-4.4188430">
        <ele>29.2</ele>
        <time>2020-05-02T06:19:48Z</time>
      </trkpt>
      <trkpt lat="37.5080780" lon="-4.4187510">
        <ele>29.8</ele>
        <time>2020-05-02T06:19:52Z</time>
      </trkpt>
      <trkpt lat="37.5082230" lon="-4.4186250">
        <ele>30.4</ele>
        <time>2020-05-02T06:19:56Z</time>
      </trkpt>
      <trkpt lat="37.5083530" lon="-4.4185200">
        <ele>31.4</ele>
        <time>2020-05-02T06:20:00Z</time>
      </trkpt>
      <trkpt lat="37.5084610" lon="-4.4184330">
        <ele>31.8</ele>
        <time>2020-05-02T06:20:04Z</time>
      </trkpt>
      <trkpt lat="37.5086100" lon="-4.4183130">
        <ele>32.4</ele>
        <time>2020-05-02T06:20:08Z</time>
      </trkpt>
      <trkpt lat="37.5087350" lon="-4.4182030">
        <ele>33.4</ele>
        <time>2020-05-02T06:20:12Z</time>
      </trkpt>
      <trkpt lat="37.5088730" lon="-4.4180660">
        <ele>33.8</ele>
        <time>2020-05-02T06:20:16Z</time>
      </trkpt>
      <trkpt lat="37.5089980" lon="-4.4179360">
        <ele>34.6</ele>
        <time>2020-05-02T06:20:20Z</time>
      </trkpt>
      <trkpt lat="37.5091200" lon="-4.4177350">
        <ele>34.2</ele>
        <time>2020-05-02T06:20:24Z</time>
      </trkpt>
      <trkpt lat="37.5092310" lon="-4.4174600">
        <ele>32.4</ele>
        <time>2020-05-02T06:20:28Z</time>
      </trkpt>
      <trkpt lat="37.5093700" lon="-4.4171180">
        <ele>30.4</ele>
        <time>2020-05-02T06:20:32Z</time>
      </trkpt>
      <trkpt lat="37.5095430" lon="-4.4167610">
        <ele>28.6</ele>
        <time>2020-05-02T06:20:36Z</time>
      </trkpt>
      <trkpt lat="37.5097360" lon="-4.4164200">
        <ele>27.4</ele>
        <time>2020-05-02T06:20:40Z</time>
      </trkpt>
      <trkpt lat="37.5099350" lon="-4.4160950">
        <ele>26.0</ele>
        <time>2020-05-02T06:20:44Z</time>
      </trkpt>
      <trkpt lat="37.5101310" lon="-4.4157760">
        <ele>25.8</ele>
        <time>2020-05-02T06:20:48Z</time>
      </trkpt>
      <trkpt lat="37.5103200" lon="-4.4154660">
        <ele>25.0</ele>
        <time>2020-05-02T06:20:52Z</time>
      </trkpt>
      <trkpt lat="37.5105130" lon="-4.4151610">
        <ele>25.2</ele>
        <time>2020-05-02T06:20:56Z</time>
      </trkpt>
      <trkpt lat="37.5106980" lon="-4.4148850">
        <ele>25.4</ele>
        <time>2020-05-02T06:21:00Z</time>
      </trkpt>
      <trkpt lat="37.5108900" lon="-4.4146060">
        <ele>25.6</ele>
        <time>2020-05-02T06:21:04Z</time>
      </trkpt>
      <trkpt lat="37.5111160" lon="-4.4143400">
        <ele>25.0</ele>
        <time>2020-05-02T06:21:08Z</time>
      </trkpt>
      <trkpt lat="37.5113830" lon="-4.4141200">
        <ele>25.6</ele>
        <time>2020-05-02T06:21:12Z</time>
      </trkpt>
      <trkpt lat="37.5116530" lon="-4.4139230">
        <ele>26.6</ele>
        <time>2020-05-02T06:21:16Z</time>
      </trkpt>
      <trkpt lat="37.5118830" lon="-4.4137300">
        <ele>27.2</ele>
        <time>2020-05-02T06:21:20Z</time>
      </trkpt>
      <trkpt lat="37.5120760" lon="-4.4135280">
        <ele>28.0</ele>
        <time>2020-05-02T06:21:24Z</time>
      </trkpt>
      <trkpt lat="37.5122700" lon="-4.4132960">
        <ele>27.8</ele>
        <time>2020-05-02T06:21:28Z</time>
      </trkpt>
      <trkpt lat="37.5124400" lon="-4.4130780">
        <ele>28.4</ele>
        <time>2020-05-02T06:21:32Z</time>
      </trkpt>
      <trkpt lat="37.5126250" lon="-4.4128550">
        <ele>27.6</ele>
        <time>2020-05-02T06:21:36Z</time>
      </trkpt>
      <trkpt lat="37.5128130" lon="-4.4126450">
        <ele>27.4</ele>
        <time>2020-05-02T06:21:40Z</time>
      </trkpt>
      <trkpt lat="37.5130000" lon="-4.4125000">
        <ele>28.2</ele>
        <time>2020-05-02T06:21:44Z</time>
      </trkpt>
      <trkpt lat="37.5131750" lon="-4.4123900">
        <ele>28.6</ele>
        <time>2020-05-02T06:21:48Z</time>
      </trkpt>
      <trkpt lat="37.5133330" lon="-4.4122780">
        <ele>29.6</ele>
        <time>2020-05-02T06:21:52Z</time>
      </trkpt>
      <trkpt lat="37.5134900" lon="-4.4121860">
        <ele>31.0</ele>
        <time>2020-05-02T06:21:56Z</time>
      </trkpt>
      <trkpt lat="37.5136130" lon="-4.4121180">
        <ele>31.6</ele>
        <time>2020-05-02T06:22:00Z</time>
      </trkpt>
      <trkpt lat="37.5137650" lon="-4.4120160">
        <ele>32.6</ele>
        <time>2020-05-02T06:22:04Z</time>
      </trkpt>
      <trkpt lat="37.5138750" lon="-4.4119430">
        <ele>33.6</ele>
        <time>2020-05-02T06:22:08Z</time>
      </trkpt>
      <trkpt lat="37.5140050" lon="-4.4118530">
        <ele>35.0</ele>
        <time>2020-05-02T06:22:12Z</time>
      </trkpt>
      <trkpt lat="37.5141080" lon="-4.4117580">
        <ele>36.2</ele>
        <time>2020-05-02T06:22:16Z</time>
      </trkpt>
      <trkpt lat="37.5142060" lon="-4.4116050">
        <ele>37.4</ele>
        <time>2020-05-02T06:22:20Z</time>
      </trkpt>
      <trkpt lat="37.5142460" lon="-4.4114500">
        <ele>38.2</ele>
        <time>2020-05-02T06:22:24Z</time>
      </trkpt>
      <trkpt lat="37.5142250" lon="-4.4112410">
        <ele>39.6</ele>
        <time>2020-05-02T06:22:28Z</time>
      </trkpt>
      <trkpt lat="37.5141860" lon="-4.4110430">
        <ele>40.6</ele>
        <time>2020-05-02T06:22:32Z</time>
      </trkpt>
      <trkpt lat="37.5142080" lon="-4.4108400">
        <ele>41.6</ele>
        <time>2020-05-02T06:22:36Z</time>
      </trkpt>
      <trkpt lat="37.5143160" lon="-4.4106680">
        <ele>42.0</ele>
        <time>2020-05-02T06:22:40Z</time>
      </trkpt>
      <trkpt lat="37.5144900" lon="-4.4105910">
        <ele>44.0</ele>
        <time>2020-05-02T06:22:44Z</time>
      </trkpt>
      <trkpt lat="37.5146250" lon="-4.4105660">
        <ele>44.6</ele>
        <time>2020-05-02T06:22:48Z</time>
      </trkpt>
      <trkpt lat="37.5147680" lon="-4.4105260">
        <ele>45.4</ele>
        <time>2020-05-02T06:22:52Z</time>
      </trkpt>
      <trkpt lat="37.5149010" lon="-4.4104460">
        <ele>46.2</ele>
        <time>2020-05-02T06:22:56Z</time>
      </trkpt>
      <trkpt lat="37.5150250" lon="-4.4103230">
        <ele>47.4</ele>
        <time>2020-05-02T06:23:00Z</time>
      </trkpt>
      <trkpt lat="37.5151080" lon="-4.4101880">
        <ele>47.6</ele>
        <time>2020-05-02T06:23:04Z</time>
      </trkpt>
      <trkpt lat="37.5151560" lon="-4.4100260">
        <ele>48.6</ele>
        <time>2020-05-02T06:23:08Z</time>
      </trkpt>
      <trkpt lat="37.5151300" lon="-4.4098610">
        <ele>49.0</ele>
        <time>2020-05-02T06:23:12Z</time>
      </trkpt>
      <trkpt lat="37.5150810" lon="-4.4096960">
        <ele>50.4</ele>
        <time>2020-05-02T06:23:16Z</time>
      </trkpt>
      <trkpt lat="37.5150310" lon="-4.4095810">
        <ele>51.0</ele>
        <time>2020-05-02T06:23:20Z</time>
      </trkpt>
      <trkpt lat="37.5149550" lon="-4.4094110">
        <ele>51.6</ele>
        <time>2020-05-02T06:23:24Z</time>
      </trkpt>
      <trkpt lat="37.5149110" lon="-4.4092750">
        <ele>52.6</ele>
        <time>2020-05-02T06:23:28Z</time>
      </trkpt>
      <trkpt lat="37.5148830" lon="-4.4090800">
        <ele>53.6</ele>
        <time>2020-05-02T06:23:32Z</time>
      </trkpt>
      <trkpt lat="37.5148900" lon="-4.4089160">
        <ele>54.0</ele>
        <time>2020-05-02T06:23:36Z</time>
      </trkpt>
      <trkpt lat="37.5149180" lon="-4.4087200">
        <ele>55.0</ele>
        <time>2020-05-02T06:23:40Z</time>
      </trkpt>
      <trkpt lat="37.5149600" lon="-4.4085610">
        <ele>56.2</ele>
        <time>2020-05-02T06:23:44Z</time>
      </trkpt>
      <trkpt lat="37.5150100" lon="-4.4083830">
        <ele>56.8</ele>
        <time>2020-05-02T06:23:48Z</time>
      </trkpt>
      <trkpt lat="37.5150630" lon="-4.4082510">
        <ele>57.4</ele>
        <time>2020-05-02T06:23:52Z</time>
      </trkpt>
      <trkpt lat="37.5151310" lon="-4.4080800">
        <ele>58.0</ele>
        <time>2020-05-02T06:23:56Z</time>
      </trkpt>
      <trkpt lat="37.5152030" lon="-4.4079650">
        <ele>58.8</ele>
        <time>2020-05-02T06:24:00Z</time>
      </trkpt>
      <trkpt lat="37.5153250" lon="-4.4078230">
        <ele>58.8</ele>
        <time>2020-05-02T06:24:04Z</time>
      </trkpt>
      <trkpt lat="37.5154250" lon="-4.4077200">
        <ele>60.4</ele>
        <time>2020-05-02T06:24:08Z</time>
      </trkpt>
      <trkpt lat="37.5155400" lon="-4.4076060">
        <ele>60.8</ele>
        <time>2020-05-02T06:24:12Z</time>
      </trkpt>
      <trkpt lat="37.5156660" lon="-4.4074860">
        <ele>62.0</ele>
        <time>2020-05-02T06:24:16Z</time>
      </trkpt>
      <trkpt lat="37.5157660" lon="-4.4073860">
        <ele>62.6</ele>
        <time>2020-05-02T06:24:20Z</time>
      </trkpt>
      <trkpt lat="37.5158980" lon="-4.4072550">
        <ele>63.6</ele>
        <time>2020-05-02T06:24:24Z</time>
      </trkpt>
      <trkpt lat="37.5159950" lon="-4.4071600">
        <ele>65.6</ele>
        <time>2020-05-02T06:24:28Z</time>
      </trkpt>
      <trkpt lat="37.5161010" lon="-4.4070730">
        <ele>66.4</ele>
        <time>2020-05-02T06:24:32Z</time>
      </trkpt>
      <trkpt lat="37.5162400" lon="-4.4069480">
        <ele>67.2</ele>
        <time>2020-05-02T06:24:36Z</time>
      </trkpt>
      <trkpt lat="37.5163360" lon="-4.4068630">
        <ele>68.2</ele>
        <time>2020-05-02T06:24:40Z</time>
      </trkpt>
      <trkpt lat="37.5164750" lon="-4.4067800">
        <ele>69.0</ele>
        <time>2020-05-02T06:24:44Z</time>
      </trkpt>
      <trkpt lat="37.5166150" lon="-4.4067750">
        <ele>70.4</ele>
        <time>2020-05-02T06:24:48Z</time>
      </trkpt>
      <trkpt lat="37.5167530" lon="-4.4067530">
        <ele>71.2</ele>
        <time>2020-05-02T06:24:52Z</time>
      </trkpt>
      <trkpt lat="37.5168950" lon="-4.4067280">
        <ele>72.4</ele>
        <time>2020-05-02T06:24:56Z</time>
      </trkpt>
      <trkpt lat="37.5170030" lon="-4.4066460">
        <ele>72.6</ele>
        <time>2020-05-02T06:25:00Z</time>
      </trkpt>
      <trkpt lat="37.5170860" lon="-4.4064930">
        <ele>73.2</ele>
        <time>2020-05-02T06:25:04Z</time>
      </trkpt>
      <trkpt lat="37.5171450" lon="-4.4063030">
        <ele>73.2</ele>
        <time>2020-05-02T06:25:08Z</time>
      </trkpt>
      <trkpt lat="37.5171650" lon="-4.4061400">
        <ele>73.4</ele>
        <time>2020-05-02T06:25:12Z</time>
      </trkpt>
      <trkpt lat="37.5171550" lon="-4.4059710">
        <ele>74.2</ele>
        <time>2020-05-02T06:25:16Z</time>
      </trkpt>
      <trkpt lat="37.5170950" lon="-4.4057800">
        <ele>74.6</ele>
        <time>2020-05-02T06:25:20Z</time>
      </trkpt>
      <trkpt lat="37.5170360" lon="-4.4056050">
        <ele>75.2</ele>
        <time>2020-05-02T06:25:24Z</time>
      </trkpt>
      <trkpt lat="37.5170280" lon="-4.4054550">
        <ele>75.8</ele>
        <time>2020-05-02T06:25:28Z</time>
      </trkpt>
      <trkpt lat="37.5171310" lon="-4.4053660">
        <ele>76.6</ele>
        <time>2020-05-02T06:25:32Z</time>
      </trkpt>
      <trkpt lat="37.5172610" lon="-4.4054710">
        <ele>77.2</ele>
        <time>2020-05-02T06:25:36Z</time>
      </trkpt>
      <trkpt lat="37.5173510" lon="-4.4056110">
        <ele>77.0</ele>
        <time>2020-05-02T06:25:40Z</time>
      </trkpt>
      <trkpt lat="37.5174560" lon="-4.4057560">
        <ele>78.4</ele>
        <time>2020-05-02T06:25:44Z</time>
      </trkpt>
      <trkpt lat="37.5175960" lon="-4.4059030">
        <ele>78.4</ele>
        <time>2020-05-02T06:25:48Z</time>
      </trkpt>
      <trkpt lat="37.5177200" lon="-4.4060030">
        <ele>79.4</ele>
        <time>2020-05-02T06:25:52Z</time>
      </trkpt>
      <trkpt lat="37.5178810" lon="-4.4060950">
        <ele>80.0</ele>
        <time>2020-05-02T06:25:56Z</time>
      </trkpt>
      <trkpt lat="37.5180310" lon="-4.4061600">
        <ele>81.4</ele>
        <time>2020-05-02T06:26:00Z</time>
      </trkpt>
      <trkpt lat="37.5181660" lon="-4.4062130">
        <ele>82.4</ele>
        <time>2020-05-02T06:26:04Z</time>
      </trkpt>
      <trkpt lat="37.5182960" lon="-4.4062510">
        <ele>83.6</ele>
        <time>2020-05-02T06:26:08Z</time>
      </trkpt>
      <trkpt lat="37.5184210" lon="-4.4063010">
        <ele>84.4</ele>
        <time>2020-05-02T06:26:12Z</time>
      </trkpt>
      <trkpt lat="37.5185580" lon="-4.4063580">
        <ele>84.6</ele>
        <time>2020-05-02T06:26:16Z</time>
      </trkpt>
      <trkpt lat="37.5187430" lon="-4.4064280">
        <ele>86.0</ele>
        <time>2020-05-02T06:26:20Z</time>
      </trkpt>
      <trkpt lat="37.5188830" lon="-4.4064710">
        <ele>86.8</ele>
        <time>2020-05-02T06:26:24Z</time>
      </trkpt>
      <trkpt lat="37.5190680" lon="-4.4065360">
        <ele>88.0</ele>
        <time>2020-05-02T06:26:28Z</time>
      </trkpt>
      <trkpt lat="37.5192150" lon="-4.4065660">
        <ele>89.2</ele>
        <time>2020-05-02T06:26:32Z</time>
      </trkpt>
      <trkpt lat="37.5193900" lon="-4.4065430">
        <ele>90.0</ele>
        <time>2020-05-02T06:26:36Z</time>
      </trkpt>
      <trkpt lat="37.5195630" lon="-4.4064860">
        <ele>89.2</ele>
        <time>2020-05-02T06:26:40Z</time>
      </trkpt>
      <trkpt lat="37.5197680" lon="-4.4064060">
        <ele>88.0</ele>
        <time>2020-05-02T06:26:44Z</time>
      </trkpt>
      <trkpt lat="37.5199560" lon="-4.4061680">
        <ele>86.0</ele>
        <time>2020-05-02T06:26:48Z</time>
      </trkpt>
      <trkpt lat="37.5200860" lon="-4.4058100">
        <ele>84.0</ele>
        <time>2020-05-02T06:26:52Z</time>
      </trkpt>
      <trkpt lat="37.5203230" lon="-4.4055050">
        <ele>82.0</ele>
        <time>2020-05-02T06:26:56Z</time>
      </trkpt>
      <trkpt lat="37.5206330" lon="-4.4052660">
        <ele>80.0</ele>
        <time>2020-05-02T06:27:00Z</time>
      </trkpt>
      <trkpt lat="37.5209750" lon="-4.4050650">
        <ele>78.4</ele>
        <time>2020-05-02T06:27:04Z</time>
      </trkpt>
      <trkpt lat="37.5213230" lon="-4.4048660">
        <ele>76.8</ele>
        <time>2020-05-02T06:27:08Z</time>
      </trkpt>
      <trkpt lat="37.5216880" lon="-4.4047430">
        <ele>75.2</ele>
        <time>2020-05-02T06:27:12Z</time>
      </trkpt>
      <trkpt lat="37.5220330" lon="-4.4048580">
        <ele>75.6</ele>
        <time>2020-05-02T06:27:16Z</time>
      </trkpt>
      <trkpt lat="37.5222660" lon="-4.4051310">
        <ele>76.0</ele>
        <time>2020-05-02T06:27:20Z</time>
      </trkpt>
      <trkpt lat="37.5225480" lon="-4.4052860">
        <ele>76.2</ele>
        <time>2020-05-02T06:27:24Z</time>
      </trkpt>
      <trkpt lat="37.5228700" lon="-4.4053100">
        <ele>76.2</ele>
        <time>2020-05-02T06:27:28Z</time>
      </trkpt>
      <trkpt lat="37.5232360" lon="-4.4053030">
        <ele>76.2</ele>
        <time>2020-05-02T06:27:32Z</time>
      </trkpt>
      <trkpt lat="37.5235900" lon="-4.4053110">
        <ele>77.8</ele>
        <time>2020-05-02T06:27:36Z</time>
      </trkpt>
      <trkpt lat="37.5238750" lon="-4.4053200">
        <ele>78.6</ele>
        <time>2020-05-02T06:27:40Z</time>
      </trkpt>
      <trkpt lat="37.5241710" lon="-4.4053280">
        <ele>80.0</ele>
        <time>2020-05-02T06:27:44Z</time>
      </trkpt>
      <trkpt lat="37.5244630" lon="-4.4053480">
        <ele>79.2</ele>
        <time>2020-05-02T06:27:48Z</time>
      </trkpt>
      <trkpt lat="37.5247810" lon="-4.4053460">
        <ele>77.0</ele>
        <time>2020-05-02T06:27:52Z</time>
      </trkpt>
      <trkpt lat="37.5251400" lon="-4.4052580">
        <ele>74.2</ele>
        <time>2020-05-02T06:27:56Z</time>
      </trkpt>
      <trkpt lat="37.5254830" lon="-4.4049850">
        <ele>71.8</ele>
        <time>2020-05-02T06:28:00Z</time>
      </trkpt>
      <trkpt lat="37.5257950" lon="-4.4046480">
        <ele>70.2</ele>
        <time>2020-05-02T06:28:04Z</time>
      </trkpt>
      <trkpt lat="37.5261110" lon="-4.4043280">
        <ele>69.2</ele>
        <time>2020-05-02T06:28:08Z</time>
      </trkpt>
      <trkpt lat="37.5265000" lon="-4.4042280">
        <ele>67.6</ele>
        <time>2020-05-02T06:28:12Z</time>
      </trkpt>
      <trkpt lat="37.5268800" lon="-4.4042230">
        <ele>67.8</ele>
        <time>2020-05-02T06:28:16Z</time>
      </trkpt>
      <trkpt lat="37.5272580" lon="-4.4042360">
        <ele>67.0</ele>
        <time>2020-05-02T06:28:20Z</time>
      </trkpt>
      <trkpt lat="37.5276300" lon="-4.4042010">
        <ele>66.4</ele>
        <time>2020-05-02T06:28:24Z</time>
      </trkpt>
      <trkpt lat="37.5279710" lon="-4.4040930">
        <ele>65.6</ele>
        <time>2020-05-02T06:28:28Z</time>
      </trkpt>
      <trkpt lat="37.5282580" lon="-4.4038400">
        <ele>64.0</ele>
        <time>2020-05-02T06:28:32Z</time>
      </trkpt>
      <trkpt lat="37.5284800" lon="-4.4035050">
        <ele>63.6</ele>
        <time>2020-05-02T06:28:36Z</time>
      </trkpt>
      <trkpt lat="37.5286760" lon="-4.4031550">
        <ele>63.4</ele>
        <time>2020-05-02T06:28:40Z</time>
      </trkpt>
      <trkpt lat="37.5288800" lon="-4.4028200">
        <ele>63.6</ele>
        <time>2020-05-02T06:28:44Z</time>
      </trkpt>
      <trkpt lat="37.5290750" lon="-4.4024780">
        <ele>62.6</ele>
        <time>2020-05-02T06:28:48Z</time>
      </trkpt>
      <trkpt lat="37.5292530" lon="-4.4021010">
        <ele>61.6</ele>
        <time>2020-05-02T06:28:52Z</time>
      </trkpt>
      <trkpt lat="37.5292880" lon="-4.4016610">
        <ele>60.6</ele>
        <time>2020-05-02T06:28:56Z</time>
      </trkpt>
      <trkpt lat="37.5293100" lon="-4.4011860">
        <ele>58.6</ele>
        <time>2020-05-02T06:29:00Z</time>
      </trkpt>
      <trkpt lat="37.5294610" lon="-4.4007250">
        <ele>56.2</ele>
        <time>2020-05-02T06:29:04Z</time>
      </trkpt>
      <trkpt lat="37.5297330" lon="-4.4003510">
        <ele>54.6</ele>
        <time>2020-05-02T06:29:08Z</time>
      </trkpt>
      <trkpt lat="37.5300000" lon="-4.4000260">
        <ele>54.6</ele>
        <time>2020-05-02T06:29:12Z</time>
      </trkpt>
      <trkpt lat="37.5302300" lon="-4.3997530">
        <ele>56.8</ele>
        <time>2020-05-02T06:29:16Z</time>
      </trkpt>
      <trkpt lat="37.5304330" lon="-4.3994950">
        <ele>57.4</ele>
        <time>2020-05-02T06:29:20Z</time>
      </trkpt>
      <trkpt lat="37.5306430" lon="-4.3992400">
        <ele>58.4</ele>
        <time>2020-05-02T06:29:24Z</time>
      </trkpt>
      <trkpt lat="37.5308280" lon="-4.3990250">
        <ele>59.8</ele>
        <time>2020-05-02T06:29:28Z</time>
      </trkpt>
      <trkpt lat="37.5309900" lon="-4.3988300">
        <ele>60.2</ele>
        <time>2020-05-02T06:29:32Z</time>
      </trkpt>
      <trkpt lat="37.5311380" lon="-4.3986450">
        <ele>60.0</ele>
        <time>2020-05-02T06:29:36Z</time>
      </trkpt>
      <trkpt lat="37.5313250" lon="-4.3984050">
        <ele>60.6</ele>
        <time>2020-05-02T06:29:40Z</time>
      </trkpt>
      <trkpt lat="37.5315050" lon="-4.3981860">
        <ele>61.8</ele>
        <time>2020-05-02T06:29:44Z</time>
      </trkpt>
      <trkpt lat="37.5316650" lon="-4.3980100">
        <ele>62.8</ele>
        <time>2020-05-02T06:29:48Z</time>
      </trkpt>
      <trkpt lat="37.5318460" lon="-4.3977830">
        <ele>62.4</ele>
        <time>2020-05-02T06:29:52Z</time>
      </trkpt>
      <trkpt lat="37.5320300" lon="-4.3975600">
        <ele>63.6</ele>
        <time>2020-05-02T06:29:56Z</time>
      </trkpt>
      <trkpt lat="37.5321710" lon="-4.3973830">
        <ele>64.8</ele>
        <time>2020-05-02T06:30:00Z</time>
      </trkpt>
      <trkpt lat="37.5323310" lon="-4.3971760">
        <ele>64.4</ele>
        <time>2020-05-02T06:30:04Z</time>
      </trkpt>
      <trkpt lat="37.5325130" lon="-4.3969350">
        <ele>65.6</ele>
        <time>2020-05-02T06:30:08Z</time>
      </trkpt>
      <trkpt lat="37.5326630" lon="-4.3967250">
        <ele>65.6</ele>
        <time>2020-05-02T06:30:12Z</time>
      </trkpt>
      <trkpt lat="37.5328180" lon="-4.3965050">
        <ele>65.6</ele>
        <time>2020-05-02T06:30:16Z</time>
      </trkpt>
      <trkpt lat="37.5329860" lon="-4.3962550">
        <ele>66.0</ele>
        <time>2020-05-02T06:30:20Z</time>
      </trkpt>
      <trkpt lat="37.5331550" lon="-4.3959960">
        <ele>66.6</ele>
        <time>2020-05-02T06:30:24Z</time>
      </trkpt>
      <trkpt lat="37.5332960" lon="-4.3957510">
        <ele>66.6</ele>
        <time>2020-05-02T06:30:28Z</time>
      </trkpt>
      <trkpt lat="37.5333960" lon="-4.3955050">
        <ele>66.4</ele>
        <time>2020-05-02T06:30:32Z</time>
      </trkpt>
      <trkpt lat="37.5334880" lon="-4.3952900">
        <ele>67.0</ele>
        <time>2020-05-02T06:30:36Z</time>
      </trkpt>
      <trkpt lat="37.5335860" lon="-4.3950510">
        <ele>66.4</ele>
        <time>2020-05-02T06:30:40Z</time>
      </trkpt>
      <trkpt lat="37.5337050" lon="-4.3947630">
        <ele>66.6</ele>
        <time>2020-05-02T06:30:44Z</time>
      </trkpt>
      <trkpt lat="37.5338260" lon="-4.3944730">
        <ele>67.0</ele>
        <time>2020-05-02T06:30:48Z</time>
      </trkpt>
      <trkpt lat="37.5339480" lon="-4.3942010">
        <ele>66.6</ele>
        <time>2020-05-02T06:30:52Z</time>
      </trkpt>
      <trkpt lat="37.5340950" lon="-4.3939510">
        <ele>66.0</ele>
        <time>2020-05-02T06:30:56Z</time>
      </trkpt>
      <trkpt lat="37.5342630" lon="-4.3937480">
        <ele>66.4</ele>
        <time>2020-05-02T06:31:00Z</time>
      </trkpt>
      <trkpt lat="37.5344630" lon="-4.3935360">
        <ele>67.6</ele>
        <time>2020-05-02T06:31:04Z</time>
      </trkpt>
      <trkpt lat="37.5346460" lon="-4.3933710">
        <ele>67.4</ele>
        <time>2020-05-02T06:31:08Z</time>
      </trkpt>
      <trkpt lat="37.5348660" lon="-4.3932050">
        <ele>69.0</ele>
        <time>2020-05-02T06:31:12Z</time>
      </trkpt>
      <trkpt lat="37.5351200" lon="-4.3930360">
        <ele>70.4</ele>
        <time>2020-05-02T06:31:16Z</time>
      </trkpt>
      <trkpt lat="37.5352960" lon="-4.3928710">
        <ele>71.0</ele>
        <time>2020-05-02T06:31:20Z</time>
      </trkpt>
      <trkpt lat="37.5353850" lon="-4.3926230">
        <ele>70.2</ele>
        <time>2020-05-02T06:31:24Z</time>
      </trkpt>
      <trkpt lat="37.5354310" lon="-4.3923180">
        <ele>70.2</ele>
        <time>2020-05-02T06:31:28Z</time>
      </trkpt>
      <trkpt lat="37.5354780" lon="-4.3920400">
        <ele>70.2</ele>
        <time>2020-05-02T06:31:32Z</time>
      </trkpt>
      <trkpt lat="37.5356330" lon="-4.3918500">
        <ele>70.8</ele>
        <time>2020-05-02T06:31:36Z</time>
      </trkpt>
      <trkpt lat="37.5358910" lon="-4.3917800">
        <ele>70.4</ele>
        <time>2020-05-02T06:31:40Z</time>
      </trkpt>
      <trkpt lat="37.5361330" lon="-4.3918810">
        <ele>71.6</ele>
        <time>2020-05-02T06:31:44Z</time>
      </trkpt>
      <trkpt lat="37.5363610" lon="-4.3919880">
        <ele>71.6</ele>
        <time>2020-05-02T06:31:48Z</time>
      </trkpt>
      <trkpt lat="37.5366100" lon="-4.3921060">
        <ele>73.2</ele>
        <time>2020-05-02T06:31:52Z</time>
      </trkpt>
      <trkpt lat="37.5368030" lon="-4.3922280">
        <ele>74.0</ele>
        <time>2020-05-02T06:31:56Z</time>
      </trkpt>
      <trkpt lat="37.5370450" lon="-4.3922930">
        <ele>74.8</ele>
        <time>2020-05-02T06:32:00Z</time>
      </trkpt>
      <trkpt lat="37.5372760" lon="-4.3922700">
        <ele>76.0</ele>
        <time>2020-05-02T06:32:04Z</time>
      </trkpt>
      <trkpt lat="37.5374360" lon="-4.3921830">
        <ele>76.6</ele>
        <time>2020-05-02T06:32:08Z</time>
      </trkpt>
      <trkpt lat="37.5375630" lon="-4.3920310">
        <ele>76.0</ele>
        <time>2020-05-02T06:32:12Z</time>
      </trkpt>
      <trkpt lat="37.5376530" lon="-4.3917900">
        <ele>75.2</ele>
        <time>2020-05-02T06:32:16Z</time>
      </trkpt>
      <trkpt lat="37.5377400" lon="-4.3915450">
        <ele>75.0</ele>
        <time>2020-05-02T06:32:20Z</time>
      </trkpt>
      <trkpt lat="37.5378130" lon="-4.3913160">
        <ele>74.0</ele>
        <time>2020-05-02T06:32:24Z</time>
      </trkpt>
      <trkpt lat="37.5378900" lon="-4.3910850">
        <ele>73.8</ele>
        <time>2020-05-02T06:32:28Z</time>
      </trkpt>
      <trkpt lat="37.5379760" lon="-4.3908160">
        <ele>73.2</ele>
        <time>2020-05-02T06:32:32Z</time>
      </trkpt>
      <trkpt lat="37.5380700" lon="-4.3905350">
        <ele>72.6</ele>
        <time>2020-05-02T06:32:36Z</time>
      </trkpt>
      <trkpt lat="37.5381460" lon="-4.3902250">
        <ele>71.0</ele>
        <time>2020-05-02T06:32:40Z</time>
      </trkpt>
      <trkpt lat="37.5381810" lon="-4.3898330">
        <ele>68.8</ele>
        <time>2020-05-02T06:32:44Z</time>
      </trkpt>
      <trkpt lat="37.5381710" lon="-4.3893950">
        <ele>67.4</ele>
        <time>2020-05-02T06:32:48Z</time>
      </trkpt>
      <trkpt lat="37.5381630" lon="-4.3889410">
        <ele>65.4</ele>
        <time>2020-05-02T06:32:52Z</time>
      </trkpt>
      <trkpt lat="37.5382080" lon="-4.3885330">
        <ele>64.4</ele>
        <time>2020-05-02T06:32:56Z</time>
      </trkpt>
      <trkpt lat="37.5384450" lon="-4.3882700">
        <ele>63.6</ele>
        <time>2020-05-02T06:33:00Z</time>
      </trkpt>
      <trkpt lat="37.5386960" lon="-4.3881750">
        <ele>63.0</ele>
        <time>2020-05-02T06:33:04Z</time>
      </trkpt>
      <trkpt lat="37.5388630" lon="-4.3881300">
        <ele>63.8</ele>
        <time>2020-05-02T06:33:08Z</time>
      </trkpt>
      <trkpt lat="37.5390080" lon="-4.3880950">
        <ele>63.8</ele>
        <time>2020-05-02T06:33:12Z</time>
      </trkpt>
      <trkpt lat="37.5391260" lon="-4.3880430">
        <ele>64.0</ele>
        <time>2020-05-02T06:33:16Z</time>
      </trkpt>
      <trkpt lat="37.5391960" lon="-4.3880160">
        <ele>63.8</ele>
        <time>2020-05-02T06:33:20Z</time>
      </trkpt>
      <trkpt lat="37.5391950" lon="-4.3880560">
        <ele>64.0</ele>
        <time>2020-05-02T06:33:24Z</time>
      </trkpt>
      <trkpt lat="37.5391150" lon="-4.3880810">
        <ele>63.8</ele>
        <time>2020-05-02T06:33:28Z</time>
      </trkpt>
      <trkpt lat="37.5390250" lon="-4.3881100">
        <ele>64.0</ele>
        <time>2020-05-02T06:33:32Z</time>
      </trkpt>
      <trkpt lat="37.5389000" lon="-4.3881510">
        <ele>63.8</ele>
        <time>2020-05-02T06:33:36Z</time>
      </trkpt>
      <trkpt lat="37.5387780" lon="-4.3881950">
        <ele>63.6</ele>
        <time>2020-05-02T06:33:40Z</time>
      </trkpt>
      <trkpt lat="37.5386800" lon="-4.3882210">
        <ele>64.0</ele>
        <time>2020-05-02T06:33:44Z</time>
      </trkpt>
      <trkpt lat="37.5386100" lon="-4.3882360">
        <ele>63.6</ele>
        <time>2020-05-02T06:33:48Z</time>
      </trkpt>
      <trkpt lat="37.5385010" lon="-4.3882760">
        <ele>64.2</ele>
        <time>2020-05-02T06:33:52Z</time>
      </trkpt>
      <trkpt lat="37.5383710" lon="-4.3883550">
        <ele>64.4</ele>
        <time>2020-05-02T06:33:56Z</time>
      </trkpt>
      <trkpt lat="37.5382700" lon="-4.3884910">
        <ele>65.2</ele>
        <time>2020-05-02T06:34:00Z</time>
      </trkpt>
      <trkpt lat="37.5382180" lon="-4.3886550">
        <ele>65.2</ele>
        <time>2020-05-02T06:34:04Z</time>
      </trkpt>
      <trkpt lat="37.5382000" lon="-4.3888150">
        <ele>66.2</ele>
        <time>2020-05-02T06:34:08Z</time>
      </trkpt>
      <trkpt lat="37.5382060" lon="-4.3890130">
        <ele>66.8</ele>
        <time>2020-05-02T06:34:12Z</time>
      </trkpt>
      <trkpt lat="37.5382100" lon="-4.3892060">
        <ele>68.0</ele>
        <time>2020-05-02T06:34:16Z</time>
      </trkpt>
      <trkpt lat="37.5382130" lon="-4.3894180">
        <ele>69.4</ele>
        <time>2020-05-02T06:34:20Z</time>
      </trkpt>
      <trkpt lat="37.5382130" lon="-4.3896030">
        <ele>69.8</ele>
        <time>2020-05-02T06:34:24Z</time>
      </trkpt>
      <trkpt lat="37.5382110" lon="-4.3898180">
        <ele>70.4</ele>
        <time>2020-05-02T06:34:28Z</time>
      </trkpt>
      <trkpt lat="37.5382130" lon="-4.3900400">
        <ele>71.6</ele>
        <time>2020-05-02T06:34:32Z</time>
      </trkpt>
      <trkpt lat="37.5381750" lon="-4.3902880">
        <ele>72.0</ele>
        <time>2020-05-02T06:34:36Z</time>
      </trkpt>
      <trkpt lat="37.5381100" lon="-4.3905250">
        <ele>73.4</ele>
        <time>2020-05-02T06:34:40Z</time>
      </trkpt>
      <trkpt lat="37.5380330" lon="-4.3907510">
        <ele>73.4</ele>
        <time>2020-05-02T06:34:44Z</time>
      </trkpt>
      <trkpt lat="37.5379580" lon="-4.3909830">
        <ele>74.0</ele>
        <time>2020-05-02T06:34:48Z</time>
      </trkpt>
      <trkpt lat="37.5378750" lon="-4.3912200">
        <ele>74.6</ele>
        <time>2020-05-02T06:34:52Z</time>
      </trkpt>
      <trkpt lat="37.5377850" lon="-4.3914880">
        <ele>74.6</ele>
        <time>2020-05-02T06:34:56Z</time>
      </trkpt>
      <trkpt lat="37.5377010" lon="-4.3917360">
        <ele>75.8</ele>
        <time>2020-05-02T06:35:00Z</time>
      </trkpt>
      <trkpt lat="37.5376200" lon="-4.3919960">
        <ele>76.8</ele>
        <time>2020-05-02T06:35:04Z</time>
      </trkpt>
      <trkpt lat="37.5374830" lon="-4.3922050">
        <ele>77.0</ele>
        <time>2020-05-02T06:35:08Z</time>
      </trkpt>
      <trkpt lat="37.5372700" lon="-4.3923180">
        <ele>75.8</ele>
        <time>2020-05-02T06:35:12Z</time>
      </trkpt>
      <trkpt lat="37.5369950" lon="-4.3923150">
        <ele>74.2</ele>
        <time>2020-05-02T06:35:16Z</time>
      </trkpt>
      <trkpt lat="37.5367150" lon="-4.3921900">
        <ele>73.0</ele>
        <time>2020-05-02T06:35:20Z</time>
      </trkpt>
      <trkpt lat="37.5364260" lon="-4.3920560">
        <ele>72.0</ele>
        <time>2020-05-02T06:35:24Z</time>
      </trkpt>
      <trkpt lat="37.5361310" lon="-4.3919110">
        <ele>71.0</ele>
        <time>2020-05-02T06:35:28Z</time>
      </trkpt>
      <trkpt lat="37.5358230" lon="-4.3918150">
        <ele>69.8</ele>
        <time>2020-05-02T06:35:32Z</time>
      </trkpt>
      <trkpt lat="37.5355510" lon="-4.3919710">
        <ele>69.8</ele>
        <time>2020-05-02T06:35:36Z</time>
      </trkpt>
      <trkpt lat="37.5354460" lon="-4.3923380">
        <ele>70.6</ele>
        <time>2020-05-02T06:35:40Z</time>
      </trkpt>
      <trkpt lat="37.5353960" lon="-4.3927430">
        <ele>71.2</ele>
        <time>2020-05-02T06:35:44Z</time>
      </trkpt>
      <trkpt lat="37.5352000" lon="-4.3930300">
        <ele>70.0</ele>
        <time>2020-05-02T06:35:48Z</time>
      </trkpt>
      <trkpt lat="37.5348860" lon="-4.3932260">
        <ele>68.0</ele>
        <time>2020-05-02T06:35:52Z</time>
      </trkpt>
      <trkpt lat="37.5345830" lon="-4.3934710">
        <ele>67.0</ele>
        <time>2020-05-02T06:35:56Z</time>
      </trkpt>
      <trkpt lat="37.5343080" lon="-4.3937410">
        <ele>66.6</ele>
        <time>2020-05-02T06:36:00Z</time>
      </trkpt>
      <trkpt lat="37.5340800" lon="-4.3940400">
        <ele>66.6</ele>
        <time>2020-05-02T06:36:04Z</time>
      </trkpt>
      <trkpt lat="37.5339000" lon="-4.3943860">
        <ele>67.2</ele>
        <time>2020-05-02T06:36:08Z</time>
      </trkpt>
      <trkpt lat="37.5337430" lon="-4.3947530">
        <ele>67.2</ele>
        <time>2020-05-02T06:36:12Z</time>
      </trkpt>
      <trkpt lat="37.5335830" lon="-4.3951350">
        <ele>66.4</ele>
        <time>2020-05-02T06:36:16Z</time>
      </trkpt>
      <trkpt lat="37.5334430" lon="-4.3955010">
        <ele>66.8</ele>
        <time>2020-05-02T06:36:20Z</time>
      </trkpt>
      <trkpt lat="37.5332700" lon="-4.3958610">
        <ele>66.8</ele>
        <time>2020-05-02T06:36:24Z</time>
      </trkpt>
      <trkpt lat="37.5330610" lon="-4.3962050">
        <ele>66.0</ele>
        <time>2020-05-02T06:36:28Z</time>
      </trkpt>
      <trkpt lat="37.5328450" lon="-4.3965200">
        <ele>65.6</ele>
        <time>2020-05-02T06:36:32Z</time>
      </trkpt>
      <trkpt lat="37.5326450" lon="-4.3968150">
        <ele>65.6</ele>
        <time>2020-05-02T06:36:36Z</time>
      </trkpt>
      <trkpt lat="37.5324410" lon="-4.3971110">
        <ele>64.6</ele>
        <time>2020-05-02T06:36:40Z</time>
      </trkpt>
      <trkpt lat="37.5322150" lon="-4.3974130">
        <ele>63.4</ele>
        <time>2020-05-02T06:36:44Z</time>
      </trkpt>
      <trkpt lat="37.5319800" lon="-4.3977030">
        <ele>62.6</ele>
        <time>2020-05-02T06:36:48Z</time>
      </trkpt>
      <trkpt lat="37.5317380" lon="-4.3979930">
        <ele>61.4</ele>
        <time>2020-05-02T06:36:52Z</time>
      </trkpt>
      <trkpt lat="37.5314880" lon="-4.3982880">
        <ele>60.4</ele>
        <time>2020-05-02T06:36:56Z</time>
      </trkpt>
      <trkpt lat="37.5312380" lon="-4.3985860">
        <ele>60.0</ele>
        <time>2020-05-02T06:37:00Z</time>
      </trkpt>
      <trkpt lat="37.5309980" lon="-4.3988810">
        <ele>58.8</ele>
        <time>2020-05-02T06:37:04Z</time>
      </trkpt>
      <trkpt lat="37.5307610" lon="-4.3991660">
        <ele>58.2</ele>
        <time>2020-05-02T06:37:08Z</time>
      </trkpt>
      <trkpt lat="37.5305230" lon="-4.3994480">
        <ele>56.8</ele>
        <time>2020-05-02T06:37:12Z</time>
      </trkpt>
      <trkpt lat="37.5302710" lon="-4.3997600">
        <ele>55.2</ele>
        <time>2020-05-02T06:37:16Z</time>
      </trkpt>
      <trkpt lat="37.5300130" lon="-4.4000730">
        <ele>54.2</ele>
        <time>2020-05-02T06:37:20Z</time>
      </trkpt>
      <trkpt lat="37.5297600" lon="-4.4003800">
        <ele>54.0</ele>
        <time>2020-05-02T06:37:24Z</time>
      </trkpt>
      <trkpt lat="37.5295360" lon="-4.4006760">
        <ele>55.4</ele>
        <time>2020-05-02T06:37:28Z</time>
      </trkpt>
      <trkpt lat="37.5293910" lon="-4.4009810">
        <ele>57.4</ele>
        <time>2020-05-02T06:37:32Z</time>
      </trkpt>
      <trkpt lat="37.5293380" lon="-4.4012480">
        <ele>58.6</ele>
        <time>2020-05-02T06:37:36Z</time>
      </trkpt>
      <trkpt lat="37.5293260" lon="-4.4015350">
        <ele>59.2</ele>
        <time>2020-05-02T06:37:40Z</time>
      </trkpt>
      <trkpt lat="37.5293380" lon="-4.4018580">
        <ele>61.8</ele>
        <time>2020-05-02T06:37:44Z</time>
      </trkpt>
      <trkpt lat="37.5292900" lon="-4.4021060">
        <ele>62.2</ele>
        <time>2020-05-02T06:37:48Z</time>
      </trkpt>
      <trkpt lat="37.5291750" lon="-4.4023660">
        <ele>62.8</ele>
        <time>2020-05-02T06:37:52Z</time>
      </trkpt>
      <trkpt lat="37.5290410" lon="-4.4026050">
        <ele>63.2</ele>
        <time>2020-05-02T06:37:56Z</time>
      </trkpt>
      <trkpt lat="37.5289110" lon="-4.4028160">
        <ele>63.8</ele>
        <time>2020-05-02T06:38:00Z</time>
      </trkpt>
      <trkpt lat="37.5287760" lon="-4.4030700">
        <ele>63.4</ele>
        <time>2020-05-02T06:38:04Z</time>
      </trkpt>
      <trkpt lat="37.5286250" lon="-4.4033160">
        <ele>63.6</ele>
        <time>2020-05-02T06:38:08Z</time>
      </trkpt>
      <trkpt lat="37.5284880" lon="-4.4035510">
        <ele>63.6</ele>
        <time>2020-05-02T06:38:12Z</time>
      </trkpt>
      <trkpt lat="37.5283310" lon="-4.4038000">
        <ele>64.4</ele>
        <time>2020-05-02T06:38:16Z</time>
      </trkpt>
      <trkpt lat="37.5281410" lon="-4.4040180">
        <ele>65.2</ele>
        <time>2020-05-02T06:38:20Z</time>
      </trkpt>
      <trkpt lat="37.5279230" lon="-4.4041530">
        <ele>65.8</ele>
        <time>2020-05-02T06:38:24Z</time>
      </trkpt>
      <trkpt lat="37.5276760" lon="-4.4042230">
        <ele>66.6</ele>
        <time>2020-05-02T06:38:28Z</time>
      </trkpt>
      <trkpt lat="37.5274480" lon="-4.4042580">
        <ele>67.2</ele>
        <time>2020-05-02T06:38:32Z</time>
      </trkpt>
      <trkpt lat="37.5272330" lon="-4.4042630">
        <ele>67.4</ele>
        <time>2020-05-02T06:38:36Z</time>
      </trkpt>
      <trkpt lat="37.5269960" lon="-4.4042500">
        <ele>67.0</ele>
        <time>2020-05-02T06:38:40Z</time>
      </trkpt>
      <trkpt lat="37.5267400" lon="-4.4042430">
        <ele>67.6</ele>
        <time>2020-05-02T06:38:44Z</time>
      </trkpt>
      <trkpt lat="37.5265080" lon="-4.4042530">
        <ele>68.4</ele>
        <time>2020-05-02T06:38:48Z</time>
      </trkpt>
      <trkpt lat="37.5262630" lon="-4.4042860">
        <ele>68.4</ele>
        <time>2020-05-02T06:38:52Z</time>
      </trkpt>
      <trkpt lat="37.5260600" lon="-4.4044060">
        <ele>69.6</ele>
        <time>2020-05-02T06:38:56Z</time>
      </trkpt>
      <trkpt lat="37.5258900" lon="-4.4045750">
        <ele>70.6</ele>
        <time>2020-05-02T06:39:00Z</time>
      </trkpt>
      <trkpt lat="37.5257580" lon="-4.4047350">
        <ele>71.4</ele>
        <time>2020-05-02T06:39:04Z</time>
      </trkpt>
      <trkpt lat="37.5256000" lon="-4.4049130">
        <ele>71.8</ele>
        <time>2020-05-02T06:39:08Z</time>
      </trkpt>
      <trkpt lat="37.5254400" lon="-4.4050700">
        <ele>73.0</ele>
        <time>2020-05-02T06:39:12Z</time>
      </trkpt>
      <trkpt lat="37.5253130" lon="-4.4051860">
        <ele>73.8</ele>
        <time>2020-05-02T06:39:16Z</time>
      </trkpt>
      <trkpt lat="37.5251500" lon="-4.4053000">
        <ele>75.2</ele>
        <time>2020-05-02T06:39:20Z</time>
      </trkpt>
      <trkpt lat="37.5249500" lon="-4.4053650">
        <ele>76.0</ele>
        <time>2020-05-02T06:39:24Z</time>
      </trkpt>
      <trkpt lat="37.5248110" lon="-4.4053810">
        <ele>77.0</ele>
        <time>2020-05-02T06:39:28Z</time>
      </trkpt>
      <trkpt lat="37.5246450" lon="-4.4053730">
        <ele>78.4</ele>
        <time>2020-05-02T06:39:32Z</time>
      </trkpt>
      <trkpt lat="37.5244410" lon="-4.4053710">
        <ele>79.4</ele>
        <time>2020-05-02T06:39:36Z</time>
      </trkpt>
      <trkpt lat="37.5242400" lon="-4.4053600">
        <ele>80.4</ele>
        <time>2020-05-02T06:39:40Z</time>
      </trkpt>
      <trkpt lat="37.5240550" lon="-4.4053550">
        <ele>79.6</ele>
        <time>2020-05-02T06:39:44Z</time>
      </trkpt>
      <trkpt lat="37.5238310" lon="-4.4053410">
        <ele>78.4</ele>
        <time>2020-05-02T06:39:48Z</time>
      </trkpt>
      <trkpt lat="37.5235680" lon="-4.4053410">
        <ele>77.0</ele>
        <time>2020-05-02T06:39:52Z</time>
      </trkpt>
      <trkpt lat="37.5232800" lon="-4.4053380">
        <ele>76.2</ele>
        <time>2020-05-02T06:39:56Z</time>
      </trkpt>
      <trkpt lat="37.5230010" lon="-4.4053530">
        <ele>76.0</ele>
        <time>2020-05-02T06:40:00Z</time>
      </trkpt>
      <trkpt lat="37.5227310" lon="-4.4053580">
        <ele>76.6</ele>
        <time>2020-05-02T06:40:04Z</time>
      </trkpt>
      <trkpt lat="37.5224810" lon="-4.4053160">
        <ele>76.6</ele>
        <time>2020-05-02T06:40:08Z</time>
      </trkpt>
      <trkpt lat="37.5222660" lon="-4.4051650">
        <ele>74.8</ele>
        <time>2020-05-02T06:40:12Z</time>
      </trkpt>
      <trkpt lat="37.5221050" lon="-4.4049260">
        <ele>74.8</ele>
        <time>2020-05-02T06:40:16Z</time>
      </trkpt>
      <trkpt lat="37.5218410" lon="-4.4047810">
        <ele>74.8</ele>
        <time>2020-05-02T06:40:20Z</time>
      </trkpt>
      <trkpt lat="37.5215510" lon="-4.4047880">
        <ele>75.8</ele>
        <time>2020-05-02T06:40:24Z</time>
      </trkpt>
      <trkpt lat="37.5213280" lon="-4.4049050">
        <ele>77.2</ele>
        <time>2020-05-02T06:40:28Z</time>
      </trkpt>
      <trkpt lat="37.5211000" lon="-4.4050480">
        <ele>78.4</ele>
        <time>2020-05-02T06:40:32Z</time>
      </trkpt>
      <trkpt lat="37.5208500" lon="-4.4051860">
        <ele>79.6</ele>
        <time>2020-05-02T06:40:36Z</time>
      </trkpt>
      <trkpt lat="37.5206510" lon="-4.4053030">
        <ele>80.4</ele>
        <time>2020-05-02T06:40:40Z</time>
      </trkpt>
      <trkpt lat="37.5204830" lon="-4.4054260">
        <ele>81.0</ele>
        <time>2020-05-02T06:40:44Z</time>
      </trkpt>
      <trkpt lat="37.5203510" lon="-4.4055480">
        <ele>82.4</ele>
        <time>2020-05-02T06:40:48Z</time>
      </trkpt>
      <trkpt lat="37.5202350" lon="-4.4056710">
        <ele>83.4</ele>
        <time>2020-05-02T06:40:52Z</time>
      </trkpt>
      <trkpt lat="37.5201350" lon="-4.4058300">
        <ele>84.2</ele>
        <time>2020-05-02T06:40:56Z</time>
      </trkpt>
      <trkpt lat="37.5200660" lon="-4.4059930">
        <ele>85.0</ele>
        <time>2020-05-02T06:41:00Z</time>
      </trkpt>
      <trkpt lat="37.5200110" lon="-4.4061580">
        <ele>86.2</ele>
        <time>2020-05-02T06:41:04Z</time>
      </trkpt>
      <trkpt lat="37.5199250" lon="-4.4063300">
        <ele>87.4</ele>
        <time>2020-05-02T06:41:08Z</time>
      </trkpt>
      <trkpt lat="37.5198100" lon="-4.4064280">
        <ele>88.0</ele>
        <time>2020-05-02T06:41:12Z</time>
      </trkpt>
      <trkpt lat="37.5196500" lon="-4.4064930">
        <ele>89.0</ele>
        <time>2020-05-02T06:41:16Z</time>
      </trkpt>
      <trkpt lat="37.5194960" lon="-4.4065530">
        <ele>88.8</ele>
        <time>2020-05-02T06:41:20Z</time>
      </trkpt>
      <trkpt lat="37.5193130" lon="-4.4065980">
        <ele>89.4</ele>
        <time>2020-05-02T06:41:24Z</time>
      </trkpt>
      <trkpt lat="37.5191050" lon="-4.4065710">
        <ele>87.4</ele>
        <time>2020-05-02T06:41:28Z</time>
      </trkpt>
      <trkpt lat="37.5188400" lon="-4.4064760">
        <ele>84.4</ele>
        <time>2020-05-02T06:41:32Z</time>
      </trkpt>
      <trkpt lat="37.5185330" lon="-4.4063700">
        <ele>82.8</ele>
        <time>2020-05-02T06:41:36Z</time>
      </trkpt>
      <trkpt lat="37.5181930" lon="-4.4062500">
        <ele>80.6</ele>
        <time>2020-05-02T06:41:40Z</time>
      </trkpt>
      <trkpt lat="37.5178250" lon="-4.4061050">
        <ele>77.8</ele>
        <time>2020-05-02T06:41:44Z</time>
      </trkpt>
      <trkpt lat="37.5174880" lon="-4.4058230">
        <ele>75.2</ele>
        <time>2020-05-02T06:41:48Z</time>
      </trkpt>
      <trkpt lat="37.5172750" lon="-4.4054980">
        <ele>76.4</ele>
        <time>2020-05-02T06:41:52Z</time>
      </trkpt>
      <trkpt lat="37.5171050" lon="-4.4054610">
        <ele>74.0</ele>
        <time>2020-05-02T06:41:56Z</time>
      </trkpt>
      <trkpt lat="37.5171400" lon="-4.4057580">
        <ele>72.6</ele>
        <time>2020-05-02T06:42:00Z</time>
      </trkpt>
      <trkpt lat="37.5172130" lon="-4.4061060">
        <ele>72.0</ele>
        <time>2020-05-02T06:42:04Z</time>
      </trkpt>
      <trkpt lat="37.5171360" lon="-4.4064810">
        <ele>71.8</ele>
        <time>2020-05-02T06:42:08Z</time>
      </trkpt>
      <trkpt lat="37.5169360" lon="-4.4067450">
        <ele>70.2</ele>
        <time>2020-05-02T06:42:12Z</time>
      </trkpt>
      <trkpt lat="37.5166000" lon="-4.4067910">
        <ele>67.4</ele>
        <time>2020-05-02T06:42:16Z</time>
      </trkpt>
      <trkpt lat="37.5162400" lon="-4.4069960">
        <ele>64.4</ele>
        <time>2020-05-02T06:42:20Z</time>
      </trkpt>
      <trkpt lat="37.5158900" lon="-4.4073250">
        <ele>60.8</ele>
        <time>2020-05-02T06:42:24Z</time>
      </trkpt>
      <trkpt lat="37.5155160" lon="-4.4076650">
        <ele>58.4</ele>
        <time>2020-05-02T06:42:28Z</time>
      </trkpt>
      <trkpt lat="37.5151850" lon="-4.4080580">
        <ele>55.4</ele>
        <time>2020-05-02T06:42:32Z</time>
      </trkpt>
      <trkpt lat="37.5149910" lon="-4.4085710">
        <ele>53.4</ele>
        <time>2020-05-02T06:42:36Z</time>
      </trkpt>
      <trkpt lat="37.5149200" lon="-4.4090800">
        <ele>50.6</ele>
        <time>2020-05-02T06:42:40Z</time>
      </trkpt>
      <trkpt lat="37.5150700" lon="-4.4095660">
        <ele>48.6</ele>
        <time>2020-05-02T06:42:44Z</time>
      </trkpt>
      <trkpt lat="37.5151900" lon="-4.4099900">
        <ele>46.2</ele>
        <time>2020-05-02T06:42:48Z</time>
      </trkpt>
      <trkpt lat="37.5150260" lon="-4.4103780">
        <ele>43.0</ele>
        <time>2020-05-02T06:42:52Z</time>
      </trkpt>
      <trkpt lat="37.5146980" lon="-4.4105730">
        <ele>42.2</ele>
        <time>2020-05-02T06:42:56Z</time>
      </trkpt>
      <trkpt lat="37.5143910" lon="-4.4106610">
        <ele>40.4</ele>
        <time>2020-05-02T06:43:00Z</time>
      </trkpt>
      <trkpt lat="37.5142350" lon="-4.4110130">
        <ele>38.2</ele>
        <time>2020-05-02T06:43:04Z</time>
      </trkpt>
      <trkpt lat="37.5142910" lon="-4.4114360">
        <ele>36.0</ele>
        <time>2020-05-02T06:43:08Z</time>
      </trkpt>
      <trkpt lat="37.5141210" lon="-4.4118000">
        <ele>32.2</ele>
        <time>2020-05-02T06:43:12Z</time>
      </trkpt>
      <trkpt lat="37.5137660" lon="-4.4120460">
        <ele>28.2</ele>
        <time>2020-05-02T06:43:16Z</time>
      </trkpt>
      <trkpt lat="37.5133660" lon="-4.4122980">
        <ele>25.8</ele>
        <time>2020-05-02T06:43:20Z</time>
      </trkpt>
      <trkpt lat="37.5129660" lon="-4.4125550">
        <ele>25.6</ele>
        <time>2020-05-02T06:43:24Z</time>
      </trkpt>
      <trkpt lat="37.5126480" lon="-4.4128810">
        <ele>25.8</ele>
        <time>2020-05-02T06:43:28Z</time>
      </trkpt>
      <trkpt lat="37.5123810" lon="-4.4132150">
        <ele>26.0</ele>
        <time>2020-05-02T06:43:32Z</time>
      </trkpt>
      <trkpt lat="37.5121130" lon="-4.4135310">
        <ele>26.0</ele>
        <time>2020-05-02T06:43:36Z</time>
      </trkpt>
      <trkpt lat="37.5118310" lon="-4.4138250">
        <ele>25.8</ele>
        <time>2020-05-02T06:43:40Z</time>
      </trkpt>
      <trkpt lat="37.5115060" lon="-4.4140750">
        <ele>24.4</ele>
        <time>2020-05-02T06:43:44Z</time>
      </trkpt>
      <trkpt lat="37.5111810" lon="-4.4143160">
        <ele>24.6</ele>
        <time>2020-05-02T06:43:48Z</time>
      </trkpt>
      <trkpt lat="37.5109250" lon="-4.4146160">
        <ele>24.2</ele>
        <time>2020-05-02T06:43:52Z</time>
      </trkpt>
      <trkpt lat="37.5107160" lon="-4.4149210">
        <ele>24.4</ele>
        <time>2020-05-02T06:43:56Z</time>
      </trkpt>
      <trkpt lat="37.5105210" lon="-4.4152210">
        <ele>23.8</ele>
        <time>2020-05-02T06:44:00Z</time>
      </trkpt>
      <trkpt lat="37.5103260" lon="-4.4155280">
        <ele>24.6</ele>
        <time>2020-05-02T06:44:04Z</time>
      </trkpt>
      <trkpt lat="37.5101430" lon="-4.4158200">
        <ele>24.6</ele>
        <time>2020-05-02T06:44:08Z</time>
      </trkpt>
      <trkpt lat="37.5099800" lon="-4.4161030">
        <ele>26.4</ele>
        <time>2020-05-02T06:44:12Z</time>
      </trkpt>
      <trkpt lat="37.5098210" lon="-4.4163480">
        <ele>26.6</ele>
        <time>2020-05-02T06:44:16Z</time>
      </trkpt>
      <trkpt lat="37.5096650" lon="-4.4166110">
        <ele>27.2</ele>
        <time>2020-05-02T06:44:20Z</time>
      </trkpt>
      <trkpt lat="37.5095360" lon="-4.4168330">
        <ele>28.0</ele>
        <time>2020-05-02T06:44:24Z</time>
      </trkpt>
      <trkpt lat="37.5094250" lon="-4.4170780">
        <ele>28.8</ele>
        <time>2020-05-02T06:44:28Z</time>
      </trkpt>
      <trkpt lat="37.5093080" lon="-4.4173600">
        <ele>30.6</ele>
        <time>2020-05-02T06:44:32Z</time>
      </trkpt>
      <trkpt lat="37.5092030" lon="-4.4176480">
        <ele>32.4</ele>
        <time>2020-05-02T06:44:36Z</time>
      </trkpt>
      <trkpt lat="37.5090730" lon="-4.4178710">
        <ele>32.0</ele>
        <time>2020-05-02T06:44:40Z</time>
      </trkpt>
      <trkpt lat="37.5088760" lon="-4.4180910">
        <ele>31.4</ele>
        <time>2020-05-02T06:44:44Z</time>
      </trkpt>
      <trkpt lat="37.5086300" lon="-4.4183450">
        <ele>29.8</ele>
        <time>2020-05-02T06:44:48Z</time>
      </trkpt>
      <trkpt lat="37.5083430" lon="-4.4185830">
        <ele>28.2</ele>
        <time>2020-05-02T06:44:52Z</time>
      </trkpt>
      <trkpt lat="37.5080310" lon="-4.4188610">
        <ele>25.4</ele>
        <time>2020-05-02T06:44:56Z</time>
      </trkpt>
      <trkpt lat="37.5076910" lon="-4.4191550">
        <ele>22.2</ele>
        <time>2020-05-02T06:45:00Z</time>
      </trkpt>
      <trkpt lat="37.5073130" lon="-4.4194410">
        <ele>19.4</ele>
        <time>2020-05-02T06:45:04Z</time>
      </trkpt>
      <trkpt lat="37.5068930" lon="-4.4197030">
        <ele>16.0</ele>
        <time>2020-05-02T06:45:08Z</time>
      </trkpt>
      <trkpt lat="37.5064550" lon="-4.4199680">
        <ele>12.0</ele>
        <time>2020-05-02T06:45:12Z</time>
      </trkpt>
      <trkpt lat="37.5060130" lon="-4.4202010">
        <ele>9.6</ele>
        <time>2020-05-02T06:45:16Z</time>
      </trkpt>
      <trkpt lat="37.5055700" lon="-4.4202310">
        <ele>5.8</ele>
        <time>2020-05-02T06:45:20Z</time>
      </trkpt>
      <trkpt lat="37.5051980" lon="-4.4199780">
        <ele>5.8</ele>
        <time>2020-05-02T06:45:24Z</time>
      </trkpt>
      <trkpt lat="37.5049560" lon="-4.4197060">
        <ele>6.0</ele>
        <time>2020-05-02T06:45:28Z</time>
      </trkpt>
      <trkpt lat="37.5047680" lon="-4.4196560">
        <ele>5.2</ele>
        <time>2020-05-02T06:45:32Z</time>
      </trkpt>
      <trkpt lat="37.5045650" lon="-4.4197900">
        <ele>5.2</ele>
        <time>2020-05-02T06:45:36Z</time>
      </trkpt>
      <trkpt lat="37.5043630" lon="-4.4200330">
        <ele>6.6</ele>
        <time>2020-05-02T06:45:40Z</time>
      </trkpt>
      <trkpt lat="37.5041910" lon="-4.4202530">
        <ele>6.4</ele>
        <time>2020-05-02T06:45:44Z</time>
      </trkpt>
      <trkpt lat="37.5039760" lon="-4.4204560">
        <ele>6.4</ele>
        <time>2020-05-02T06:45:48Z</time>
      </trkpt>
      <trkpt lat="37.5037380" lon="-4.4206530">
        <ele>7.2</ele>
        <time>2020-05-02T06:45:52Z</time>
      </trkpt>
      <trkpt lat="37.5035360" lon="-4.4208250">
        <ele>8.2</ele>
        <time>2020-05-02T06:45:56Z</time>
      </trkpt>
      <trkpt lat="37.5033400" lon="-4.4209960">
        <ele>8.6</ele>
        <time>2020-05-02T06:46:00Z</time>
      </trkpt>
      <trkpt lat="37.5031260" lon="-4.4211960">
        <ele>9.4</ele>
        <time>2020-05-02T06:46:04Z</time>
      </trkpt>
      <trkpt lat="37.5029630" lon="-4.4214150">
        <ele>9.8</ele>
        <time>2020-05-02T06:46:08Z</time>
      </trkpt>
      <trkpt lat="37.5028530" lon="-4.4217150">
        <ele>11.6</ele>
        <time>2020-05-02T06:46:12Z</time>
      </trkpt>
      <trkpt lat="37.5027530" lon="-4.4219830">
        <ele>12.6</ele>
        <time>2020-05-02T06:46:16Z</time>
      </trkpt>
      <trkpt lat="37.5025860" lon="-4.4221900">
        <ele>13.6</ele>
        <time>2020-05-02T06:46:20Z</time>
      </trkpt>
      <trkpt lat="37.5023550" lon="-4.4222930">
        <ele>14.6</ele>
        <time>2020-05-02T06:46:24Z</time>
      </trkpt>
      <trkpt lat="37.5021300" lon="-4.4223010">
        <ele>15.2</ele>
        <time>2020-05-02T06:46:28Z</time>
      </trkpt>
      <trkpt lat="37.5019410" lon="-4.4222900">
        <ele>16.0</ele>
        <time>2020-05-02T06:46:32Z</time>
      </trkpt>
      <trkpt lat="37.5017250" lon="-4.4223000">
        <ele>17.0</ele>
        <time>2020-05-02T06:46:36Z</time>
      </trkpt>
      <trkpt lat="37.5015610" lon="-4.4223380">
        <ele>17.8</ele>
        <time>2020-05-02T06:46:40Z</time>
      </trkpt>
      <trkpt lat="37.5014250" lon="-4.4223880">
        <ele>18.2</ele>
        <time>2020-05-02T06:46:44Z</time>
      </trkpt>
      <trkpt lat="37.5012430" lon="-4.4225000">
        <ele>20.0</ele>
        <time>2020-05-02T06:46:48Z</time>
      </trkpt>
      <trkpt lat="37.5010760" lon="-4.4225800">
        <ele>20.4</ele>
        <time>2020-05-02T06:46:52Z</time>
      </trkpt>
      <trkpt lat="37.5008900" lon="-4.4226110">
        <ele>21.2</ele>
        <time>2020-05-02T06:46:56Z</time>
      </trkpt>
      <trkpt lat="37.5006810" lon="-4.4225580">
        <ele>21.8</ele>
        <time>2020-05-02T06:47:00Z</time>
      </trkpt>
      <trkpt lat="37.5004830" lon="-4.4224960">
        <ele>22.0</ele>
        <time>2020-05-02T06:47:04Z</time>
      </trkpt>
      <trkpt lat="37.5002780" lon="-4.4224660">
        <ele>22.8</ele>
        <time>2020-05-02T06:47:08Z</time>
      </trkpt>
      <trkpt lat="37.5000650" lon="-4.4225150">
        <ele>23.2</ele>
        <time>2020-05-02T06:47:12Z</time>
      </trkpt>
      <trkpt lat="37.4998830" lon="-4.4225880">
        <ele>23.2</ele>
        <time>2020-05-02T06:47:16Z</time>
      </trkpt>
      <trkpt lat="37.4996930" lon="-4.4226750">
        <ele>24.0</ele>
        <time>2020-05-02T06:47:20Z</time>
      </trkpt>
      <trkpt lat="37.4994880" lon="-4.4227460">
        <ele>24.6</ele>
        <time>2020-05-02T06:47:24Z</time>
      </trkpt>
      <trkpt lat="37.4992830" lon="-4.4227750">
        <ele>25.4</ele>
        <time>2020-05-02T06:47:28Z</time>
      </trkpt>
      <trkpt lat="37.4991160" lon="-4.4227760">
        <ele>26.4</ele>
        <time>2020-05-02T06:47:32Z</time>
      </trkpt>
      <trkpt lat="37.4989210" lon="-4.4227680">
        <ele>26.6</ele>
        <time>2020-05-02T06:47:36Z</time>
      </trkpt>
      <trkpt lat="37.4986950" lon="-4.4227660">
        <ele>27.6</ele>
        <time>2020-05-02T06:47:40Z</time>
      </trkpt>
      <trkpt lat="37.4985010" lon="-4.4227660">
        <ele>28.6</ele>
        <time>2020-05-02T06:47:44Z</time>
      </trkpt>
      <trkpt lat="37.4983200" lon="-4.4227500">
        <ele>29.4</ele>
        <time>2020-05-02T06:47:48Z</time>
      </trkpt>
      <trkpt lat="37.4980880" lon="-4.4227510">
        <ele>31.0</ele>
        <time>2020-05-02T06:47:52Z</time>
      </trkpt>
      <trkpt lat="37.4979110" lon="-4.4227400">
        <ele>31.8</ele>
        <time>2020-05-02T06:47:56Z</time>
      </trkpt>
      <trkpt lat="37.4977260" lon="-4.4227260">
        <ele>32.4</ele>
        <time>2020-05-02T06:48:00Z</time>
      </trkpt>
      <trkpt lat="37.4975080" lon="-4.4226630">
        <ele>33.0</ele>
        <time>2020-05-02T06:48:04Z</time>
      </trkpt>
      <trkpt lat="37.4973210" lon="-4.4225910">
        <ele>33.0</ele>
        <time>2020-05-02T06:48:08Z</time>
      </trkpt>
      <trkpt lat="37.4971180" lon="-4.4225100">
        <ele>33.8</ele>
        <time>2020-05-02T06:48:12Z</time>
      </trkpt>
      <trkpt lat="37.4969160" lon="-4.4224300">
        <ele>34.2</ele>
        <time>2020-05-02T06:48:16Z</time>
      </trkpt>
      <trkpt lat="37.4967530" lon="-4.4223680">
        <ele>34.4</ele>
        <time>2020-05-02T06:48:20Z</time>
      </trkpt>
      <trkpt lat="37.4965380" lon="-4.4222860">
        <ele>36.0</ele>
        <time>2020-05-02T06:48:24Z</time>
      </trkpt>
      <trkpt lat="37.4963500" lon="-4.4222030">
        <ele>36.4</ele>
        <time>2020-05-02T06:48:28Z</time>
      </trkpt>
      <trkpt lat="37.4961380" lon="-4.4221250">
        <ele>36.8</ele>
        <time>2020-05-02T06:48:32Z</time>
      </trkpt>
      <trkpt lat="37.4959550" lon="-4.4220550">
        <ele>37.4</ele>
        <time>2020-05-02T06:48:36Z</time>
      </trkpt>
      <trkpt lat="37.4957360" lon="-4.4219680">
        <ele>38.0</ele>
        <time>2020-05-02T06:48:40Z</time>
      </trkpt>
      <trkpt lat="37.4955550" lon="-4.4218900">
        <ele>38.4</ele>
        <time>2020-05-02T06:48:44Z</time>
      </trkpt>
      <trkpt lat="37.4953950" lon="-4.4218300">
        <ele>38.0</ele>
        <time>2020-05-02T06:48:48Z</time>
      </trkpt>
      <trkpt lat="37.4952160" lon="-4.4217560">
        <ele>37.6</ele>
        <time>2020-05-02T06:48:52Z</time>
      </trkpt>
      <trkpt lat="37.4950100" lon="-4.4216680">
        <ele>35.8</ele>
        <time>2020-05-02T06:48:56Z</time>
      </trkpt>
      <trkpt lat="37.4947630" lon="-4.4215830">
        <ele>34.0</ele>
        <time>2020-05-02T06:49:00Z</time>
      </trkpt>
      <trkpt lat="37.4944730" lon="-4.4215030">
        <ele>32.0</ele>
        <time>2020-05-02T06:49:04Z</time>
      </trkpt>
      <trkpt lat="37.4941550" lon="-4.4215160">
        <ele>31.4</ele>
        <time>2020-05-02T06:49:08Z</time>
      </trkpt>
      <trkpt lat="37.4938830" lon="-4.4216130">
        <ele>30.4</ele>
        <time>2020-05-02T06:49:12Z</time>
      </trkpt>
      <trkpt lat="37.4937630" lon="-4.4219100">
        <ele>29.2</ele>
        <time>2020-05-02T06:49:16Z</time>
      </trkpt>
      <trkpt lat="37.4937830" lon="-4.4223210">
        <ele>28.2</ele>
        <time>2020-05-02T06:49:20Z</time>
      </trkpt>
      <trkpt lat="37.4938410" lon="-4.4227850">
        <ele>25.8</ele>
        <time>2020-05-02T06:49:24Z</time>
      </trkpt>
      <trkpt lat="37.4939630" lon="-4.4232600">
        <ele>22.8</ele>
        <time>2020-05-02T06:49:28Z</time>
      </trkpt>
      <trkpt lat="37.4940880" lon="-4.4237580">
        <ele>20.8</ele>
        <time>2020-05-02T06:49:32Z</time>
      </trkpt>
      <trkpt lat="37.4941750" lon="-4.4242880">
        <ele>17.6</ele>
        <time>2020-05-02T06:49:36Z</time>
      </trkpt>
      <trkpt lat="37.4942550" lon="-4.4248380">
        <ele>13.2</ele>
        <time>2020-05-02T06:49:40Z</time>
      </trkpt>
      <trkpt lat="37.4942860" lon="-4.4252960">
        <ele>10.8</ele>
        <time>2020-05-02T06:49:44Z</time>
      </trkpt>
      <trkpt lat="37.4941580" lon="-4.4257110">
        <ele>9.4</ele>
        <time>2020-05-02T06:49:48Z</time>
      </trkpt>
      <trkpt lat="37.4938300" lon="-4.4259830">
        <ele>7.8</ele>
        <time>2020-05-02T06:49:52Z</time>
      </trkpt>
      <trkpt lat="37.4934700" lon="-4.4261680">
        <ele>8.6</ele>
        <time>2020-05-02T06:49:56Z</time>
      </trkpt>
      <trkpt lat="37.4931180" lon="-4.4263460">
        <ele>9.0</ele>
        <time>2020-05-02T06:50:00Z</time>
      </trkpt>
      <trkpt lat="37.4927780" lon="-4.4265280">
        <ele>9.0</ele>
        <time>2020-05-02T06:50:04Z</time>
      </trkpt>
      <trkpt lat="37.4924680" lon="-4.4267010">
        <ele>9.6</ele>
        <time>2020-05-02T06:50:08Z</time>
      </trkpt>
      <trkpt lat="37.4922060" lon="-4.4268450">
        <ele>10.8</ele>
        <time>2020-05-02T06:50:12Z</time>
      </trkpt>
      <trkpt lat="37.4919710" lon="-4.4270130">
        <ele>11.6</ele>
        <time>2020-05-02T06:50:16Z</time>
      </trkpt>
      <trkpt lat="37.4917480" lon="-4.4272300">
        <ele>13.6</ele>
        <time>2020-05-02T06:50:20Z</time>
      </trkpt>
      <trkpt lat="37.4915380" lon="-4.4274500">
        <ele>16.0</ele>
        <time>2020-05-02T06:50:24Z</time>
      </trkpt>
      <trkpt lat="37.4913430" lon="-4.4276780">
        <ele>17.8</ele>
        <time>2020-05-02T06:50:28Z</time>
      </trkpt>
      <trkpt lat="37.4912300" lon="-4.4279710">
        <ele>19.2</ele>
        <time>2020-05-02T06:50:32Z</time>
      </trkpt>
      <trkpt lat="37.4913060" lon="-4.4282260">
        <ele>21.4</ele>
        <time>2020-05-02T06:50:36Z</time>
      </trkpt>
      <trkpt lat="37.4914360" lon="-4.4283560">
        <ele>21.2</ele>
        <time>2020-05-02T06:50:40Z</time>
      </trkpt>
      <trkpt lat="37.4915950" lon="-4.4285080">
        <ele>21.2</ele>
        <time>2020-05-02T06:50:44Z</time>
      </trkpt>
      <trkpt lat="37.4916860" lon="-4.4287480">
        <ele>21.6</ele>
        <time>2020-05-02T06:50:48Z</time>
      </trkpt>
      <trkpt lat="37.4916180" lon="-4.4290160">
        <ele>21.2</ele>
        <time>2020-05-02T06:50:52Z</time>
      </trkpt>
      <trkpt lat="37.4913950" lon="-4.4291610">
        <ele>21.2</ele>
        <time>2020-05-02T06:50:56Z</time>
      </trkpt>
      <trkpt lat="37.4911600" lon="-4.4292210">
        <ele>21.0</ele>
        <time>2020-05-02T06:51:00Z</time>
      </trkpt>
      <trkpt lat="37.4909010" lon="-4.4292810">
        <ele>21.2</ele>
        <time>2020-05-02T06:51:04Z</time>
      </trkpt>
      <trkpt lat="37.4906580" lon="-4.4293310">
        <ele>22.4</ele>
        <time>2020-05-02T06:51:08Z</time>
      </trkpt>
      <trkpt lat="37.4904360" lon="-4.4293810">
        <ele>22.2</ele>
        <time>2020-05-02T06:51:12Z</time>
      </trkpt>
      <trkpt lat="37.4901660" lon="-4.4294150">
        <ele>22.4</ele>
        <time>2020-05-02T06:51:16Z</time>
      </trkpt>
      <trkpt lat="37.4899250" lon="-4.4294130">
        <ele>22.6</ele>
        <time>2020-05-02T06:51:20Z</time>
      </trkpt>
      <trkpt lat="37.4897230" lon="-4.4293460">
        <ele>22.4</ele>
        <time>2020-05-02T06:51:24Z</time>
      </trkpt>
      <trkpt lat="37.4895160" lon="-4.4292250">
        <ele>23.2</ele>
        <time>2020-05-02T06:51:28Z</time>
      </trkpt>
      <trkpt lat="37.4893250" lon="-4.4290110">
        <ele>24.2</ele>
        <time>2020-05-02T06:51:32Z</time>
      </trkpt>
      <trkpt lat="37.4891330" lon="-4.4287760">
        <ele>26.2</ele>
        <time>2020-05-02T06:51:36Z</time>
      </trkpt>
      <trkpt lat="37.4889330" lon="-4.4286030">
        <ele>26.8</ele>
        <time>2020-05-02T06:51:40Z</time>
      </trkpt>
      <trkpt lat="37.4886930" lon="-4.4285380">
        <ele>26.6</ele>
        <time>2020-05-02T06:51:44Z</time>
      </trkpt>
      <trkpt lat="37.4884200" lon="-4.4286310">
        <ele>24.0</ele>
        <time>2020-05-02T06:51:48Z</time>
      </trkpt>
      <trkpt lat="37.4882200" lon="-4.4288880">
        <ele>21.4</ele>
        <time>2020-05-02T06:51:52Z</time>
      </trkpt>
      <trkpt lat="37.4881610" lon="-4.4292760">
        <ele>18.8</ele>
        <time>2020-05-02T06:51:56Z</time>
      </trkpt>
      <trkpt lat="37.4881900" lon="-4.4297250">
        <ele>17.2</ele>
        <time>2020-05-02T06:52:00Z</time>
      </trkpt>
      <trkpt lat="37.4882160" lon="-4.4301830">
        <ele>14.6</ele>
        <time>2020-05-02T06:52:04Z</time>
      </trkpt>
      <trkpt lat="37.4882030" lon="-4.4306050">
        <ele>13.6</ele>
        <time>2020-05-02T06:52:08Z</time>
      </trkpt>
      <trkpt lat="37.4880980" lon="-4.4310680">
        <ele>10.0</ele>
        <time>2020-05-02T06:52:12Z</time>
      </trkpt>
      <trkpt lat="37.4879550" lon="-4.4315850">
        <ele>7.0</ele>
        <time>2020-05-02T06:52:16Z</time>
      </trkpt>
      <trkpt lat="37.4878660" lon="-4.4321730">
        <ele>3.8</ele>
        <time>2020-05-02T06:52:20Z</time>
      </trkpt>
      <trkpt lat="37.4877750" lon="-4.4327830">
        <ele>-0.2</ele>
        <time>2020-05-02T06:52:24Z</time>
      </trkpt>
      <trkpt lat="37.4876850" lon="-4.4333780">
        <ele>-3.0</ele>
        <time>2020-05-02T06:52:28Z</time>
      </trkpt>
      <trkpt lat="37.4876000" lon="-4.4339480">
        <ele>-6.2</ele>
        <time>2020-05-02T06:52:32Z</time>
      </trkpt>
      <trkpt lat="37.4875250" lon="-4.4345150">
        <ele>-9.0</ele>
        <time>2020-05-02T06:52:36Z</time>
      </trkpt>
      <trkpt lat="37.4875210" lon="-4.4351110">
        <ele>-12.8</ele>
        <time>2020-05-02T06:52:40Z</time>
      </trkpt>
      <trkpt lat="37.4875750" lon="-4.4357260">
        <ele>-16.4</ele>
        <time>2020-05-02T06:52:44Z</time>
      </trkpt>
      <trkpt lat="37.4876200" lon="-4.4362430">
        <ele>-17.6</ele>
        <time>2020-05-02T06:52:48Z</time>
      </trkpt>
      <trkpt lat="37.4876610" lon="-4.4367080">
        <ele>-19.8</ele>
        <time>2020-05-02T06:52:52Z</time>
      </trkpt>
      <trkpt lat="37.4876130" lon="-4.4371080">
        <ele>-21.0</ele>
        <time>2020-05-02T06:52:56Z</time>
      </trkpt>
      <trkpt lat="37.4873760" lon="-4.4373830">
        <ele>-22.6</ele>
        <time>2020-05-02T06:53:00Z</time>
      </trkpt>
      <trkpt lat="37.4869980" lon="-4.4374560">
        <ele>-25.6</ele>
        <time>2020-05-02T06:53:04Z</time>
      </trkpt>
      <trkpt lat="37.4865710" lon="-4.4374680">
        <ele>-27.8</ele>
        <time>2020-05-02T06:53:08Z</time>
      </trkpt>
      <trkpt lat="37.4861250" lon="-4.4374860">
        <ele>-30.4</ele>
        <time>2020-05-02T06:53:12Z</time>
      </trkpt>
      <trkpt lat="37.4856660" lon="-4.4375060">
        <ele>-32.8</ele>
        <time>2020-05-02T06:53:16Z</time>
      </trkpt>
      <trkpt lat="37.4852150" lon="-4.4375280">
        <ele>-34.2</ele>
        <time>2020-05-02T06:53:20Z</time>
      </trkpt>
      <trkpt lat="37.4847660" lon="-4.4375430">
        <ele>-37.0</ele>
        <time>2020-05-02T06:53:24Z</time>
      </trkpt>
      <trkpt lat="37.4843200" lon="-4.4375630">
        <ele>-38.6</ele>
        <time>2020-05-02T06:53:28Z</time>
      </trkpt>
      <trkpt lat="37.4838600" lon="-4.4375830">
        <ele>-41.4</ele>
        <time>2020-05-02T06:53:32Z</time>
      </trkpt>
      <trkpt lat="37.4833780" lon="-4.4375950">
        <ele>-43.6</ele>
        <time>2020-05-02T06:53:36Z</time>
      </trkpt>
      <trkpt lat="37.4828880" lon="-4.4376060">
        <ele>-46.2</ele>
        <time>2020-05-02T06:53:40Z</time>
      </trkpt>
      <trkpt lat="37.4824110" lon="-4.4377050">
        <ele>-47.4</ele>
        <time>2020-05-02T06:53:44Z</time>
      </trkpt>
      <trkpt lat="37.4819760" lon="-4.4379830">
        <ele>-49.2</ele>
        <time>2020-05-02T06:53:48Z</time>
      </trkpt>
      <trkpt lat="37.4815480" lon="-4.4383100">
        <ele>-51.6</ele>
        <time>2020-05-02T06:53:52Z</time>
      </trkpt>
      <trkpt lat="37.4811200" lon="-4.4386130">
        <ele>-52.8</ele>
        <time>2020-05-02T06:53:56Z</time>
      </trkpt>
      <trkpt lat="37.4806880" lon="-4.4388600">
        <ele>-55.2</ele>
        <time>2020-05-02T06:54:00Z</time>
      </trkpt>
      <trkpt lat="37.4802650" lon="-4.4390780">
        <ele>-56.6</ele>
        <time>2020-05-02T06:54:04Z</time>
      </trkpt>
      <trkpt lat="37.4798430" lon="-4.4392830">
        <ele>-58.4</ele>
        <time>2020-05-02T06:54:08Z</time>
      </trkpt>
      <trkpt lat="37.4794310" lon="-4.4394930">
        <ele>-61.2</ele>
        <time>2020-05-02T06:54:12Z</time>
      </trkpt>
      <trkpt lat="37.4790300" lon="-4.4396850">
        <ele>-61.8</ele>
        <time>2020-05-02T06:54:16Z</time>
      </trkpt>
      <trkpt lat="37.4786430" lon="-4.4398780">
        <ele>-63.4</ele>
        <time>2020-05-02T06:54:20Z</time>
      </trkpt>
      <trkpt lat="37.4782930" lon="-4.4400760">
        <ele>-64.2</ele>
        <time>2020-05-02T06:54:24Z</time>
      </trkpt>
      <trkpt lat="37.4780660" lon="-4.4402450">
        <ele>-64.6</ele>
        <time>2020-05-02T06:54:28Z</time>
      </trkpt>
      <trkpt lat="37.4779150" lon="-4.4403750">
        <ele>-66.0</ele>
        <time>2020-05-02T06:54:32Z</time>
      </trkpt>
      <trkpt lat="37.4777530" lon="-4.4404860">
        <ele>-67.4</ele>
        <time>2020-05-02T06:54:36Z</time>
      </trkpt>
      <trkpt lat="37.4776000" lon="-4.4406100">
        <ele>-67.8</ele>
        <time>2020-05-02T06:54:40Z</time>
      </trkpt>
      <trkpt lat="37.4774660" lon="-4.4407210">
        <ele>-68.2</ele>
        <time>2020-05-02T06:54:44Z</time>
      </trkpt>
      <trkpt lat="37.4773210" lon="-4.4408560">
        <ele>-69.2</ele>
        <time>2020-05-02T06:54:48Z</time>
      </trkpt>
      <trkpt lat="37.4771680" lon="-4.4409930">
        <ele>-69.6</ele>
        <time>2020-05-02T06:54:52Z</time>
      </trkpt>
      <trkpt lat="37.4770430" lon="-4.4411030">
        <ele>-69.2</ele>
        <time>2020-05-02T06:54:56Z</time>
      </trkpt>
      <trkpt lat="37.4769300" lon="-4.4412160">
        <ele>-69.6</ele>
        <time>2020-05-02T06:55:00Z</time>
      </trkpt>
      <trkpt lat="37.4767980" lon="-4.4413330">
        <ele>-69.6</ele>
        <time>2020-05-02T06:55:04Z</time>
      </trkpt>
      <trkpt lat="37.4765880" lon="-4.4414250">
        <ele>-69.6</ele>
        <time>2020-05-02T06:55:08Z</time>
      </trkpt>
      <trkpt lat="37.4763530" lon="-4.4415350">
        <ele>-71.6</ele>
        <time>2020-05-02T06:55:12Z</time>
      </trkpt>
      <trkpt lat="37.4761080" lon="-4.4416530">
        <ele>-69.4</ele>
        <time>2020-05-02T06:55:16Z</time>
      </trkpt>
      <trkpt lat="37.4758860" lon="-4.4417560">
        <ele>-70.0</ele>
        <time>2020-05-02T06:55:20Z</time>
      </trkpt>
      <trkpt lat="37.4756300" lon="-4.4418380">
        <ele>-69.6</ele>
        <time>2020-05-02T06:55:24Z</time>
      </trkpt>
      <trkpt lat="37.4753900" lon="-4.4419050">
        <ele>-69.8</ele>
        <time>2020-05-02T06:55:28Z</time>
      </trkpt>
      <trkpt lat="37.4751480" lon="-4.4419930">
        <ele>-70.6</ele>
        <time>2020-05-02T06:55:32Z</time>
      </trkpt>
      <trkpt lat="37.4749130" lon="-4.4420850">
        <ele>-70.6</ele>
        <time>2020-05-02T06:55:36Z</time>
      </trkpt>
      <trkpt lat="37.4746800" lon="-4.4421930">
        <ele>-70.6</ele>
        <time>2020-05-02T06:55:40Z</time>
      </trkpt>
      <trkpt lat="37.4744430" lon="-4.4423160">
        <ele>-70.8</ele>
        <time>2020-05-02T06:55:44Z</time>
      </trkpt>
      <trkpt lat="37.4742200" lon="-4.4424060">
        <ele>-72.2</ele>
        <time>2020-05-02T06:55:48Z</time>
      </trkpt>
      <trkpt lat="37.4739910" lon="-4.4425210">
        <ele>-72.0</ele>
        <time>2020-05-02T06:55:52Z</time>
      </trkpt>
      <trkpt lat="37.4737960" lon="-4.4426380">
        <ele>-72.8</ele>
        <time>2020-05-02T06:55:56Z</time>
      </trkpt>
      <trkpt lat="37.4736210" lon="-4.4428310">
        <ele>-72.4</ele>
        <time>2020-05-02T06:56:00Z</time>
      </trkpt>
      <trkpt lat="37.4733830" lon="-4.4430100">
        <ele>-73.4</ele>
        <time>2020-05-02T06:56:04Z</time>
      </trkpt>
      <trkpt lat="37.4732500" lon="-4.4432300">
        <ele>-73.6</ele>
        <time>2020-05-02T06:56:08Z</time>
      </trkpt>
      <trkpt lat="37.4731380" lon="-4.4434330">
        <ele>-74.0</ele>
        <time>2020-05-02T06:56:12Z</time>
      </trkpt>
      <trkpt lat="37.4731200" lon="-4.4435260">
        <ele>-75.0</ele>
        <time>2020-05-02T06:56:16Z</time>
      </trkpt>
      <trkpt lat="37.4731400" lon="-4.4436150">
        <ele>-76.4</ele>
        <time>2020-05-02T06:56:20Z</time>
      </trkpt>
      <trkpt lat="37.4730760" lon="-4.4437830">
        <ele>-76.6</ele>
        <time>2020-05-02T06:56:24Z</time>
      </trkpt>
      <trkpt lat="37.4729800" lon="-4.4439730">
        <ele>-78.6</ele>
        <time>2020-05-02T06:56:28Z</time>
      </trkpt>
      <trkpt lat="37.4728330" lon="-4.4442080">
        <ele>-78.8</ele>
        <time>2020-05-02T06:56:32Z</time>
      </trkpt>
      <trkpt lat="37.4726700" lon="-4.4443910">
        <ele>-80.2</ele>
        <time>2020-05-02T06:56:36Z</time>
      </trkpt>
      <trkpt lat="37.4725110" lon="-4.4446250">
        <ele>-81.4</ele>
        <time>2020-05-02T06:56:40Z</time>
      </trkpt>
      <trkpt lat="37.4723900" lon="-4.4447710">
        <ele>-82.4</ele>
        <time>2020-05-02T06:56:44Z</time>
      </trkpt>
      <trkpt lat="37.4722510" lon="-4.4449710">
        <ele>-83.6</ele>
        <time>2020-05-02T06:56:48Z</time>
      </trkpt>
      <trkpt lat="37.4720310" lon="-4.4453380">
        <ele>-84.4</ele>
        <time>2020-05-02T06:56:52Z</time>
      </trkpt>
      <trkpt lat="37.4718180" lon="-4.4456880">
        <ele>-83.6</ele>
        <time>2020-05-02T06:56:56Z</time>
      </trkpt>
      <trkpt lat="37.4716600" lon="-4.4457160">
        <ele>-83.8</ele>
        <time>2020-05-02T06:57:00Z</time>
      </trkpt>
      <trkpt lat="37.4715480" lon="-4.4455680">
        <ele>-84.2</ele>
        <time>2020-05-02T06:57:04Z</time>
      </trkpt>
      <trkpt lat="37.4714000" lon="-4.4453680">
        <ele>-84.4</ele>
        <time>2020-05-02T06:57:08Z</time>
      </trkpt>
      <trkpt lat="37.4713000" lon="-4.4450800">
        <ele>-83.6</ele>
        <time>2020-05-02T06:57:12Z</time>
      </trkpt>
      <trkpt lat="37.4711880" lon="-4.4448130">
        <ele>-82.4</ele>
        <time>2020-05-02T06:57:16Z</time>
      </trkpt>
      <trkpt lat="37.4710000" lon="-4.4446860">
        <ele>-81.4</ele>
        <time>2020-05-02T06:57:20Z</time>
      </trkpt>
      <trkpt lat="37.4708030" lon="-4.4445980">
        <ele>-81.0</ele>
        <time>2020-05-02T06:57:24Z</time>
      </trkpt>
      <trkpt lat="37.4706660" lon="-4.4444280">
        <ele>-80.4</ele>
        <time>2020-05-02T06:57:28Z</time>
      </trkpt>
      <trkpt lat="37.4705230" lon="-4.4441850">
        <ele>-80.0</ele>
        <time>2020-05-02T06:57:32Z</time>
      </trkpt>
      <trkpt lat="37.4704280" lon="-4.4439480">
        <ele>-78.4</ele>
        <time>2020-05-02T06:57:36Z</time>
      </trkpt>
      <trkpt lat="37.4703530" lon="-4.4437100">
        <ele>-77.2</ele>
        <time>2020-05-02T06:57:40Z</time>
      </trkpt>
      <trkpt lat="37.4703200" lon="-4.4434930">
        <ele>-76.6</ele>
        <time>2020-05-02T06:57:44Z</time>
      </trkpt>
      <trkpt lat="37.4702780" lon="-4.4432680">
        <ele>-76.4</ele>
        <time>2020-05-02T06:57:48Z</time>
      </trkpt>
      <trkpt lat="37.4702080" lon="-4.4430330">
        <ele>-75.2</ele>
        <time>2020-05-02T06:57:52Z</time>
      </trkpt>
      <trkpt lat="37.4701330" lon="-4.4427900">
        <ele>-74.2</ele>
        <time>2020-05-02T06:57:56Z</time>
      </trkpt>
      <trkpt lat="37.4700710" lon="-4.4425210">
        <ele>-74.2</ele>
        <time>2020-05-02T06:58:00Z</time>
      </trkpt>
      <trkpt lat="37.4700660" lon="-4.4422100">
        <ele>-73.2</ele>
        <time>2020-05-02T06:58:04Z</time>
      </trkpt>
      <trkpt lat="37.4700900" lon="-4.4418950">
        <ele>-72.6</ele>
        <time>2020-05-02T06:58:08Z</time>
      </trkpt>
      <trkpt lat="37.4700900" lon="-4.4416760">
        <ele>-72.4</ele>
        <time>2020-05-02T06:58:12Z</time>
      </trkpt>
      <trkpt lat="37.4701080" lon="-4.4416010">
        <ele>-72.2</ele>
        <time>2020-05-02T06:58:16Z</time>
      </trkpt>
      <trkpt lat="37.4701080" lon="-4.4416010">
        <ele>-72.0</ele>
        <time>2020-05-02T06:58:20Z</time>
      </trkpt>
      <trkpt lat="37.4701080" lon="-4.4416010">
        <ele>-72.4</ele>
        <time>2020-05-02T06:58:24Z</time>
      </trkpt>
      <trkpt lat="37.4701080" lon="-4.4416010">
        <ele>-72.4</ele>
        <time>2020-05-02T06:58:28Z</time>
      </trkpt>
      <trkpt lat="37.4701080" lon="-4.4416010">
        <ele>-72.2</ele>
        <time>2020-05-02T06:58:32Z</time>
      </trkpt>
      <trkpt lat="37.4701080" lon="-4.4416010">
        <ele>-72.2</ele>
        <time>2020-05-02T06:58:36Z</time>
      </trkpt>
      <trkpt lat="37.4701080" lon="-4.4416010">
        <ele>-72.4</ele>
        <time>2020-05-02T06:58:40Z</time>
      </trkpt>
      <trkpt lat="37.4701080" lon="-4.4416010">
        <ele>-72.4</ele>
        <time>2020-05-02T06:58:44Z</time>
      </trkpt>
      <trkpt lat="37.4701080" lon="-4.4416010">
        <ele>-72.2</ele>
        <time>2020-05-02T06:58:48Z</time>
      </trkpt>
      <trkpt lat="37.4701080" lon="-4.4416010">
        <ele>-72.2</ele>
        <time>2020-05-02T06:58:52Z</time>
      </trkpt>
      <trkpt lat="37.4701080" lon="-4.4416010">
        <ele>-72.4</ele>
        <time>2020-05-02T06:58:56Z</time>
      </trkpt>
      <trkpt lat="37.4701080" lon="-4.4416010">
        <ele>-72.4</ele>
        <time>2020-05-02T06:59:00Z</time>
      </trkpt>
      <trkpt lat="37.4701080" lon="-4.4416010">
        <ele>-72.6</ele>
        <time>2020-05-02T06:59:04Z</time>
      </trkpt>
      <trkpt lat="37.4701080" lon="-4.4416010">
        <ele>-72.8</ele>
        <time>2020-05-02T06:59:08Z</time>
      </trkpt>
      <trkpt lat="37.4701080" lon="-4.4416010">
        <ele>-72.6</ele>
        <time>2020-05-02T06:59:12Z</time>
      </trkpt>
      <trkpt lat="37.4701080" lon="-4.4416010">
        <ele>-72.2</ele>
        <time>2020-05-02T06:59:16Z</time>
      </trkpt>
      <trkpt lat="37.4701080" lon="-4.4416010">
        <ele>-72.0</ele>
        <time>2020-05-02T06:59:20Z</time>
      </trkpt>
      <trkpt lat="37.4701080" lon="-4.4416010">
        <ele>-72.4</ele>
        <time>2020-05-02T06:59:24Z</time>
      </trkpt>
      <trkpt lat="37.4701080" lon="-4.4416010">
        <ele>-72.4</ele>
        <time>2020-05-02T06:59:28Z</time>
      </trkpt>
      <trkpt lat="37.4701780" lon="-4.4414630">
        <ele>-72.4</ele>
        <time>2020-05-02T06:59:32Z</time>
      </trkpt>
      <trkpt lat="37.4701730" lon="-4.4413360">
        <ele>-72.0</ele>
        <time>2020-05-02T06:59:36Z</time>
      </trkpt>
      <trkpt lat="37.4701710" lon="-4.4410880">
        <ele>-71.4</ele>
        <time>2020-05-02T06:59:40Z</time>
      </trkpt>
      <trkpt lat="37.4701900" lon="-4.4407930">
        <ele>-70.8</ele>
        <time>2020-05-02T06:59:44Z</time>
      </trkpt>
      <trkpt lat="37.4701930" lon="-4.4404880">
        <ele>-70.2</ele>
        <time>2020-05-02T06:59:48Z</time>
      </trkpt>
      <trkpt lat="37.4702010" lon="-4.4401860">
        <ele>-69.2</ele>
        <time>2020-05-02T06:59:52Z</time>
      </trkpt>
      <trkpt lat="37.4702110" lon="-4.4398880">
        <ele>-68.0</ele>
        <time>2020-05-02T06:59:56Z</time>
      </trkpt>
      <trkpt lat="37.4701880" lon="-4.4396130">
        <ele>-67.8</ele>
        <time>2020-05-02T07:00:00Z</time>
      </trkpt>
      <trkpt lat="37.4701300" lon="-4.4393380">
        <ele>-66.8</ele>
        <time>2020-05-02T07:00:04Z</time>
      </trkpt>
      <trkpt lat="37.4700650" lon="-4.4390960">
        <ele>-66.8</ele>
        <time>2020-05-02T07:00:08Z</time>
      </trkpt>
      <trkpt lat="37.4699810" lon="-4.4388460">
        <ele>-66.2</ele>
        <time>2020-05-02T07:00:12Z</time>
      </trkpt>
      <trkpt lat="37.4698900" lon="-4.4385750">
        <ele>-65.6</ele>
        <time>2020-05-02T07:00:16Z</time>
      </trkpt>
      <trkpt lat="37.4698500" lon="-4.4382910">
        <ele>-65.8</ele>
        <time>2020-05-02T07:00:20Z</time>
      </trkpt>
      <trkpt lat="37.4698110" lon="-4.4379900">
        <ele>-65.4</ele>
        <time>2020-05-02T07:00:24Z</time>
      </trkpt>
      <trkpt lat="37.4697730" lon="-4.4376680">
        <ele>-64.4</ele>
        <time>2020-05-02T07:00:28Z</time>
      </trkpt>
      <trkpt lat="37.4697810" lon="-4.4373350">
        <ele>-64.4</ele>
        <time>2020-05-02T07:00:32Z</time>
      </trkpt>
      <trkpt lat="37.4698080" lon="-4.4370250">
        <ele>-64.0</ele>
        <time>2020-05-02T07:00:36Z</time>
      </trkpt>
      <trkpt lat="37.4698330" lon="-4.4367150">
        <ele>-63.4</ele>
        <time>2020-05-02T07:00:40Z</time>
      </trkpt>
      <trkpt lat="37.4698660" lon="-4.4364130">
        <ele>-62.8</ele>
        <time>2020-05-02T07:00:44Z</time>
      </trkpt>
      <trkpt lat="37.4699150" lon="-4.4360980">
        <ele>-62.4</ele>
        <time>2020-05-02T07:00:48Z</time>
      </trkpt>
      <trkpt lat="37.4699650" lon="-4.4357830">
        <ele>-61.8</ele>
        <time>2020-05-02T07:00:52Z</time>
      </trkpt>
      <trkpt lat="37.4700360" lon="-4.4354610">
        <ele>-61.4</ele>
        <time>2020-05-02T07:00:56Z</time>
      </trkpt>
      <trkpt lat="37.4700260" lon="-4.4351800">
        <ele>-60.8</ele>
        <time>2020-05-02T07:01:00Z</time>
      </trkpt>
      <trkpt lat="37.4700750" lon="-4.4349200">
        <ele>-59.8</ele>
        <time>2020-05-02T07:01:04Z</time>
      </trkpt>
      <trkpt lat="37.4700710" lon="-4.4346500">
        <ele>-60.2</ele>
        <time>2020-05-02T07:01:08Z</time>
      </trkpt>
      <trkpt lat="37.4700430" lon="-4.4343750">
        <ele>-60.0</ele>
        <time>2020-05-02T07:01:12Z</time>
      </trkpt>
      <trkpt lat="37.4700100" lon="-4.4341050">
        <ele>-59.6</ele>
        <time>2020-05-02T07:01:16Z</time>
      </trkpt>
      <trkpt lat="37.4699730" lon="-4.4338300">
        <ele>-58.8</ele>
        <time>2020-05-02T07:01:20Z</time>
      </trkpt>
      <trkpt lat="37.4699480" lon="-4.4335260">
        <ele>-58.4</ele>
        <time>2020-05-02T07:01:24Z</time>
      </trkpt>
      <trkpt lat="37.4699130" lon="-4.4332030">
        <ele>-57.8</ele>
        <time>2020-05-02T07:01:28Z</time>
      </trkpt>
      <trkpt lat="37.4698800" lon="-4.4328730">
        <ele>-57.2</ele>
        <time>2020-05-02T07:01:32Z</time>
      </trkpt>
      <trkpt lat="37.4698280" lon="-4.4325700">
        <ele>-56.2</ele>
        <time>2020-05-02T07:01:36Z</time>
      </trkpt>
      <trkpt lat="37.4697730" lon="-4.4322800">
        <ele>-55.4</ele>
        <time>2020-05-02T07:01:40Z</time>
      </trkpt>
      <trkpt lat="37.4697310" lon="-4.4319730">
        <ele>-55.0</ele>
        <time>2020-05-02T07:01:44Z</time>
      </trkpt>
      <trkpt lat="37.4696860" lon="-4.4316850">
        <ele>-54.2</ele>
        <time>2020-05-02T07:01:48Z</time>
      </trkpt>
      <trkpt lat="37.4696410" lon="-4.4313980">
        <ele>-52.8</ele>
        <time>2020-05-02T07:01:52Z</time>
      </trkpt>
      <trkpt lat="37.4695900" lon="-4.4311180">
        <ele>-52.6</ele>
        <time>2020-05-02T07:01:56Z</time>
      </trkpt>
      <trkpt lat="37.4695330" lon="-4.4308360">
        <ele>-51.4</ele>
        <time>2020-05-02T07:02:00Z</time>
      </trkpt>
      <trkpt lat="37.4694730" lon="-4.4305550">
        <ele>-50.8</ele>
        <time>2020-05-02T07:02:04Z</time>
      </trkpt>
      <trkpt lat="37.4693880" lon="-4.4302700">
        <ele>-50.4</ele>
        <time>2020-05-02T07:02:08Z</time>
      </trkpt>
      <trkpt lat="37.4692960" lon="-4.4300010">
        <ele>-49.8</ele>
        <time>2020-05-02T07:02:12Z</time>
      </trkpt>
      <trkpt lat="37.4691980" lon="-4.4297430">
        <ele>-49.4</ele>
        <time>2020-05-02T07:02:16Z</time>
      </trkpt>
      <trkpt lat="37.4691000" lon="-4.4294700">
        <ele>-48.4</ele>
        <time>2020-05-02T07:02:20Z</time>
      </trkpt>
      <trkpt lat="37.4690030" lon="-4.4292160">
        <ele>-48.2</ele>
        <time>2020-05-02T07:02:24Z</time>
      </trkpt>
      <trkpt lat="37.4689010" lon="-4.4289700">
        <ele>-47.8</ele>
        <time>2020-05-02T07:02:28Z</time>
      </trkpt>
      <trkpt lat="37.4688100" lon="-4.4287260">
        <ele>-46.8</ele>
        <time>2020-05-02T07:02:32Z</time>
      </trkpt>
      <trkpt lat="37.4687210" lon="-4.4285010">
        <ele>-46.8</ele>
        <time>2020-05-02T07:02:36Z</time>
      </trkpt>
      <trkpt lat="37.4685800" lon="-4.4283100">
        <ele>-46.8</ele>
        <time>2020-05-02T07:02:40Z</time>
      </trkpt>
      <trkpt lat="37.4684200" lon="-4.4281180">
        <ele>-46.0</ele>
        <time>2020-05-02T07:02:44Z</time>
      </trkpt>
      <trkpt lat="37.4682310" lon="-4.4279460">
        <ele>-46.2</ele>
        <time>2020-05-02T07:02:48Z</time>
      </trkpt>
      <trkpt lat="37.4680180" lon="-4.4277730">
        <ele>-45.8</ele>
        <time>2020-05-02T07:02:52Z</time>
      </trkpt>
      <trkpt lat="37.4678030" lon="-4.4275750">
        <ele>-45.2</ele>
        <time>2020-05-02T07:02:56Z</time>
      </trkpt>
      <trkpt lat="37.4675810" lon="-4.4273960">
        <ele>-45.0</ele>
        <time>2020-05-02T07:03:00Z</time>
      </trkpt>
      <trkpt lat="37.4673610" lon="-4.4272110">
        <ele>-44.0</ele>
        <time>2020-05-02T07:03:04Z</time>
      </trkpt>
      <trkpt lat="37.4671460" lon="-4.4270310">
        <ele>-43.6</ele>
        <time>2020-05-02T07:03:08Z</time>
      </trkpt>
      <trkpt lat="37.4669330" lon="-4.4268480">
        <ele>-43.2</ele>
        <time>2020-05-02T07:03:12Z</time>
      </trkpt>
      <trkpt lat="37.4667160" lon="-4.4266650">
        <ele>-43.2</ele>
        <time>2020-05-02T07:03:16Z</time>
      </trkpt>
      <trkpt lat="37.4664900" lon="-4.4264780">
        <ele>-42.8</ele>
        <time>2020-05-02T07:03:20Z</time>
      </trkpt>
      <trkpt lat="37.4662780" lon="-4.4263030">
        <ele>-42.4</ele>
        <time>2020-05-02T07:03:24Z</time>
      </trkpt>
      <trkpt lat="37.4660760" lon="-4.4261330">
        <ele>-42.0</ele>
        <time>2020-05-02T07:03:28Z</time>
      </trkpt>
      <trkpt lat="37.4658710" lon="-4.4259610">
        <ele>-41.4</ele>
        <time>2020-05-02T07:03:32Z</time>
      </trkpt>
      <trkpt lat="37.4656880" lon="-4.4257960">
        <ele>-41.2</ele>
        <time>2020-05-02T07:03:36Z</time>
      </trkpt>
      <trkpt lat="37.4655010" lon="-4.4256110">
        <ele>-41.2</ele>
        <time>2020-05-02T07:03:40Z</time>
      </trkpt>
      <trkpt lat="37.4653430" lon="-4.4253700">
        <ele>-40.6</ele>
        <time>2020-05-02T07:03:44Z</time>
      </trkpt>
      <trkpt lat="37.4652650" lon="-4.4251110">
        <ele>-40.4</ele>
        <time>2020-05-02T07:03:48Z</time>
      </trkpt>
      <trkpt lat="37.4652280" lon="-4.4248250">
        <ele>-40.8</ele>
        <time>2020-05-02T07:03:52Z</time>
      </trkpt>
      <trkpt lat="37.4652100" lon="-4.4245310">
        <ele>-40.2</ele>
        <time>2020-05-02T07:03:56Z</time>
      </trkpt>
      <trkpt lat="37.4651930" lon="-4.4242600">
        <ele>-40.0</ele>
        <time>2020-05-02T07:04:00Z</time>
      </trkpt>
      <trkpt lat="37.4651760" lon="-4.4239750">
        <ele>-40.4</ele>
        <time>2020-05-02T07:04:04Z</time>
      </trkpt>
      <trkpt lat="37.4651410" lon="-4.4237130">
        <ele>-41.0</ele>
        <time>2020-05-02T07:04:08Z</time>
      </trkpt>
      <trkpt lat="37.4650480" lon="-4.4234710">
        <ele>-41.0</ele>
        <time>2020-05-02T07:04:12Z</time>
      </trkpt>
      <trkpt lat="37.4649110" lon="-4.4232560">
        <ele>-41.4</ele>
        <time>2020-05-02T07:04:16Z</time>
      </trkpt>
      <trkpt lat="37.4647410" lon="-4.4230210">
        <ele>-42.0</ele>
        <time>2020-05-02T07:04:20Z</time>
      </trkpt>
      <trkpt lat="37.4645350" lon="-4.4228550">
        <ele>-41.4</ele>
        <time>2020-05-02T07:04:24Z</time>
      </trkpt>
      <trkpt lat="37.4643480" lon="-4.4228700">
        <ele>-40.8</ele>
        <time>2020-05-02T07:04:28Z</time>
      </trkpt>
      <trkpt lat="37.4641300" lon="-4.4228650">
        <ele>-41.6</ele>
        <time>2020-05-02T07:04:32Z</time>
      </trkpt>
      <trkpt lat="37.4638460" lon="-4.4228180">
        <ele>-41.8</ele>
        <time>2020-05-02T07:04:36Z</time>
      </trkpt>
      <trkpt lat="37.4635560" lon="-4.4228810">
        <ele>-41.4</ele>
        <time>2020-05-02T07:04:40Z</time>
      </trkpt>
      <trkpt lat="37.4633400" lon="-4.4230910">
        <ele>-40.8</ele>
        <time>2020-05-02T07:04:44Z</time>
      </trkpt>
      <trkpt lat="37.4631850" lon="-4.4233550">
        <ele>-40.0</ele>
        <time>2020-05-02T07:04:48Z</time>
      </trkpt>
      <trkpt lat="37.4630680" lon="-4.4236280">
        <ele>-39.0</ele>
        <time>2020-05-02T07:04:52Z</time>
      </trkpt>
      <trkpt lat="37.4629250" lon="-4.4238980">
        <ele>-38.0</ele>
        <time>2020-05-02T07:04:56Z</time>
      </trkpt>
      <trkpt lat="37.4627010" lon="-4.4240780">
        <ele>-38.0</ele>
        <time>2020-05-02T07:05:00Z</time>
      </trkpt>
      <trkpt lat="37.4624850" lon="-4.4242230">
        <ele>-37.2</ele>
        <time>2020-05-02T07:05:04Z</time>
      </trkpt>
      <trkpt lat="37.4623300" lon="-4.4243960">
        <ele>-36.4</ele>
        <time>2020-05-02T07:05:08Z</time>
      </trkpt>
      <trkpt lat="37.4621980" lon="-4.4246180">
        <ele>-36.4</ele>
        <time>2020-05-02T07:05:12Z</time>
      </trkpt>
      <trkpt lat="37.4620700" lon="-4.4248680">
        <ele>-36.6</ele>
        <time>2020-05-02T07:05:16Z</time>
      </trkpt>
      <trkpt lat="37.4619310" lon="-4.4250930">
        <ele>-36.0</ele>
        <time>2020-05-02T07:05:20Z</time>
      </trkpt>
      <trkpt lat="37.4617360" lon="-4.4252580">
        <ele>-35.6</ele>
        <time>2020-05-02T07:05:24Z</time>
      </trkpt>
      <trkpt lat="37.4615060" lon="-4.4253880">
        <ele>-34.6</ele>
        <time>2020-05-02T07:05:28Z</time>
      </trkpt>
      <trkpt lat="37.4612760" lon="-4.4255050">
        <ele>-34.2</ele>
        <time>2020-05-02T07:05:32Z</time>
      </trkpt>
      <trkpt lat="37.4610310" lon="-4.4255960">
        <ele>-33.8</ele>
        <time>2020-05-02T07:05:36Z</time>
      </trkpt>
      <trkpt lat="37.4607780" lon="-4.4256200">
        <ele>-33.8</ele>
        <time>2020-05-02T07:05:40Z</time>
      </trkpt>
      <trkpt lat="37.4605100" lon="-4.4256160">
        <ele>-33.2</ele>
        <time>2020-05-02T07:05:44Z</time>
      </trkpt>
      <trkpt lat="37.4602400" lon="-4.4256250">
        <ele>-33.8</ele>
        <time>2020-05-02T07:05:48Z</time>
      </trkpt>
      <trkpt lat="37.4599650" lon="-4.4256250">
        <ele>-33.0</ele>
        <time>2020-05-02T07:05:52Z</time>
      </trkpt>
      <trkpt lat="37.4596850" lon="-4.4256260">
        <ele>-32.4</ele>
        <time>2020-05-02T07:05:56Z</time>
      </trkpt>
      <trkpt lat="37.4594410" lon="-4.4256160">
        <ele>-32.2</ele>
        <time>2020-05-02T07:06:00Z</time>
      </trkpt>
      <trkpt lat="37.4591960" lon="-4.4255680">
        <ele>-31.4</ele>
        <time>2020-05-02T07:06:04Z</time>
      </trkpt>
      <trkpt lat="37.4589710" lon="-4.4254710">
        <ele>-31.2</ele>
        <time>2020-05-02T07:06:08Z</time>
      </trkpt>
      <trkpt lat="37.4587480" lon="-4.4253480">
        <ele>-31.0</ele>
        <time>2020-05-02T07:06:12Z</time>
      </trkpt>
      <trkpt lat="37.4585530" lon="-4.4251600">
        <ele>-30.6</ele>
        <time>2020-05-02T07:06:16Z</time>
      </trkpt>
      <trkpt lat="37.4584210" lon="-4.4249460">
        <ele>-29.8</ele>
        <time>2020-05-02T07:06:20Z</time>
      </trkpt>
      <trkpt lat="37.4583230" lon="-4.4246960">
        <ele>-29.2</ele>
        <time>2020-05-02T07:06:24Z</time>
      </trkpt>
      <trkpt lat="37.4582580" lon="-4.4244310">
        <ele>-29.0</ele>
        <time>2020-05-02T07:06:28Z</time>
      </trkpt>
      <trkpt lat="37.4582000" lon="-4.4241650">
        <ele>-27.8</ele>
        <time>2020-05-02T07:06:32Z</time>
      </trkpt>
      <trkpt lat="37.4581310" lon="-4.4238880">
        <ele>-27.0</ele>
        <time>2020-05-02T07:06:36Z</time>
      </trkpt>
      <trkpt lat="37.4580360" lon="-4.4236200">
        <ele>-27.0</ele>
        <time>2020-05-02T07:06:40Z</time>
      </trkpt>
      <trkpt lat="37.4579110" lon="-4.4233460">
        <ele>-25.8</ele>
        <time>2020-05-02T07:06:44Z</time>
      </trkpt>
      <trkpt lat="37.4577800" lon="-4.4230800">
        <ele>-24.8</ele>
        <time>2020-05-02T07:06:48Z</time>
      </trkpt>
      <trkpt lat="37.4576460" lon="-4.4228030">
        <ele>-24.2</ele>
        <time>2020-05-02T07:06:52Z</time>
      </trkpt>
      <trkpt lat="37.4575100" lon="-4.4225300">
        <ele>-23.4</ele>
        <time>2020-05-02T07:06:56Z</time>
      </trkpt>
      <trkpt lat="37.4573850" lon="-4.4222710">
        <ele>-22.6</ele>
        <time>2020-05-02T07:07:00Z</time>
      </trkpt>
      <trkpt lat="37.4572300" lon="-4.4220430">
        <ele>-22.0</ele>
        <time>2020-05-02T07:07:04Z</time>
      </trkpt>
      <trkpt lat="37.4570160" lon="-4.4220030">
        <ele>-20.0</ele>
        <time>2020-05-02T07:07:08Z</time>
      </trkpt>
      <trkpt lat="37.4568880" lon="-4.4220580">
        <ele>-19.0</ele>
        <time>2020-05-02T07:07:12Z</time>
      </trkpt>
      <trkpt lat="37.4567950" lon="-4.4220650">
        <ele>-19.2</ele>
        <time>2020-05-02T07:07:16Z</time>
      </trkpt>
      <trkpt lat="37.4566700" lon="-4.4219250">
        <ele>-19.2</ele>
        <time>2020-05-02T07:07:20Z</time>
      </trkpt>
      <trkpt lat="37.4565950" lon="-4.4216950">
        <ele>-19.2</ele>
        <time>2020-05-02T07:07:24Z</time>
      </trkpt>
      <trkpt lat="37.4565010" lon="-4.4214410">
        <ele>-18.6</ele>
        <time>2020-05-02T07:07:28Z</time>
      </trkpt>
      <trkpt lat="37.4563960" lon="-4.4211850">
        <ele>-17.6</ele>
        <time>2020-05-02T07:07:32Z</time>
      </trkpt>
      <trkpt lat="37.4563010" lon="-4.4209650">
        <ele>-17.2</ele>
        <time>2020-05-02T07:07:36Z</time>
      </trkpt>
      <trkpt lat="37.4562080" lon="-4.4207610">
        <ele>-16.4</ele>
        <time>2020-05-02T07:07:40Z</time>
      </trkpt>
      <trkpt lat="37.4561000" lon="-4.4205560">
        <ele>-15.4</ele>
        <time>2020-05-02T07:07:44Z</time>
      </trkpt>
      <trkpt lat="37.4559830" lon="-4.4203630">
        <ele>-14.8</ele>
        <time>2020-05-02T07:07:48Z</time>
      </trkpt>
      <trkpt lat="37.4558650" lon="-4.4201830">
        <ele>-13.8</ele>
        <time>2020-05-02T07:07:52Z</time>
      </trkpt>
      <trkpt lat="37.4557510" lon="-4.4200250">
        <ele>-12.8</ele>
        <time>2020-05-02T07:07:56Z</time>
      </trkpt>
      <trkpt lat="37.4556400" lon="-4.4198750">
        <ele>-12.0</ele>
        <time>2020-05-02T07:08:00Z</time>
      </trkpt>
      <trkpt lat="37.4555280" lon="-4.4197200">
        <ele>-11.2</ele>
        <time>2020-05-02T07:08:04Z</time>
      </trkpt>
      <trkpt lat="37.4554180" lon="-4.4195700">
        <ele>-10.0</ele>
        <time>2020-05-02T07:08:08Z</time>
      </trkpt>
      <trkpt lat="37.4552980" lon="-4.4194160">
        <ele>-9.2</ele>
        <time>2020-05-02T07:08:12Z</time>
      </trkpt>
      <trkpt lat="37.4551830" lon="-4.4192600">
        <ele>-7.2</ele>
        <time>2020-05-02T07:08:16Z</time>
      </trkpt>
      <trkpt lat="37.4550780" lon="-4.4191100">
        <ele>-6.2</ele>
        <time>2020-05-02T07:08:20Z</time>
      </trkpt>
      <trkpt lat="37.4549730" lon="-4.4189450">
        <ele>-3.8</ele>
        <time>2020-05-02T07:08:24Z</time>
      </trkpt>
      <trkpt lat="37.4548860" lon="-4.4187910">
        <ele>-5.0</ele>
        <time>2020-05-02T07:08:28Z</time>
      </trkpt>
      <trkpt lat="37.4548160" lon="-4.4186550">
        <ele>-4.2</ele>
        <time>2020-05-02T07:08:32Z</time>
      </trkpt>
      <trkpt lat="37.4547450" lon="-4.4185080">
        <ele>-3.4</ele>
        <time>2020-05-02T07:08:36Z</time>
      </trkpt>
      <trkpt lat="37.4546900" lon="-4.4183450">
        <ele>-2.6</ele>
        <time>2020-05-02T07:08:40Z</time>
      </trkpt>
      <trkpt lat="37.4546360" lon="-4.4181660">
        <ele>-1.6</ele>
        <time>2020-05-02T07:08:44Z</time>
      </trkpt>
      <trkpt lat="37.4545950" lon="-4.4179610">
        <ele>-0.8</ele>
        <time>2020-05-02T07:08:48Z</time>
      </trkpt>
      <trkpt lat="37.4545680" lon="-4.4177410">
        <ele>-0.2</ele>
        <time>2020-05-02T07:08:52Z</time>
      </trkpt>
      <trkpt lat="37.4545560" lon="-4.4175410">
        <ele>0.6</ele>
        <time>2020-05-02T07:08:56Z</time>
      </trkpt>
      <trkpt lat="37.4545580" lon="-4.4173180">
        <ele>1.4</ele>
        <time>2020-05-02T07:09:00Z</time>
      </trkpt>
      <trkpt lat="37.4545750" lon="-4.4171200">
        <ele>1.4</ele>
        <time>2020-05-02T07:09:04Z</time>
      </trkpt>
      <trkpt lat="37.4546050" lon="-4.4168980">
        <ele>2.0</ele>
        <time>2020-05-02T07:09:08Z</time>
      </trkpt>
      <trkpt lat="37.4546410" lon="-4.4166800">
        <ele>2.2</ele>
        <time>2020-05-02T07:09:12Z</time>
      </trkpt>
      <trkpt lat="37.4546830" lon="-4.4164450">
        <ele>3.0</ele>
        <time>2020-05-02T07:09:16Z</time>
      </trkpt>
      <trkpt lat="37.4547200" lon="-4.4162230">
        <ele>3.4</ele>
        <time>2020-05-02T07:09:20Z</time>
      </trkpt>
      <trkpt lat="37.4547460" lon="-4.4160080">
        <ele>4.0</ele>
        <time>2020-05-02T07:09:24Z</time>
      </trkpt>
      <trkpt lat="37.4547810" lon="-4.4157680">
        <ele>3.8</ele>
        <time>2020-05-02T07:09:28Z</time>
      </trkpt>
      <trkpt lat="37.4547980" lon="-4.4155330">
        <ele>4.6</ele>
        <time>2020-05-02T07:09:32Z</time>
      </trkpt>
      <trkpt lat="37.4548010" lon="-4.4152860">
        <ele>4.8</ele>
        <time>2020-05-02T07:09:36Z</time>
      </trkpt>
      <trkpt lat="37.4548010" lon="-4.4150450">
        <ele>6.4</ele>
        <time>2020-05-02T07:09:40Z</time>
      </trkpt>
      <trkpt lat="37.4547950" lon="-4.4148350">
        <ele>6.2</ele>
        <time>2020-05-02T07:09:44Z</time>
      </trkpt>
      <trkpt lat="37.4547850" lon="-4.4146100">
        <ele>7.0</ele>
        <time>2020-05-02T07:09:48Z</time>
      </trkpt>
      <trkpt lat="37.4547830" lon="-4.4143530">
        <ele>7.4</ele>
        <time>2020-05-02T07:09:52Z</time>
      </trkpt>
      <trkpt lat="37.4547860" lon="-4.4140900">
        <ele>8.8</ele>
        <time>2020-05-02T07:09:56Z</time>
      </trkpt>
      <trkpt lat="37.4548050" lon="-4.4138560">
        <ele>9.4</ele>
        <time>2020-05-02T07:10:00Z</time>
      </trkpt>
      <trkpt lat="37.4548400" lon="-4.4136250">
        <ele>9.8</ele>
        <time>2020-05-02T07:10:04Z</time>
      </trkpt>
      <trkpt lat="37.4548860" lon="-4.4133930">
        <ele>10.4</ele>
        <time>2020-05-02T07:10:08Z</time>
      </trkpt>
      <trkpt lat="37.4549530" lon="-4.4131680">
        <ele>11.6</ele>
        <time>2020-05-02T07:10:12Z</time>
      </trkpt>
      <trkpt lat="37.4550110" lon="-4.4130030">
        <ele>11.8</ele>
        <time>2020-05-02T07:10:16Z</time>
      </trkpt>
      <trkpt lat="37.4550730" lon="-4.4128460">
        <ele>13.4</ele>
        <time>2020-05-02T07:10:20Z</time>
      </trkpt>
      <trkpt lat="37.4551460" lon="-4.4126880">
        <ele>14.0</ele>
        <time>2020-05-02T07:10:24Z</time>
      </trkpt>
      <trkpt lat="37.4552300" lon="-4.4125260">
        <ele>14.6</ele>
        <time>2020-05-02T07:10:28Z</time>
      </trkpt>
      <trkpt lat="37.4553330" lon="-4.4123760">
        <ele>15.4</ele>
        <time>2020-05-02T07:10:32Z</time>
      </trkpt>
      <trkpt lat="37.4554230" lon="-4.4122450">
        <ele>16.0</ele>
        <time>2020-05-02T07:10:36Z</time>
      </trkpt>
      <trkpt lat="37.4555260" lon="-4.4121160">
        <ele>16.8</ele>
        <time>2020-05-02T07:10:40Z</time>
      </trkpt>
      <trkpt lat="37.4556360" lon="-4.4119780">
        <ele>18.2</ele>
        <time>2020-05-02T07:10:44Z</time>
      </trkpt>
      <trkpt lat="37.4557350" lon="-4.4118650">
        <ele>19.0</ele>
        <time>2020-05-02T07:10:48Z</time>
      </trkpt>
      <trkpt lat="37.4558460" lon="-4.4117380">
        <ele>19.8</ele>
        <time>2020-05-02T07:10:52Z</time>
      </trkpt>
      <trkpt lat="37.4559560" lon="-4.4116030">
        <ele>20.0</ele>
        <time>2020-05-02T07:10:56Z</time>
      </trkpt>
      <trkpt lat="37.4560580" lon="-4.4114830">
        <ele>21.0</ele>
        <time>2020-05-02T07:11:00Z</time>
      </trkpt>
      <trkpt lat="37.4561430" lon="-4.4113600">
        <ele>21.6</ele>
        <time>2020-05-02T07:11:04Z</time>
      </trkpt>
      <trkpt lat="37.4562410" lon="-4.4112110">
        <ele>23.0</ele>
        <time>2020-05-02T07:11:08Z</time>
      </trkpt>
      <trkpt lat="37.4563260" lon="-4.4110680">
        <ele>23.8</ele>
        <time>2020-05-02T07:11:12Z</time>
      </trkpt>
      <trkpt lat="37.4563980" lon="-4.4109380">
        <ele>24.6</ele>
        <time>2020-05-02T07:11:16Z</time>
      </trkpt>
      <trkpt lat="37.4564610" lon="-4.4107900">
        <ele>25.6</ele>
        <time>2020-05-02T07:11:20Z</time>
      </trkpt>
      <trkpt lat="37.4565230" lon="-4.4106280">
        <ele>26.6</ele>
        <time>2020-05-02T07:11:24Z</time>
      </trkpt>
      <trkpt lat="37.4565760" lon="-4.4104360">
        <ele>27.2</ele>
        <time>2020-05-02T07:11:28Z</time>
      </trkpt>
      <trkpt lat="37.4566180" lon="-4.4102780">
        <ele>28.2</ele>
        <time>2020-05-02T07:11:32Z</time>
      </trkpt>
      <trkpt lat="37.4566480" lon="-4.4101210">
        <ele>28.6</ele>
        <time>2020-05-02T07:11:36Z</time>
      </trkpt>
      <trkpt lat="37.4566680" lon="-4.4099660">
        <ele>29.4</ele>
        <time>2020-05-02T07:11:40Z</time>
      </trkpt>
      <trkpt lat="37.4566910" lon="-4.4097800">
        <ele>29.6</ele>
        <time>2020-05-02T07:11:44Z</time>
      </trkpt>
      <trkpt lat="37.4567000" lon="-4.4095810">
        <ele>30.6</ele>
        <time>2020-05-02T07:11:48Z</time>
      </trkpt>
      <trkpt lat="37.4566980" lon="-4.4093760">
        <ele>31.2</ele>
        <time>2020-05-02T07:11:52Z</time>
      </trkpt>
      <trkpt lat="37.4566930" lon="-4.4091610">
        <ele>32.6</ele>
        <time>2020-05-02T07:11:56Z</time>
      </trkpt>
      <trkpt lat="37.4566780" lon="-4.4089400">
        <ele>33.6</ele>
        <time>2020-05-02T07:12:00Z</time>
      </trkpt>
      <trkpt lat="37.4566560" lon="-4.4087010">
        <ele>34.0</ele>
        <time>2020-05-02T07:12:04Z</time>
      </trkpt>
      <trkpt lat="37.4566260" lon="-4.4085110">
        <ele>34.6</ele>
        <time>2020-05-02T07:12:08Z</time>
      </trkpt>
      <trkpt lat="37.4565900" lon="-4.4083110">
        <ele>34.8</ele>
        <time>2020-05-02T07:12:12Z</time>
      </trkpt>
      <trkpt lat="37.4565480" lon="-4.4080980">
        <ele>35.4</ele>
        <time>2020-05-02T07:12:16Z</time>
      </trkpt>
      <trkpt lat="37.4565100" lon="-4.4079000">
        <ele>36.0</ele>
        <time>2020-05-02T07:12:20Z</time>
      </trkpt>
      <trkpt lat="37.4564630" lon="-4.4076860">
        <ele>36.8</ele>
        <time>2020-05-02T07:12:24Z</time>
      </trkpt>
      <trkpt lat="37.4564160" lon="-4.4074960">
        <ele>37.6</ele>
        <time>2020-05-02T07:12:28Z</time>
      </trkpt>
      <trkpt lat="37.4563650" lon="-4.4072860">
        <ele>38.2</ele>
        <time>2020-05-02T07:12:32Z</time>
      </trkpt>
      <trkpt lat="37.4563280" lon="-4.4070860">
        <ele>38.6</ele>
        <time>2020-05-02T07:12:36Z</time>
      </trkpt>
      <trkpt lat="37.4562950" lon="-4.4068650">
        <ele>39.2</ele>
        <time>2020-05-02T07:12:40Z</time>
      </trkpt>
      <trkpt lat="37.4562730" lon="-4.4066400">
        <ele>40.0</ele>
        <time>2020-05-02T07:12:44Z</time>
      </trkpt>
      <trkpt lat="37.4562630" lon="-4.4064200">
        <ele>40.4</ele>
        <time>2020-05-02T07:12:48Z</time>
      </trkpt>
      <trkpt lat="37.4562710" lon="-4.4061910">
        <ele>41.0</ele>
        <time>2020-05-02T07:12:52Z</time>
      </trkpt>
      <trkpt lat="37.4562860" lon="-4.4059760">
        <ele>41.4</ele>
        <time>2020-05-02T07:12:56Z</time>
      </trkpt>
      <trkpt lat="37.4563130" lon="-4.4057400">
        <ele>42.2</ele>
        <time>2020-05-02T07:13:00Z</time>
      </trkpt>
      <trkpt lat="37.4563300" lon="-4.4055410">
        <ele>42.6</ele>
        <time>2020-05-02T07:13:04Z</time>
      </trkpt>
      <trkpt lat="37.4563600" lon="-4.4053200">
        <ele>42.8</ele>
        <time>2020-05-02T07:13:08Z</time>
      </trkpt>
      <trkpt lat="37.4563780" lon="-4.4050930">
        <ele>43.4</ele>
        <time>2020-05-02T07:13:12Z</time>
      </trkpt>
      <trkpt lat="37.4563910" lon="-4.4048680">
        <ele>44.0</ele>
        <time>2020-05-02T07:13:16Z</time>
      </trkpt>
      <trkpt lat="37.4563930" lon="-4.4046280">
        <ele>44.8</ele>
        <time>2020-05-02T07:13:20Z</time>
      </trkpt>
      <trkpt lat="37.4563850" lon="-4.4043800">
        <ele>45.6</ele>
        <time>2020-05-02T07:13:24Z</time>
      </trkpt>
      <trkpt lat="37.4563680" lon="-4.4041600">
        <ele>46.4</ele>
        <time>2020-05-02T07:13:28Z</time>
      </trkpt>
      <trkpt lat="37.4563560" lon="-4.4040050">
        <ele>47.4</ele>
        <time>2020-05-02T07:13:32Z</time>
      </trkpt>
      <trkpt lat="37.4563310" lon="-4.4038260">
        <ele>48.0</ele>
        <time>2020-05-02T07:13:36Z</time>
      </trkpt>
      <trkpt lat="37.4563230" lon="-4.4037050">
        <ele>48.2</ele>
        <time>2020-05-02T07:13:40Z</time>
      </trkpt>
      <trkpt lat="37.4563100" lon="-4.4035230">
        <ele>49.0</ele>
        <time>2020-05-02T07:13:44Z</time>
      </trkpt>
      <trkpt lat="37.4563030" lon="-4.4033660">
        <ele>50.0</ele>
        <time>2020-05-02T07:13:48Z</time>
      </trkpt>
      <trkpt lat="37.4562950" lon="-4.4031910">
        <ele>50.8</ele>
        <time>2020-05-02T07:13:52Z</time>
      </trkpt>
      <trkpt lat="37.4562980" lon="-4.4030200">
        <ele>51.6</ele>
        <time>2020-05-02T07:13:56Z</time>
      </trkpt>
      <trkpt lat="37.4563050" lon="-4.4028450">
        <ele>52.4</ele>
        <time>2020-05-02T07:14:00Z</time>
      </trkpt>
      <trkpt lat="37.4563200" lon="-4.4026800">
        <ele>53.6</ele>
        <time>2020-05-02T07:14:04Z</time>
      </trkpt>
      <trkpt lat="37.4563360" lon="-4.4025130">
        <ele>54.0</ele>
        <time>2020-05-02T07:14:08Z</time>
      </trkpt>
      <trkpt lat="37.4563600" lon="-4.4023960">
        <ele>54.6</ele>
        <time>2020-05-02T07:14:12Z</time>
      </trkpt>
      <trkpt lat="37.4563980" lon="-4.4022230">
        <ele>55.6</ele>
        <time>2020-05-02T07:14:16Z</time>
      </trkpt>
      <trkpt lat="37.4564300" lon="-4.4020900">
        <ele>57.0</ele>
        <time>2020-05-02T07:14:20Z</time>
      </trkpt>
      <trkpt lat="37.4564780" lon="-4.4019310">
        <ele>57.6</ele>
        <time>2020-05-02T07:14:24Z</time>
      </trkpt>
      <trkpt lat="37.4565400" lon="-4.4017830">
        <ele>58.2</ele>
        <time>2020-05-02T07:14:28Z</time>
      </trkpt>
      <trkpt lat="37.4566080" lon="-4.4016360">
        <ele>59.2</ele>
        <time>2020-05-02T07:14:32Z</time>
      </trkpt>
      <trkpt lat="37.4566800" lon="-4.4014850">
        <ele>59.8</ele>
        <time>2020-05-02T07:14:36Z</time>
      </trkpt>
      <trkpt lat="37.4567410" lon="-4.4013730">
        <ele>61.2</ele>
        <time>2020-05-02T07:14:40Z</time>
      </trkpt>
      <trkpt lat="37.4568310" lon="-4.4012310">
        <ele>61.4</ele>
        <time>2020-05-02T07:14:44Z</time>
      </trkpt>
      <trkpt lat="37.4569300" lon="-4.4011030">
        <ele>62.4</ele>
        <time>2020-05-02T07:14:48Z</time>
      </trkpt>
      <trkpt lat="37.4570500" lon="-4.4009560">
        <ele>63.0</ele>
        <time>2020-05-02T07:14:52Z</time>
      </trkpt>
      <trkpt lat="37.4571660" lon="-4.4008180">
        <ele>64.4</ele>
        <time>2020-05-02T07:14:56Z</time>
      </trkpt>
      <trkpt lat="37.4572960" lon="-4.4006700">
        <ele>65.4</ele>
        <time>2020-05-02T07:15:00Z</time>
      </trkpt>
      <trkpt lat="37.4574150" lon="-4.4005380">
        <ele>66.2</ele>
        <time>2020-05-02T07:15:04Z</time>
      </trkpt>
      <trkpt lat="37.4574980" lon="-4.4004460">
        <ele>67.2</ele>
        <time>2020-05-02T07:15:08Z</time>
      </trkpt>
      <trkpt lat="37.4576050" lon="-4.4003250">
        <ele>67.6</ele>
        <time>2020-05-02T07:15:12Z</time>
      </trkpt>
      <trkpt lat="37.4576800" lon="-4.4002410">
        <ele>68.8</ele>
        <time>2020-05-02T07:15:16Z</time>
      </trkpt>
      <trkpt lat="37.4577800" lon="-4.4001180">
        <ele>69.4</ele>
        <time>2020-05-02T07:15:20Z</time>
      </trkpt>
      <trkpt lat="37.4578850" lon="-4.4000030">
        <ele>70.4</ele>
        <time>2020-05-02T07:15:24Z</time>
      </trkpt>
      <trkpt lat="37.4579710" lon="-4.3999060">
        <ele>71.2</ele>
        <time>2020-05-02T07:15:28Z</time>
      </trkpt>
      <trkpt lat="37.4580710" lon="-4.3997860">
        <ele>72.6</ele>
        <time>2020-05-02T07:15:32Z</time>
      </trkpt>
      <trkpt lat="37.4581850" lon="-4.3996600">
        <ele>73.4</ele>
        <time>2020-05-02T07:15:36Z</time>
      </trkpt>
      <trkpt lat="37.4582660" lon="-4.3995700">
        <ele>74.2</ele>
        <time>2020-05-02T07:15:40Z</time>
      </trkpt>
      <trkpt lat="37.4583530" lon="-4.3994700">
        <ele>75.4</ele>
        <time>2020-05-02T07:15:44Z</time>
      </trkpt>
      <trkpt lat="37.4584260" lon="-4.3993810">
        <ele>75.8</ele>
        <time>2020-05-02T07:15:48Z</time>
      </trkpt>
      <trkpt lat="37.4585250" lon="-4.3992760">
        <ele>77.0</ele>
        <time>2020-05-02T07:15:52Z</time>
      </trkpt>
      <trkpt lat="37.4586150" lon="-4.3991600">
        <ele>78.2</ele>
        <time>2020-05-02T07:15:56Z</time>
      </trkpt>
      <trkpt lat="37.4586900" lon="-4.3990710">
        <ele>79.0</ele>
        <time>2020-05-02T07:16:00Z</time>
      </trkpt>
      <trkpt lat="37.4587480" lon="-4.3989880">
        <ele>79.4</ele>
        <time>2020-05-02T07:16:04Z</time>
      </trkpt>
      <trkpt lat="37.4588280" lon="-4.3988780">
        <ele>80.2</ele>
        <time>2020-05-02T07:16:08Z</time>
      </trkpt>
      <trkpt lat="37.4588880" lon="-4.3988100">
        <ele>80.4</ele>
        <time>2020-05-02T07:16:12Z</time>
      </trkpt>
      <trkpt lat="37.4589580" lon="-4.3987030">
        <ele>81.2</ele>
        <time>2020-05-02T07:16:16Z</time>
      </trkpt>
      <trkpt lat="37.4590150" lon="-4.3985850">
        <ele>82.6</ele>
        <time>2020-05-02T07:16:20Z</time>
      </trkpt>
      <trkpt lat="37.4590700" lon="-4.3984780">
        <ele>83.2</ele>
        <time>2020-05-02T07:16:24Z</time>
      </trkpt>
      <trkpt lat="37.4591160" lon="-4.3983700">
        <ele>83.6</ele>
        <time>2020-05-02T07:16:28Z</time>
      </trkpt>
      <trkpt lat="37.4591600" lon="-4.3982480">
        <ele>84.8</ele>
        <time>2020-05-02T07:16:32Z</time>
      </trkpt>
      <trkpt lat="37.4591960" lon="-4.3981460">
        <ele>85.2</ele>
        <time>2020-05-02T07:16:36Z</time>
      </trkpt>
      <trkpt lat="37.4592330" lon="-4.3980080">
        <ele>86.2</ele>
        <time>2020-05-02T07:16:40Z</time>
      </trkpt>
      <trkpt lat="37.4592700" lon="-4.3978700">
        <ele>87.0</ele>
        <time>2020-05-02T07:16:44Z</time>
      </trkpt>
      <trkpt lat="37.4593050" lon="-4.3977250">
        <ele>88.2</ele>
        <time>2020-05-02T07:16:48Z</time>
      </trkpt>
      <trkpt lat="37.4593360" lon="-4.3975710">
        <ele>88.8</ele>
        <time>2020-05-02T07:16:52Z</time>
      </trkpt>
      <trkpt lat="37.4593530" lon="-4.3974010">
        <ele>89.6</ele>
        <time>2020-05-02T07:16:56Z</time>
      </trkpt>
      <trkpt lat="37.4593700" lon="-4.3972150">
        <ele>91.0</ele>
        <time>2020-05-02T07:17:00Z</time>
      </trkpt>
      <trkpt lat="37.4593780" lon="-4.3970480">
        <ele>92.0</ele>
        <time>2020-05-02T07:17:04Z</time>
      </trkpt>
      <trkpt lat="37.4593760" lon="-4.3969080">
        <ele>92.6</ele>
        <time>2020-05-02T07:17:08Z</time>
      </trkpt>
      <trkpt lat="37.4593730" lon="-4.3967550">
        <ele>93.4</ele>
        <time>2020-05-02T07:17:12Z</time>
      </trkpt>
      <trkpt lat="37.4593660" lon="-4.3965980">
        <ele>94.8</ele>
        <time>2020-05-02T07:17:16Z</time>
      </trkpt>
      <trkpt lat="37.4593580" lon="-4.3964480">
        <ele>95.4</ele>
        <time>2020-05-02T07:17:20Z</time>
      </trkpt>
      <trkpt lat="37.4593450" lon="-4.3962730">
        <ele>96.8</ele>
        <time>2020-05-02T07:17:24Z</time>
      </trkpt>
      <trkpt lat="37.4593360" lon="-4.3961100">
        <ele>97.8</ele>
        <time>2020-05-02T07:17:28Z</time>
      </trkpt>
      <trkpt lat="37.4593330" lon="-4.3959230">
        <ele>98.6</ele>
        <time>2020-05-02T07:17:32Z</time>
      </trkpt>
      <trkpt lat="37.4593350" lon="-4.3957810">
        <ele>99.2</ele>
        <time>2020-05-02T07:17:36Z</time>
      </trkpt>
      <trkpt lat="37.4593350" lon="-4.3956710">
        <ele>100.0</ele>
        <time>2020-05-02T07:17:40Z</time>
      </trkpt>
      <trkpt lat="37.4593400" lon="-4.3955060">
        <ele>101.0</ele>
        <time>2020-05-02T07:17:44Z</time>
      </trkpt>
      <trkpt lat="37.4593480" lon="-4.3953660">
        <ele>101.6</ele>
        <time>2020-05-02T07:17:48Z</time>
      </trkpt>
      <trkpt lat="37.4593650" lon="-4.3951910">
        <ele>102.2</ele>
        <time>2020-05-02T07:17:52Z</time>
      </trkpt>
      <trkpt lat="37.4593880" lon="-4.3950200">
        <ele>103.4</ele>
        <time>2020-05-02T07:17:56Z</time>
      </trkpt>
      <trkpt lat="37.4594100" lon="-4.3948510">
        <ele>103.6</ele>
        <time>2020-05-02T07:18:00Z</time>
      </trkpt>
      <trkpt lat="37.4594450" lon="-4.3946880">
        <ele>104.8</ele>
        <time>2020-05-02T07:18:04Z</time>
      </trkpt>
      <trkpt lat="37.4594900" lon="-4.3945100">
        <ele>105.8</ele>
        <time>2020-05-02T07:18:08Z</time>
      </trkpt>
      <trkpt lat="37.4595410" lon="-4.3943260">
        <ele>106.8</ele>
        <time>2020-05-02T07:18:12Z</time>
      </trkpt>
      <trkpt lat="37.4595800" lon="-4.3941910">
        <ele>107.0</ele>
        <time>2020-05-02T07:18:16Z</time>
      </trkpt>
      <trkpt lat="37.4596230" lon="-4.3940550">
        <ele>107.8</ele>
        <time>2020-05-02T07:18:20Z</time>
      </trkpt>
      <trkpt lat="37.4596780" lon="-4.3939030">
        <ele>108.6</ele>
        <time>2020-05-02T07:18:24Z</time>
      </trkpt>
      <trkpt lat="37.4597450" lon="-4.3937450">
        <ele>109.8</ele>
        <time>2020-05-02T07:18:28Z</time>
      </trkpt>
      <trkpt lat="37.4598000" lon="-4.3936210">
        <ele>109.6</ele>
        <time>2020-05-02T07:18:32Z</time>
      </trkpt>
      <trkpt lat="37.4598630" lon="-4.3934900">
        <ele>110.2</ele>
        <time>2020-05-02T07:18:36Z</time>
      </trkpt>
      <trkpt lat="37.4599400" lon="-4.3933260">
        <ele>111.0</ele>
        <time>2020-05-02T07:18:40Z</time>
      </trkpt>
      <trkpt lat="37.4600080" lon="-4.3931830">
        <ele>111.8</ele>
        <time>2020-05-02T07:18:44Z</time>
      </trkpt>
      <trkpt lat="37.4600910" lon="-4.3930210">
        <ele>112.2</ele>
        <time>2020-05-02T07:18:48Z</time>
      </trkpt>
      <trkpt lat="37.4601580" lon="-4.3928860">
        <ele>113.2</ele>
        <time>2020-05-02T07:18:52Z</time>
      </trkpt>
      <trkpt lat="37.4602250" lon="-4.3927530">
        <ele>113.2</ele>
        <time>2020-05-02T07:18:56Z</time>
      </trkpt>
      <trkpt lat="37.4602900" lon="-4.3926100">
        <ele>114.2</ele>
        <time>2020-05-02T07:19:00Z</time>
      </trkpt>
      <trkpt lat="37.4603580" lon="-4.3924780">
        <ele>114.8</ele>
        <time>2020-05-02T07:19:04Z</time>
      </trkpt>
      <trkpt lat="37.4604350" lon="-4.3923300">
        <ele>115.8</ele>
        <time>2020-05-02T07:19:08Z</time>
      </trkpt>
      <trkpt lat="37.4604930" lon="-4.3921980">
        <ele>115.8</ele>
        <time>2020-05-02T07:19:12Z</time>
      </trkpt>
      <trkpt lat="37.4605660" lon="-4.3920610">
        <ele>117.4</ele>
        <time>2020-05-02T07:19:16Z</time>
      </trkpt>
      <trkpt lat="37.4606280" lon="-4.3919330">
        <ele>117.6</ele>
        <time>2020-05-02T07:19:20Z</time>
      </trkpt>
      <trkpt lat="37.4606980" lon="-4.3917810">
        <ele>118.6</ele>
        <time>2020-05-02T07:19:24Z</time>
      </trkpt>
      <trkpt lat="37.4607650" lon="-4.3916460">
        <ele>119.6</ele>
        <time>2020-05-02T07:19:28Z</time>
      </trkpt>
      <trkpt lat="37.4608230" lon="-4.3915350">
        <ele>120.0</ele>
        <time>2020-05-02T07:19:32Z</time>
      </trkpt>
      <trkpt lat="37.4608860" lon="-4.3914000">
        <ele>120.8</ele>
        <time>2020-05-02T07:19:36Z</time>
      </trkpt>
      <trkpt lat="37.4609430" lon="-4.3912880">
        <ele>121.6</ele>
        <time>2020-05-02T07:19:40Z</time>
      </trkpt>
      <trkpt lat="37.4610060" lon="-4.3911500">
        <ele>122.0</ele>
        <time>2020-05-02T07:19:44Z</time>
      </trkpt>
      <trkpt lat="37.4610850" lon="-4.3910000">
        <ele>122.8</ele>
        <time>2020-05-02T07:19:48Z</time>
      </trkpt>
      <trkpt lat="37.4611630" lon="-4.3908400">
        <ele>123.8</ele>
        <time>2020-05-02T07:19:52Z</time>
      </trkpt>
      <trkpt lat="37.4612350" lon="-4.3907000">
        <ele>125.0</ele>
        <time>2020-05-02T07:19:56Z</time>
      </trkpt>
      <trkpt lat="37.4613030" lon="-4.3905460">
        <ele>126.6</ele>
        <time>2020-05-02T07:20:00Z</time>
      </trkpt>
      <trkpt lat="37.4613680" lon="-4.3904180">
        <ele>127.2</ele>
        <time>2020-05-02T07:20:04Z</time>
      </trkpt>
      <trkpt lat="37.4614350" lon="-4.3902730">
        <ele>128.4</ele>
        <time>2020-05-02T07:20:08Z</time>
      </trkpt>
      <trkpt lat="37.4615060" lon="-4.3901060">
        <ele>129.2</ele>
        <time>2020-05-02T07:20:12Z</time>
      </trkpt>
      <trkpt lat="37.4615580" lon="-4.3899530">
        <ele>130.0</ele>
        <time>2020-05-02T07:20:16Z</time>
      </trkpt>
      <trkpt lat="37.4615910" lon="-4.3898460">
        <ele>130.0</ele>
        <time>2020-05-02T07:20:20Z</time>
      </trkpt>
      <trkpt lat="37.4616280" lon="-4.3896900">
        <ele>131.0</ele>
        <time>2020-05-02T07:20:24Z</time>
      </trkpt>
      <trkpt lat="37.4616680" lon="-4.3895360">
        <ele>131.4</ele>
        <time>2020-05-02T07:20:28Z</time>
      </trkpt>
      <trkpt lat="37.4616930" lon="-4.3893950">
        <ele>132.4</ele>
        <time>2020-05-02T07:20:32Z</time>
      </trkpt>
      <trkpt lat="37.4617100" lon="-4.3892480">
        <ele>132.8</ele>
        <time>2020-05-02T07:20:36Z</time>
      </trkpt>
      <trkpt lat="37.4617250" lon="-4.3891150">
        <ele>134.0</ele>
        <time>2020-05-02T07:20:40Z</time>
      </trkpt>
      <trkpt lat="37.4617330" lon="-4.3889530">
        <ele>135.0</ele>
        <time>2020-05-02T07:20:44Z</time>
      </trkpt>
      <trkpt lat="37.4617300" lon="-4.3887880">
        <ele>135.6</ele>
        <time>2020-05-02T07:20:48Z</time>
      </trkpt>
      <trkpt lat="37.4617280" lon="-4.3886080">
        <ele>137.2</ele>
        <time>2020-05-02T07:20:52Z</time>
      </trkpt>
      <trkpt lat="37.4617210" lon="-4.3884610">
        <ele>137.6</ele>
        <time>2020-05-02T07:20:56Z</time>
      </trkpt>
      <trkpt lat="37.4617100" lon="-4.3883180">
        <ele>138.8</ele>
        <time>2020-05-02T07:21:00Z</time>
      </trkpt>
      <trkpt lat="37.4617010" lon="-4.3881750">
        <ele>139.4</ele>
        <time>2020-05-02T07:21:04Z</time>
      </trkpt>
      <trkpt lat="37.4616900" lon="-4.3880060">
        <ele>140.4</ele>
        <time>2020-05-02T07:21:08Z</time>
      </trkpt>
      <trkpt lat="37.4616760" lon="-4.3878380">
        <ele>141.0</ele>
        <time>2020-05-02T07:21:12Z</time>
      </trkpt>
      <trkpt lat="37.4616660" lon="-4.3876550">
        <ele>141.8</ele>
        <time>2020-05-02T07:21:16Z</time>
      </trkpt>
      <trkpt lat="37.4616550" lon="-4.3874700">
        <ele>143.6</ele>
        <time>2020-05-02T07:21:20Z</time>
      </trkpt>
      <trkpt lat="37.4616430" lon="-4.3873600">
        <ele>144.2</ele>
        <time>2020-05-02T07:21:24Z</time>
      </trkpt>
      <trkpt lat="37.4616360" lon="-4.3872210">
        <ele>145.0</ele>
        <time>2020-05-02T07:21:28Z</time>
      </trkpt>
      <trkpt lat="37.4616280" lon="-4.3871010">
        <ele>145.2</ele>
        <time>2020-05-02T07:21:32Z</time>
      </trkpt>
      <trkpt lat="37.4616180" lon="-4.3869360">
        <ele>146.2</ele>
        <time>2020-05-02T07:21:36Z</time>
      </trkpt>
      <trkpt lat="37.4616150" lon="-4.3867860">
        <ele>147.6</ele>
        <time>2020-05-02T07:21:40Z</time>
      </trkpt>
      <trkpt lat="37.4616030" lon="-4.3866410">
        <ele>148.2</ele>
        <time>2020-05-02T07:21:44Z</time>
      </trkpt>
      <trkpt lat="37.4615950" lon="-4.3865030">
        <ele>149.2</ele>
        <time>2020-05-02T07:21:48Z</time>
      </trkpt>
      <trkpt lat="37.4615900" lon="-4.3863900">
        <ele>149.8</ele>
        <time>2020-05-02T07:21:52Z</time>
      </trkpt>
      <trkpt lat="37.4615810" lon="-4.3862400">
        <ele>150.6</ele>
        <time>2020-05-02T07:21:56Z</time>
      </trkpt>
      <trkpt lat="37.4615800" lon="-4.3861500">
        <ele>151.4</ele>
        <time>2020-05-02T07:22:00Z</time>
      </trkpt>
      <trkpt lat="37.4615680" lon="-4.3859950">
        <ele>152.0</ele>
        <time>2020-05-02T07:22:04Z</time>
      </trkpt>
      <trkpt lat="37.4615660" lon="-4.3858280">
        <ele>154.0</ele>
        <time>2020-05-02T07:22:08Z</time>
      </trkpt>
      <trkpt lat="37.4615680" lon="-4.3856460">
        <ele>155.0</ele>
        <time>2020-05-02T07:22:12Z</time>
      </trkpt>
      <trkpt lat="37.4615800" lon="-4.3854700">
        <ele>156.0</ele>
        <time>2020-05-02T07:22:16Z</time>
      </trkpt>
      <trkpt lat="37.4615930" lon="-4.3852900">
        <ele>157.0</ele>
        <time>2020-05-02T07:22:20Z</time>
      </trkpt>
      <trkpt lat="37.4616200" lon="-4.3851060">
        <ele>157.4</ele>
        <time>2020-05-02T07:22:24Z</time>
      </trkpt>
      <trkpt lat="37.4616430" lon="-4.3849710">
        <ele>158.6</ele>
        <time>2020-05-02T07:22:28Z</time>
      </trkpt>
      <trkpt lat="37.4616800" lon="-4.3848210">
        <ele>159.4</ele>
        <time>2020-05-02T07:22:32Z</time>
      </trkpt>
      <trkpt lat="37.4617250" lon="-4.3846760">
        <ele>160.4</ele>
        <time>2020-05-02T07:22:36Z</time>
      </trkpt>
      <trkpt lat="37.4617600" lon="-4.3845700">
        <ele>161.2</ele>
        <time>2020-05-02T07:22:40Z</time>
      </trkpt>
      <trkpt lat="37.4618080" lon="-4.3844310">
        <ele>162.4</ele>
        <time>2020-05-02T07:22:44Z</time>
      </trkpt>
      <trkpt lat="37.4618600" lon="-4.3843100">
        <ele>162.6</ele>
        <time>2020-05-02T07:22:48Z</time>
      </trkpt>
      <trkpt lat="37.4619130" lon="-4.3841910">
        <ele>163.4</ele>
        <time>2020-05-02T07:22:52Z</time>
      </trkpt>
      <trkpt lat="37.4619700" lon="-4.3840380">
        <ele>164.4</ele>
        <time>2020-05-02T07:22:56Z</time>
      </trkpt>
      <trkpt lat="37.4620180" lon="-4.3839180">
        <ele>164.8</ele>
        <time>2020-05-02T07:23:00Z</time>
      </trkpt>
      <trkpt lat="37.4620880" lon="-4.3837680">
        <ele>165.8</ele>
        <time>2020-05-02T07:23:04Z</time>
      </trkpt>
      <trkpt lat="37.4621300" lon="-4.3836510">
        <ele>166.4</ele>
        <time>2020-05-02T07:23:08Z</time>
      </trkpt>
      <trkpt lat="37.4621860" lon="-4.3834900">
        <ele>167.8</ele>
        <time>2020-05-02T07:23:12Z</time>
      </trkpt>
      <trkpt lat="37.4622350" lon="-4.3833350">
        <ele>168.6</ele>
        <time>2020-05-02T07:23:16Z</time>
      </trkpt>
      <trkpt lat="37.4622680" lon="-4.3832050">
        <ele>169.0</ele>
        <time>2020-05-02T07:23:20Z</time>
      </trkpt>
      <trkpt lat="37.4623080" lon="-4.3830300">
        <ele>171.0</ele>
        <time>2020-05-02T07:23:24Z</time>
      </trkpt>
      <trkpt lat="37.4623300" lon="-4.3828530">
        <ele>172.2</ele>
        <time>2020-05-02T07:23:28Z</time>
      </trkpt>
      <trkpt lat="37.4623560" lon="-4.3826760">
        <ele>173.4</ele>
        <time>2020-05-02T07:23:32Z</time>
      </trkpt>
      <trkpt lat="37.4624050" lon="-4.3825080">
        <ele>174.0</ele>
        <time>2020-05-02T07:23:36Z</time>
      </trkpt>
      <trkpt lat="37.4624180" lon="-4.3823560">
        <ele>175.0</ele>
        <time>2020-05-02T07:23:40Z</time>
      </trkpt>
      <trkpt lat="37.4624200" lon="-4.3821950">
        <ele>175.0</ele>
        <time>2020-05-02T07:23:44Z</time>
      </trkpt>
      <trkpt lat="37.4624060" lon="-4.3820150">
        <ele>176.2</ele>
        <time>2020-05-02T07:23:48Z</time>
      </trkpt>
      <trkpt lat="37.4623960" lon="-4.3818410">
        <ele>176.4</ele>
        <time>2020-05-02T07:23:52Z</time>
      </trkpt>
      <trkpt lat="37.4623860" lon="-4.3816880">
        <ele>177.0</ele>
        <time>2020-05-02T07:23:56Z</time>
      </trkpt>
      <trkpt lat="37.4623760" lon="-4.3815310">
        <ele>176.8</ele>
        <time>2020-05-02T07:24:00Z</time>
      </trkpt>
      <trkpt lat="37.4623730" lon="-4.3813880">
        <ele>177.4</ele>
        <time>2020-05-02T07:24:04Z</time>
      </trkpt>
      <trkpt lat="37.4623980" lon="-4.3812450">
        <ele>177.4</ele>
        <time>2020-05-02T07:24:08Z</time>
      </trkpt>
      <trkpt lat="37.4624160" lon="-4.3810880">
        <ele>178.2</ele>
        <time>2020-05-02T07:24:12Z</time>
      </trkpt>
      <trkpt lat="37.4624180" lon="-4.3809630">
        <ele>178.0</ele>
        <time>2020-05-02T07:24:16Z</time>
      </trkpt>
      <trkpt lat="37.4624030" lon="-4.3808310">
        <ele>178.6</ele>
        <time>2020-05-02T07:24:20Z</time>
      </trkpt>
      <trkpt lat="37.4623860" lon="-4.3806830">
        <ele>179.0</ele>
        <time>2020-05-02T07:24:24Z</time>
      </trkpt>
      <trkpt lat="37.4623760" lon="-4.3805810">
        <ele>179.2</ele>
        <time>2020-05-02T07:24:28Z</time>
      </trkpt>
      <trkpt lat="37.4623730" lon="-4.3804700">
        <ele>179.2</ele>
        <time>2020-05-02T07:24:32Z</time>
      </trkpt>
      <trkpt lat="37.4623610" lon="-4.3803280">
        <ele>179.8</ele>
        <time>2020-05-02T07:24:36Z</time>
      </trkpt>
      <trkpt lat="37.4623530" lon="-4.3802150">
        <ele>179.8</ele>
        <time>2020-05-02T07:24:40Z</time>
      </trkpt>
      <trkpt lat="37.4623960" lon="-4.3801710">
        <ele>179.8</ele>
        <time>2020-05-02T07:24:44Z</time>
      </trkpt>
      <trkpt lat="37.4623960" lon="-4.3801710">
        <ele>179.8</ele>
        <time>2020-05-02T07:24:48Z</time>
      </trkpt>
      <trkpt lat="37.4623960" lon="-4.3801710">
        <ele>180.0</ele>
        <time>2020-05-02T07:24:52Z</time>
      </trkpt>
      <trkpt lat="37.4623960" lon="-4.3801710">
        <ele>179.8</ele>
        <time>2020-05-02T07:24:56Z</time>
      </trkpt>
      <trkpt lat="37.4623960" lon="-4.3801710">
        <ele>179.8</ele>
        <time>2020-05-02T07:25:00Z</time>
      </trkpt>
      <trkpt lat="37.4624110" lon="-4.3801910">
        <ele>180.0</ele>
        <time>2020-05-02T07:25:04Z</time>
      </trkpt>
      <trkpt lat="37.4623910" lon="-4.3802630">
        <ele>180.2</ele>
        <time>2020-05-02T07:25:08Z</time>
      </trkpt>
      <trkpt lat="37.4623730" lon="-4.3803930">
        <ele>179.6</ele>
        <time>2020-05-02T07:25:12Z</time>
      </trkpt>
      <trkpt lat="37.4623850" lon="-4.3805300">
        <ele>179.4</ele>
        <time>2020-05-02T07:25:16Z</time>
      </trkpt>
      <trkpt lat="37.4623960" lon="-4.3806760">
        <ele>179.4</ele>
        <time>2020-05-02T07:25:20Z</time>
      </trkpt>
      <trkpt lat="37.4624330" lon="-4.3807330">
        <ele>178.4</ele>
        <time>2020-05-02T07:25:24Z</time>
      </trkpt>
      <trkpt lat="37.4624330" lon="-4.3807330">
        <ele>179.0</ele>
        <time>2020-05-02T07:25:28Z</time>
      </trkpt>
      <trkpt lat="37.4624330" lon="-4.3807460">
        <ele>179.0</ele>
        <time>2020-05-02T07:25:32Z</time>
      </trkpt>
      <trkpt lat="37.4624330" lon="-4.3807460">
        <ele>179.0</ele>
        <time>2020-05-02T07:25:36Z</time>
      </trkpt>
      <trkpt lat="37.4624330" lon="-4.3807460">
        <ele>178.8</ele>
        <time>2020-05-02T07:25:40Z</time>
      </trkpt>
      <trkpt lat="37.4624330" lon="-4.3807460">
        <ele>178.6</ele>
        <time>2020-05-02T07:25:44Z</time>
      </trkpt>
      <trkpt lat="37.4624330" lon="-4.3807460">
        <ele>178.8</ele>
        <time>2020-05-02T07:25:48Z</time>
      </trkpt>
      <trkpt lat="37.4624330" lon="-4.3807460">
        <ele>178.8</ele>
        <time>2020-05-02T07:25:52Z</time>
      </trkpt>
      <trkpt lat="37.4624330" lon="-4.3807460">
        <ele>179.2</ele>
        <time>2020-05-02T07:25:56Z</time>
      </trkpt>
      <trkpt lat="37.4624330" lon="-4.3807460">
        <ele>178.6</ele>
        <time>2020-05-02T07:26:00Z</time>
      </trkpt>
      <trkpt lat="37.4624330" lon="-4.3807460">
        <ele>178.8</ele>
        <time>2020-05-02T07:26:04Z</time>
      </trkpt>
      <trkpt lat="37.4624330" lon="-4.3807460">
        <ele>178.6</ele>
        <time>2020-05-02T07:26:08Z</time>
      </trkpt>
      <trkpt lat="37.4624330" lon="-4.3807460">
        <ele>178.8</ele>
        <time>2020-05-02T07:26:12Z</time>
      </trkpt>
      <trkpt lat="37.4624330" lon="-4.3807460">
        <ele>178.8</ele>
        <time>2020-05-02T07:26:16Z</time>
      </trkpt>
      <trkpt lat="37.4624330" lon="-4.3807460">
        <ele>178.8</ele>
        <time>2020-05-02T07:26:20Z</time>
      </trkpt>
      <trkpt lat="37.4624330" lon="-4.3807460">
        <ele>178.8</ele>
        <time>2020-05-02T07:26:24Z</time>
      </trkpt>
      <trkpt lat="37.4624330" lon="-4.3807460">
        <ele>179.0</ele>
        <time>2020-05-02T07:26:28Z</time>
      </trkpt>
      <trkpt lat="37.4624130" lon="-4.3807430">
        <ele>179.0</ele>
        <time>2020-05-02T07:26:32Z</time>
      </trkpt>
      <trkpt lat="37.4624130" lon="-4.3807430">
        <ele>179.2</ele>
        <time>2020-05-02T07:26:36Z</time>
      </trkpt>
      <trkpt lat="37.4624130" lon="-4.3807430">
        <ele>179.4</ele>
        <time>2020-05-02T07:26:40Z</time>
      </trkpt>
      <trkpt lat="37.4624130" lon="-4.3807430">
        <ele>179.2</ele>
        <time>2020-05-02T07:26:44Z</time>
      </trkpt>
      <trkpt lat="37.4624130" lon="-4.3807430">
        <ele>179.2</ele>
        <time>2020-05-02T07:26:48Z</time>
      </trkpt>
      <trkpt lat="37.4624130" lon="-4.3807430">
        <ele>179.4</ele>
        <time>2020-05-02T07:26:52Z</time>
      </trkpt>
      <trkpt lat="37.4624130" lon="-4.3807430">
        <ele>179.6</ele>
        <time>2020-05-02T07:26:56Z</time>
      </trkpt>
      <trkpt lat="37.4624130" lon="-4.3807430">
        <ele>179.2</ele>
        <time>2020-05-02T07:27:00Z</time>
      </trkpt>
      <trkpt lat="37.4623860" lon="-4.3807710">
        <ele>179.4</ele>
        <time>2020-05-02T07:27:04Z</time>
      </trkpt>
      <trkpt lat="37.4623930" lon="-4.3808860">
        <ele>179.2</ele>
        <time>2020-05-02T07:27:08Z</time>
      </trkpt>
      <trkpt lat="37.4624050" lon="-4.3810750">
        <ele>178.4</ele>
        <time>2020-05-02T07:27:12Z</time>
      </trkpt>
      <trkpt lat="37.4624160" lon="-4.3813250">
        <ele>178.6</ele>
        <time>2020-05-02T07:27:16Z</time>
      </trkpt>
      <trkpt lat="37.4624400" lon="-4.3816510">
        <ele>177.4</ele>
        <time>2020-05-02T07:27:20Z</time>
      </trkpt>
      <trkpt lat="37.4624630" lon="-4.3820510">
        <ele>176.8</ele>
        <time>2020-05-02T07:27:24Z</time>
      </trkpt>
      <trkpt lat="37.4624650" lon="-4.3825080">
        <ele>174.0</ele>
        <time>2020-05-02T07:27:28Z</time>
      </trkpt>
      <trkpt lat="37.4624100" lon="-4.3830210">
        <ele>171.2</ele>
        <time>2020-05-02T07:27:32Z</time>
      </trkpt>
      <trkpt lat="37.4622550" lon="-4.3835900">
        <ele>168.8</ele>
        <time>2020-05-02T07:27:36Z</time>
      </trkpt>
      <trkpt lat="37.4620110" lon="-4.3842010">
        <ele>164.6</ele>
        <time>2020-05-02T07:27:40Z</time>
      </trkpt>
      <trkpt lat="37.4617800" lon="-4.3848660">
        <ele>158.8</ele>
        <time>2020-05-02T07:27:44Z</time>
      </trkpt>
      <trkpt lat="37.4616700" lon="-4.3856060">
        <ele>154.8</ele>
        <time>2020-05-02T07:27:48Z</time>
      </trkpt>
      <trkpt lat="37.4616880" lon="-4.3863780">
        <ele>148.8</ele>
        <time>2020-05-02T07:27:52Z</time>
      </trkpt>
      <trkpt lat="37.4617400" lon="-4.3871980">
        <ele>142.8</ele>
        <time>2020-05-02T07:27:56Z</time>
      </trkpt>
      <trkpt lat="37.4617980" lon="-4.3880280">
        <ele>137.8</ele>
        <time>2020-05-02T07:28:00Z</time>
      </trkpt>
      <trkpt lat="37.4618330" lon="-4.3888430">
        <ele>134.8</ele>
        <time>2020-05-02T07:28:04Z</time>
      </trkpt>
      <trkpt lat="37.4617550" lon="-4.3896080">
        <ele>130.0</ele>
        <time>2020-05-02T07:28:08Z</time>
      </trkpt>
      <trkpt lat="37.4615330" lon="-4.3903050">
        <ele>125.8</ele>
        <time>2020-05-02T07:28:12Z</time>
      </trkpt>
      <trkpt lat="37.4612230" lon="-4.3909630">
        <ele>123.2</ele>
        <time>2020-05-02T07:28:16Z</time>
      </trkpt>
      <trkpt lat="37.4608900" lon="-4.3916300">
        <ele>118.4</ele>
        <time>2020-05-02T07:28:20Z</time>
      </trkpt>
      <trkpt lat="37.4605610" lon="-4.3922900">
        <ele>115.6</ele>
        <time>2020-05-02T07:28:24Z</time>
      </trkpt>
      <trkpt lat="37.4602460" lon="-4.3929310">
        <ele>111.4</ele>
        <time>2020-05-02T07:28:28Z</time>
      </trkpt>
      <trkpt lat="37.4599450" lon="-4.3935530">
        <ele>108.6</ele>
        <time>2020-05-02T07:28:32Z</time>
      </trkpt>
      <trkpt lat="37.4596800" lon="-4.3942050">
        <ele>105.4</ele>
        <time>2020-05-02T07:28:36Z</time>
      </trkpt>
      <trkpt lat="37.4595030" lon="-4.3949160">
        <ele>101.8</ele>
        <time>2020-05-02T07:28:40Z</time>
      </trkpt>
      <trkpt lat="37.4594360" lon="-4.3956630">
        <ele>98.8</ele>
        <time>2020-05-02T07:28:44Z</time>
      </trkpt>
      <trkpt lat="37.4594580" lon="-4.3964200">
        <ele>93.8</ele>
        <time>2020-05-02T07:28:48Z</time>
      </trkpt>
      <trkpt lat="37.4594710" lon="-4.3971750">
        <ele>91.0</ele>
        <time>2020-05-02T07:28:52Z</time>
      </trkpt>
      <trkpt lat="37.4593650" lon="-4.3979250">
        <ele>86.0</ele>
        <time>2020-05-02T07:28:56Z</time>
      </trkpt>
      <trkpt lat="37.4591060" lon="-4.3986080">
        <ele>82.2</ele>
        <time>2020-05-02T07:29:00Z</time>
      </trkpt>
      <trkpt lat="37.4587160" lon="-4.3991910">
        <ele>77.4</ele>
        <time>2020-05-02T07:29:04Z</time>
      </trkpt>
      <trkpt lat="37.4582730" lon="-4.3997110">
        <ele>73.0</ele>
        <time>2020-05-02T07:29:08Z</time>
      </trkpt>
      <trkpt lat="37.4578300" lon="-4.4002160">
        <ele>67.4</ele>
        <time>2020-05-02T07:29:12Z</time>
      </trkpt>
      <trkpt lat="37.4573860" lon="-4.4007200">
        <ele>65.6</ele>
        <time>2020-05-02T07:29:16Z</time>
      </trkpt>
      <trkpt lat="37.4569560" lon="-4.4012310">
        <ele>60.6</ele>
        <time>2020-05-02T07:29:20Z</time>
      </trkpt>
      <trkpt lat="37.4566180" lon="-4.4018610">
        <ele>55.8</ele>
        <time>2020-05-02T07:29:24Z</time>
      </trkpt>
      <trkpt lat="37.4564250" lon="-4.4026180">
        <ele>51.8</ele>
        <time>2020-05-02T07:29:28Z</time>
      </trkpt>
      <trkpt lat="37.4564060" lon="-4.4034160">
        <ele>47.2</ele>
        <time>2020-05-02T07:29:32Z</time>
      </trkpt>
      <trkpt lat="37.4564760" lon="-4.4041880">
        <ele>44.4</ele>
        <time>2020-05-02T07:29:36Z</time>
      </trkpt>
      <trkpt lat="37.4565000" lon="-4.4049080">
        <ele>41.6</ele>
        <time>2020-05-02T07:29:40Z</time>
      </trkpt>
      <trkpt lat="37.4564300" lon="-4.4056100">
        <ele>40.2</ele>
        <time>2020-05-02T07:29:44Z</time>
      </trkpt>
      <trkpt lat="37.4563710" lon="-4.4062960">
        <ele>38.0</ele>
        <time>2020-05-02T07:29:48Z</time>
      </trkpt>
      <trkpt lat="37.4564200" lon="-4.4069780">
        <ele>36.6</ele>
        <time>2020-05-02T07:29:52Z</time>
      </trkpt>
      <trkpt lat="37.4565560" lon="-4.4076300">
        <ele>34.6</ele>
        <time>2020-05-02T07:29:56Z</time>
      </trkpt>
      <trkpt lat="37.4566910" lon="-4.4082750">
        <ele>33.0</ele>
        <time>2020-05-02T07:30:00Z</time>
      </trkpt>
      <trkpt lat="37.4567750" lon="-4.4089110">
        <ele>32.0</ele>
        <time>2020-05-02T07:30:04Z</time>
      </trkpt>
      <trkpt lat="37.4568010" lon="-4.4095580">
        <ele>29.6</ele>
        <time>2020-05-02T07:30:08Z</time>
      </trkpt>
      <trkpt lat="37.4567350" lon="-4.4101980">
        <ele>29.0</ele>
        <time>2020-05-02T07:30:12Z</time>
      </trkpt>
      <trkpt lat="37.4565560" lon="-4.4108100">
        <ele>25.8</ele>
        <time>2020-05-02T07:30:16Z</time>
      </trkpt>
      <trkpt lat="37.4562630" lon="-4.4113660">
        <ele>21.8</ele>
        <time>2020-05-02T07:30:20Z</time>
      </trkpt>
      <trkpt lat="37.4558810" lon="-4.4118550">
        <ele>19.8</ele>
        <time>2020-05-02T07:30:24Z</time>
      </trkpt>
      <trkpt lat="37.4554730" lon="-4.4123430">
        <ele>15.8</ele>
        <time>2020-05-02T07:30:28Z</time>
      </trkpt>
      <trkpt lat="37.4551480" lon="-4.4129060">
        <ele>11.2</ele>
        <time>2020-05-02T07:30:32Z</time>
      </trkpt>
      <trkpt lat="37.4549530" lon="-4.4135300">
        <ele>9.0</ele>
        <time>2020-05-02T07:30:36Z</time>
      </trkpt>
      <trkpt lat="37.4548830" lon="-4.4141750">
        <ele>7.0</ele>
        <time>2020-05-02T07:30:40Z</time>
      </trkpt>
      <trkpt lat="37.4548950" lon="-4.4148080">
        <ele>4.0</ele>
        <time>2020-05-02T07:30:44Z</time>
      </trkpt>
      <trkpt lat="37.4549050" lon="-4.4154260">
        <ele>3.2</ele>
        <time>2020-05-02T07:30:48Z</time>
      </trkpt>
      <trkpt lat="37.4548450" lon="-4.4160000">
        <ele>2.2</ele>
        <time>2020-05-02T07:30:52Z</time>
      </trkpt>
      <trkpt lat="37.4547530" lon="-4.4165460">
        <ele>0.8</ele>
        <time>2020-05-02T07:30:56Z</time>
      </trkpt>
      <trkpt lat="37.4546700" lon="-4.4171180">
        <ele>0.0</ele>
        <time>2020-05-02T07:31:00Z</time>
      </trkpt>
      <trkpt lat="37.4546630" lon="-4.4176880">
        <ele>-2.2</ele>
        <time>2020-05-02T07:31:04Z</time>
      </trkpt>
      <trkpt lat="37.4547730" lon="-4.4182580">
        <ele>-4.4</ele>
        <time>2020-05-02T07:31:08Z</time>
      </trkpt>
      <trkpt lat="37.4550030" lon="-4.4187850">
        <ele>-6.6</ele>
        <time>2020-05-02T07:31:12Z</time>
      </trkpt>
      <trkpt lat="37.4553250" lon="-4.4192610">
        <ele>-9.4</ele>
        <time>2020-05-02T07:31:16Z</time>
      </trkpt>
      <trkpt lat="37.4556660" lon="-4.4197330">
        <ele>-12.0</ele>
        <time>2020-05-02T07:31:20Z</time>
      </trkpt>
      <trkpt lat="37.4559980" lon="-4.4202200">
        <ele>-14.8</ele>
        <time>2020-05-02T07:31:24Z</time>
      </trkpt>
      <trkpt lat="37.4562960" lon="-4.4207410">
        <ele>-17.8</ele>
        <time>2020-05-02T07:31:28Z</time>
      </trkpt>
      <trkpt lat="37.4565450" lon="-4.4212800">
        <ele>-18.8</ele>
        <time>2020-05-02T07:31:32Z</time>
      </trkpt>
      <trkpt lat="37.4567430" lon="-4.4218150">
        <ele>-19.2</ele>
        <time>2020-05-02T07:31:36Z</time>
      </trkpt>
      <trkpt lat="37.4568880" lon="-4.4223450">
        <ele>-20.2</ele>
        <time>2020-05-02T07:31:40Z</time>
      </trkpt>
      <trkpt lat="37.4569960" lon="-4.4228380">
        <ele>-19.6</ele>
        <time>2020-05-02T07:31:44Z</time>
      </trkpt>
      <trkpt lat="37.4570680" lon="-4.4232980">
        <ele>-19.0</ele>
        <time>2020-05-02T07:31:48Z</time>
      </trkpt>
      <trkpt lat="37.4571110" lon="-4.4237200">
        <ele>-18.0</ele>
        <time>2020-05-02T07:31:52Z</time>
      </trkpt>
      <trkpt lat="37.4571330" lon="-4.4241210">
        <ele>-18.0</ele>
        <time>2020-05-02T07:31:56Z</time>
      </trkpt>
      <trkpt lat="37.4571350" lon="-4.4245060">
        <ele>-16.6</ele>
        <time>2020-05-02T07:32:00Z</time>
      </trkpt>
      <trkpt lat="37.4571180" lon="-4.4248750">
        <ele>-15.2</ele>
        <time>2020-05-02T07:32:04Z</time>
      </trkpt>
      <trkpt lat="37.4570800" lon="-4.4252460">
        <ele>-15.6</ele>
        <time>2020-05-02T07:32:08Z</time>
      </trkpt>
      <trkpt lat="37.4570430" lon="-4.4256150">
        <ele>-15.4</ele>
        <time>2020-05-02T07:32:12Z</time>
      </trkpt>
      <trkpt lat="37.4569960" lon="-4.4260210">
        <ele>-16.0</ele>
        <time>2020-05-02T07:32:16Z</time>
      </trkpt>
      <trkpt lat="37.4569480" lon="-4.4264700">
        <ele>-17.6</ele>
        <time>2020-05-02T07:32:20Z</time>
      </trkpt>
      <trkpt lat="37.4568900" lon="-4.4269500">
        <ele>-18.8</ele>
        <time>2020-05-02T07:32:24Z</time>
      </trkpt>
      <trkpt lat="37.4568300" lon="-4.4274750">
        <ele>-20.4</ele>
        <time>2020-05-02T07:32:28Z</time>
      </trkpt>
      <trkpt lat="37.4567650" lon="-4.4280210">
        <ele>-22.0</ele>
        <time>2020-05-02T07:32:32Z</time>
      </trkpt>
      <trkpt lat="37.4566950" lon="-4.4286110">
        <ele>-23.0</ele>
        <time>2020-05-02T07:32:36Z</time>
      </trkpt>
      <trkpt lat="37.4566280" lon="-4.4292230">
        <ele>-26.2</ele>
        <time>2020-05-02T07:32:40Z</time>
      </trkpt>
      <trkpt lat="37.4565530" lon="-4.4298500">
        <ele>-28.6</ele>
        <time>2020-05-02T07:32:44Z</time>
      </trkpt>
      <trkpt lat="37.4564850" lon="-4.4304760">
        <ele>-31.0</ele>
        <time>2020-05-02T07:32:48Z</time>
      </trkpt>
      <trkpt lat="37.4564150" lon="-4.4310810">
        <ele>-32.0</ele>
        <time>2020-05-02T07:32:52Z</time>
      </trkpt>
      <trkpt lat="37.4563410" lon="-4.4317030">
        <ele>-34.6</ele>
        <time>2020-05-02T07:32:56Z</time>
      </trkpt>
      <trkpt lat="37.4562700" lon="-4.4323110">
        <ele>-36.2</ele>
        <time>2020-05-02T07:33:00Z</time>
      </trkpt>
      <trkpt lat="37.4561980" lon="-4.4329100">
        <ele>-38.4</ele>
        <time>2020-05-02T07:33:04Z</time>
      </trkpt>
      <trkpt lat="37.4561310" lon="-4.4335030">
        <ele>-39.0</ele>
        <time>2020-05-02T07:33:08Z</time>
      </trkpt>
      <trkpt lat="37.4560630" lon="-4.4341010">
        <ele>-42.0</ele>
        <time>2020-05-02T07:33:12Z</time>
      </trkpt>
      <trkpt lat="37.4559960" lon="-4.4347010">
        <ele>-43.2</ele>
        <time>2020-05-02T07:33:16Z</time>
      </trkpt>
      <trkpt lat="37.4559250" lon="-4.4352750">
        <ele>-45.6</ele>
        <time>2020-05-02T07:33:20Z</time>
      </trkpt>
      <trkpt lat="37.4558650" lon="-4.4358530">
        <ele>-46.6</ele>
        <time>2020-05-02T07:33:24Z</time>
      </trkpt>
      <trkpt lat="37.4558200" lon="-4.4364380">
        <ele>-47.8</ele>
        <time>2020-05-02T07:33:28Z</time>
      </trkpt>
      <trkpt lat="37.4558030" lon="-4.4370210">
        <ele>-49.2</ele>
        <time>2020-05-02T07:33:32Z</time>
      </trkpt>
      <trkpt lat="37.4558200" lon="-4.4375950">
        <ele>-50.0</ele>
        <time>2020-05-02T07:33:36Z</time>
      </trkpt>
      <trkpt lat="37.4558700" lon="-4.4381310">
        <ele>-50.8</ele>
        <time>2020-05-02T07:33:40Z</time>
      </trkpt>
      <trkpt lat="37.4559450" lon="-4.4386410">
        <ele>-52.6</ele>
        <time>2020-05-02T07:33:44Z</time>
      </trkpt>
      <trkpt lat="37.4560360" lon="-4.4391360">
        <ele>-53.4</ele>
        <time>2020-05-02T07:33:48Z</time>
      </trkpt>
      <trkpt lat="37.4561460" lon="-4.4396530">
        <ele>-54.2</ele>
        <time>2020-05-02T07:33:52Z</time>
      </trkpt>
      <trkpt lat="37.4562580" lon="-4.4401950">
        <ele>-56.0</ele>
        <time>2020-05-02T07:33:56Z</time>
      </trkpt>
      <trkpt lat="37.4563650" lon="-4.4407330">
        <ele>-57.0</ele>
        <time>2020-05-02T07:34:00Z</time>
      </trkpt>
      <trkpt lat="37.4564800" lon="-4.4412700">
        <ele>-59.6</ele>
        <time>2020-05-02T07:34:04Z</time>
      </trkpt>
      <trkpt lat="37.4566000" lon="-4.4418310">
        <ele>-62.2</ele>
        <time>2020-05-02T07:34:08Z</time>
      </trkpt>
      <trkpt lat="37.4567180" lon="-4.4424000">
        <ele>-64.2</ele>
        <time>2020-05-02T07:34:12Z</time>
      </trkpt>
      <trkpt lat="37.4568360" lon="-4.4429650">
        <ele>-66.8</ele>
        <time>2020-05-02T07:34:16Z</time>
      </trkpt>
      <trkpt lat="37.4569560" lon="-4.4435280">
        <ele>-68.6</ele>
        <time>2020-05-02T07:34:20Z</time>
      </trkpt>
      <trkpt lat="37.4570660" lon="-4.4441260">
        <ele>-71.6</ele>
        <time>2020-05-02T07:34:24Z</time>
      </trkpt>
      <trkpt lat="37.4571330" lon="-4.4447310">
        <ele>-74.2</ele>
        <time>2020-05-02T07:34:28Z</time>
      </trkpt>
      <trkpt lat="37.4571480" lon="-4.4453380">
        <ele>-76.8</ele>
        <time>2020-05-02T07:34:32Z</time>
      </trkpt>
      <trkpt lat="37.4571130" lon="-4.4459480">
        <ele>-79.2</ele>
        <time>2020-05-02T07:34:36Z</time>
      </trkpt>
      <trkpt lat="37.4570480" lon="-4.4465200">
        <ele>-80.0</ele>
        <time>2020-05-02T07:34:40Z</time>
      </trkpt>
      <trkpt lat="37.4569760" lon="-4.4470730">
        <ele>-80.6</ele>
        <time>2020-05-02T07:34:44Z</time>
      </trkpt>
      <trkpt lat="37.4569080" lon="-4.4476180">
        <ele>-80.0</ele>
        <time>2020-05-02T07:34:48Z</time>
      </trkpt>
      <trkpt lat="37.4568480" lon="-4.4481100">
        <ele>-78.8</ele>
        <time>2020-05-02T07:34:52Z</time>
      </trkpt>
      <trkpt lat="37.4567900" lon="-4.4485360">
        <ele>-78.2</ele>
        <time>2020-05-02T07:34:56Z</time>
      </trkpt>
      <trkpt lat="37.4567430" lon="-4.4489280">
        <ele>-77.4</ele>
        <time>2020-05-02T07:35:00Z</time>
      </trkpt>
      <trkpt lat="37.4567060" lon="-4.4492360">
        <ele>-76.8</ele>
        <time>2020-05-02T07:35:04Z</time>
      </trkpt>
      <trkpt lat="37.4566710" lon="-4.4495110">
        <ele>-75.0</ele>
        <time>2020-05-02T07:35:08Z</time>
      </trkpt>
      <trkpt lat="37.4566330" lon="-4.4497750">
        <ele>-74.8</ele>
        <time>2020-05-02T07:35:12Z</time>
      </trkpt>
      <trkpt lat="37.4565960" lon="-4.4500480">
        <ele>-74.0</ele>
        <time>2020-05-02T07:35:16Z</time>
      </trkpt>
      <trkpt lat="37.4565610" lon="-4.4503280">
        <ele>-73.2</ele>
        <time>2020-05-02T07:35:20Z</time>
      </trkpt>
      <trkpt lat="37.4565210" lon="-4.4506060">
        <ele>-71.8</ele>
        <time>2020-05-02T07:35:24Z</time>
      </trkpt>
      <trkpt lat="37.4564910" lon="-4.4508750">
        <ele>-71.2</ele>
        <time>2020-05-02T07:35:28Z</time>
      </trkpt>
      <trkpt lat="37.4564560" lon="-4.4511130">
        <ele>-70.2</ele>
        <time>2020-05-02T07:35:32Z</time>
      </trkpt>
      <trkpt lat="37.4564310" lon="-4.4513430">
        <ele>-69.6</ele>
        <time>2020-05-02T07:35:36Z</time>
      </trkpt>
      <trkpt lat="37.4564050" lon="-4.4515600">
        <ele>-68.4</ele>
        <time>2020-05-02T07:35:40Z</time>
      </trkpt>
      <trkpt lat="37.4563730" lon="-4.4518000">
        <ele>-67.6</ele>
        <time>2020-05-02T07:35:44Z</time>
      </trkpt>
      <trkpt lat="37.4563450" lon="-4.4520460">
        <ele>-66.4</ele>
        <time>2020-05-02T07:35:48Z</time>
      </trkpt>
      <trkpt lat="37.4563230" lon="-4.4522930">
        <ele>-66.0</ele>
        <time>2020-05-02T07:35:52Z</time>
      </trkpt>
      <trkpt lat="37.4563010" lon="-4.4525150">
        <ele>-65.4</ele>
        <time>2020-05-02T07:35:56Z</time>
      </trkpt>
      <trkpt lat="37.4562810" lon="-4.4527180">
        <ele>-64.0</ele>
        <time>2020-05-02T07:36:00Z</time>
      </trkpt>
      <trkpt lat="37.4562530" lon="-4.4529580">
        <ele>-63.4</ele>
        <time>2020-05-02T07:36:04Z</time>
      </trkpt>
      <trkpt lat="37.4562330" lon="-4.4531530">
        <ele>-62.4</ele>
        <time>2020-05-02T07:36:08Z</time>
      </trkpt>
      <trkpt lat="37.4562150" lon="-4.4533460">
        <ele>-61.0</ele>
        <time>2020-05-02T07:36:12Z</time>
      </trkpt>
      <trkpt lat="37.4561930" lon="-4.4535430">
        <ele>-60.0</ele>
        <time>2020-05-02T07:36:16Z</time>
      </trkpt>
      <trkpt lat="37.4561810" lon="-4.4537260">
        <ele>-59.4</ele>
        <time>2020-05-02T07:36:20Z</time>
      </trkpt>
      <trkpt lat="37.4561880" lon="-4.4539150">
        <ele>-57.6</ele>
        <time>2020-05-02T07:36:24Z</time>
      </trkpt>
      <trkpt lat="37.4562130" lon="-4.4540760">
        <ele>-57.0</ele>
        <time>2020-05-02T07:36:28Z</time>
      </trkpt>
      <trkpt lat="37.4562510" lon="-4.4542750">
        <ele>-56.8</ele>
        <time>2020-05-02T07:36:32Z</time>
      </trkpt>
      <trkpt lat="37.4563100" lon="-4.4544460">
        <ele>-56.4</ele>
        <time>2020-05-02T07:36:36Z</time>
      </trkpt>
      <trkpt lat="37.4563930" lon="-4.4546460">
        <ele>-56.8</ele>
        <time>2020-05-02T07:36:40Z</time>
      </trkpt>
      <trkpt lat="37.4565310" lon="-4.4548650">
        <ele>-57.6</ele>
        <time>2020-05-02T07:36:44Z</time>
      </trkpt>
      <trkpt lat="37.4567500" lon="-4.4550830">
        <ele>-60.0</ele>
        <time>2020-05-02T07:36:48Z</time>
      </trkpt>
      <trkpt lat="37.4570000" lon="-4.4553310">
        <ele>-62.4</ele>
        <time>2020-05-02T07:36:52Z</time>
      </trkpt>
      <trkpt lat="37.4572660" lon="-4.4555700">
        <ele>-64.0</ele>
        <time>2020-05-02T07:36:56Z</time>
      </trkpt>
      <trkpt lat="37.4575380" lon="-4.4558200">
        <ele>-64.4</ele>
        <time>2020-05-02T07:37:00Z</time>
      </trkpt>
      <trkpt lat="37.4578600" lon="-4.4561060">
        <ele>-66.6</ele>
        <time>2020-05-02T07:37:04Z</time>
      </trkpt>
      <trkpt lat="37.4582250" lon="-4.4564030">
        <ele>-69.2</ele>
        <time>2020-05-02T07:37:08Z</time>
      </trkpt>
      <trkpt lat="37.4585700" lon="-4.4567560">
        <ele>-71.4</ele>
        <time>2020-05-02T07:37:12Z</time>
      </trkpt>
      <trkpt lat="37.4588900" lon="-4.4571750">
        <ele>-74.2</ele>
        <time>2020-05-02T07:37:16Z</time>
      </trkpt>
      <trkpt lat="37.4591780" lon="-4.4576500">
        <ele>-76.8</ele>
        <time>2020-05-02T07:37:20Z</time>
      </trkpt>
      <trkpt lat="37.4594760" lon="-4.4581380">
        <ele>-80.6</ele>
        <time>2020-05-02T07:37:24Z</time>
      </trkpt>
      <trkpt lat="37.4597500" lon="-4.4585500">
        <ele>-83.6</ele>
        <time>2020-05-02T07:37:28Z</time>
      </trkpt>
      <trkpt lat="37.4599830" lon="-4.4588650">
        <ele>-85.4</ele>
        <time>2020-05-02T07:37:32Z</time>
      </trkpt>
      <trkpt lat="37.4601910" lon="-4.4590910">
        <ele>-86.4</ele>
        <time>2020-05-02T07:37:36Z</time>
      </trkpt>
      <trkpt lat="37.4604300" lon="-4.4589910">
        <ele>-90.6</ele>
        <time>2020-05-02T07:37:40Z</time>
      </trkpt>
      <trkpt lat="37.4604480" lon="-4.4585930">
        <ele>-92.0</ele>
        <time>2020-05-02T07:37:44Z</time>
      </trkpt>
      <trkpt lat="37.4603650" lon="-4.4581400">
        <ele>-93.4</ele>
        <time>2020-05-02T07:37:48Z</time>
      </trkpt>
      <trkpt lat="37.4602480" lon="-4.4576580">
        <ele>-95.0</ele>
        <time>2020-05-02T07:37:52Z</time>
      </trkpt>
      <trkpt lat="37.4600660" lon="-4.4571810">
        <ele>-97.2</ele>
        <time>2020-05-02T07:37:56Z</time>
      </trkpt>
      <trkpt lat="37.4598710" lon="-4.4566810">
        <ele>-99.6</ele>
        <time>2020-05-02T07:38:00Z</time>
      </trkpt>
      <trkpt lat="37.4596900" lon="-4.4561460">
        <ele>-101.4</ele>
        <time>2020-05-02T07:38:04Z</time>
      </trkpt>
      <trkpt lat="37.4595160" lon="-4.4556080">
        <ele>-104.6</ele>
        <time>2020-05-02T07:38:08Z</time>
      </trkpt>
      <trkpt lat="37.4593360" lon="-4.4550910">
        <ele>-106.2</ele>
        <time>2020-05-02T07:38:12Z</time>
      </trkpt>
      <trkpt lat="37.4592350" lon="-4.4546060">
        <ele>-107.6</ele>
        <time>2020-05-02T07:38:16Z</time>
      </trkpt>
      <trkpt lat="37.4594250" lon="-4.4543100">
        <ele>-108.8</ele>
        <time>2020-05-02T07:38:20Z</time>
      </trkpt>
      <trkpt lat="37.4596650" lon="-4.4545760">
        <ele>-110.6</ele>
        <time>2020-05-02T07:38:24Z</time>
      </trkpt>
      <trkpt lat="37.4598250" lon="-4.4550480">
        <ele>-112.0</ele>
        <time>2020-05-02T07:38:28Z</time>
      </trkpt>
      <trkpt lat="37.4600650" lon="-4.4554660">
        <ele>-113.4</ele>
        <time>2020-05-02T07:38:32Z</time>
      </trkpt>
      <trkpt lat="37.4603380" lon="-4.4558560">
        <ele>-115.6</ele>
        <time>2020-05-02T07:38:36Z</time>
      </trkpt>
      <trkpt lat="37.4607550" lon="-4.4559930">
        <ele>-118.6</ele>
        <time>2020-05-02T07:38:40Z</time>
      </trkpt>
      <trkpt lat="37.4612060" lon="-4.4558850">
        <ele>-120.2</ele>
        <time>2020-05-02T07:38:44Z</time>
      </trkpt>
      <trkpt lat="37.4616630" lon="-4.4557610">
        <ele>-121.8</ele>
        <time>2020-05-02T07:38:48Z</time>
      </trkpt>
      <trkpt lat="37.4621080" lon="-4.4556400">
        <ele>-123.4</ele>
        <time>2020-05-02T07:38:52Z</time>
      </trkpt>
      <trkpt lat="37.4625360" lon="-4.4555260">
        <ele>-123.8</ele>
        <time>2020-05-02T07:38:56Z</time>
      </trkpt>
      <trkpt lat="37.4629380" lon="-4.4554150">
        <ele>-124.8</ele>
        <time>2020-05-02T07:39:00Z</time>
      </trkpt>
      <trkpt lat="37.4633000" lon="-4.4552950">
        <ele>-124.8</ele>
        <time>2020-05-02T07:39:04Z</time>
      </trkpt>
      <trkpt lat="37.4636400" lon="-4.4551680">
        <ele>-124.2</ele>
        <time>2020-05-02T07:39:08Z</time>
      </trkpt>
      <trkpt lat="37.4639600" lon="-4.4549880">
        <ele>-124.2</ele>
        <time>2020-05-02T07:39:12Z</time>
      </trkpt>
      <trkpt lat="37.4642450" lon="-4.4547800">
        <ele>-123.4</ele>
        <time>2020-05-02T07:39:16Z</time>
      </trkpt>
      <trkpt lat="37.4645410" lon="-4.4545900">
        <ele>-123.8</ele>
        <time>2020-05-02T07:39:20Z</time>
      </trkpt>
      <trkpt lat="37.4648110" lon="-4.4544610">
        <ele>-123.0</ele>
        <time>2020-05-02T07:39:24Z</time>
      </trkpt>
      <trkpt lat="37.4650730" lon="-4.4543430">
        <ele>-123.2</ele>
        <time>2020-05-02T07:39:28Z</time>
      </trkpt>
      <trkpt lat="37.4653180" lon="-4.4542610">
        <ele>-122.6</ele>
        <time>2020-05-02T07:39:32Z</time>
      </trkpt>
      <trkpt lat="37.4655400" lon="-4.4542300">
        <ele>-122.2</ele>
        <time>2020-05-02T07:39:36Z</time>
      </trkpt>
      <trkpt lat="37.4658160" lon="-4.4542610">
        <ele>-122.2</ele>
        <time>2020-05-02T07:39:40Z</time>
      </trkpt>
      <trkpt lat="37.4660380" lon="-4.4543110">
        <ele>-120.6</ele>
        <time>2020-05-02T07:39:44Z</time>
      </trkpt>
      <trkpt lat="37.4662550" lon="-4.4543660">
        <ele>-119.8</ele>
        <time>2020-05-02T07:39:48Z</time>
      </trkpt>
      <trkpt lat="37.4664730" lon="-4.4544410">
        <ele>-118.0</ele>
        <time>2020-05-02T07:39:52Z</time>
      </trkpt>
      <trkpt lat="37.4666250" lon="-4.4544930">
        <ele>-116.4</ele>
        <time>2020-05-02T07:39:56Z</time>
      </trkpt>
      <trkpt lat="37.4667910" lon="-4.4545410">
        <ele>-115.6</ele>
        <time>2020-05-02T07:40:00Z</time>
      </trkpt>
      <trkpt lat="37.4669880" lon="-4.4545930">
        <ele>-114.6</ele>
        <time>2020-05-02T07:40:04Z</time>
      </trkpt>
      <trkpt lat="37.4671530" lon="-4.4546300">
        <ele>-113.6</ele>
        <time>2020-05-02T07:40:08Z</time>
      </trkpt>
      <trkpt lat="37.4673300" lon="-4.4546460">
        <ele>-113.2</ele>
        <time>2020-05-02T07:40:12Z</time>
      </trkpt>
      <trkpt lat="37.4675280" lon="-4.4546280">
        <ele>-112.6</ele>
        <time>2020-05-02T07:40:16Z</time>
      </trkpt>
      <trkpt lat="37.4677380" lon="-4.4545610">
        <ele>-113.2</ele>
        <time>2020-05-02T07:40:20Z</time>
      </trkpt>
      <trkpt lat="37.4679600" lon="-4.4544110">
        <ele>-114.4</ele>
        <time>2020-05-02T07:40:24Z</time>
      </trkpt>
      <trkpt lat="37.4681930" lon="-4.4541530">
        <ele>-117.2</ele>
        <time>2020-05-02T07:40:28Z</time>
      </trkpt>
      <trkpt lat="37.4683700" lon="-4.4537760">
        <ele>-120.8</ele>
        <time>2020-05-02T07:40:32Z</time>
      </trkpt>
      <trkpt lat="37.4685050" lon="-4.4533830">
        <ele>-120.6</ele>
        <time>2020-05-02T07:40:36Z</time>
      </trkpt>
      <trkpt lat="37.4686880" lon="-4.4530800">
        <ele>-120.2</ele>
        <time>2020-05-02T07:40:40Z</time>
      </trkpt>
      <trkpt lat="37.4688130" lon="-4.4527760">
        <ele>-121.4</ele>
        <time>2020-05-02T07:40:44Z</time>
      </trkpt>
      <trkpt lat="37.4689210" lon="-4.4525060">
        <ele>-119.0</ele>
        <time>2020-05-02T07:40:48Z</time>
      </trkpt>
      <trkpt lat="37.4690250" lon="-4.4522360">
        <ele>-118.4</ele>
        <time>2020-05-02T07:40:52Z</time>
      </trkpt>
      <trkpt lat="37.4691210" lon="-4.4519960">
        <ele>-117.8</ele>
        <time>2020-05-02T07:40:56Z</time>
      </trkpt>
      <trkpt lat="37.4692110" lon="-4.4517660">
        <ele>-117.8</ele>
        <time>2020-05-02T07:41:00Z</time>
      </trkpt>
      <trkpt lat="37.4693150" lon="-4.4515180">
        <ele>-117.0</ele>
        <time>2020-05-02T07:41:04Z</time>
      </trkpt>
      <trkpt lat="37.4694180" lon="-4.4512680">
        <ele>-116.4</ele>
        <time>2020-05-02T07:41:08Z</time>
      </trkpt>
      <trkpt lat="37.4695050" lon="-4.4510460">
        <ele>-115.6</ele>
        <time>2020-05-02T07:41:12Z</time>
      </trkpt>
      <trkpt lat="37.4695900" lon="-4.4508360">
        <ele>-114.6</ele>
        <time>2020-05-02T07:41:16Z</time>
      </trkpt>
      <trkpt lat="37.4696530" lon="-4.4506510">
        <ele>-113.6</ele>
        <time>2020-05-02T07:41:20Z</time>
      </trkpt>
      <trkpt lat="37.4697050" lon="-4.4504650">
        <ele>-112.6</ele>
        <time>2020-05-02T07:41:24Z</time>
      </trkpt>
      <trkpt lat="37.4697210" lon="-4.4502960">
        <ele>-111.0</ele>
        <time>2020-05-02T07:41:28Z</time>
      </trkpt>
      <trkpt lat="37.4696930" lon="-4.4501710">
        <ele>-110.4</ele>
        <time>2020-05-02T07:41:32Z</time>
      </trkpt>
      <trkpt lat="37.4696300" lon="-4.4500030">
        <ele>-109.6</ele>
        <time>2020-05-02T07:41:36Z</time>
      </trkpt>
      <trkpt lat="37.4695850" lon="-4.4498900">
        <ele>-107.4</ele>
        <time>2020-05-02T07:41:40Z</time>
      </trkpt>
      <trkpt lat="37.4695230" lon="-4.4497400">
        <ele>-106.8</ele>
        <time>2020-05-02T07:41:44Z</time>
      </trkpt>
      <trkpt lat="37.4694680" lon="-4.4496050">
        <ele>-106.0</ele>
        <time>2020-05-02T07:41:48Z</time>
      </trkpt>
      <trkpt lat="37.4693910" lon="-4.4494350">
        <ele>-104.8</ele>
        <time>2020-05-02T07:41:52Z</time>
      </trkpt>
      <trkpt lat="37.4693200" lon="-4.4493360">
        <ele>-104.2</ele>
        <time>2020-05-02T07:41:56Z</time>
      </trkpt>
      <trkpt lat="37.4692630" lon="-4.4492280">
        <ele>-103.6</ele>
        <time>2020-05-02T07:42:00Z</time>
      </trkpt>
      <trkpt lat="37.4692250" lon="-4.4490750">
        <ele>-103.0</ele>
        <time>2020-05-02T07:42:04Z</time>
      </trkpt>
      <trkpt lat="37.4691800" lon="-4.4489480">
        <ele>-102.2</ele>
        <time>2020-05-02T07:42:08Z</time>
      </trkpt>
      <trkpt lat="37.4691860" lon="-4.4487680">
        <ele>-101.6</ele>
        <time>2020-05-02T07:42:12Z</time>
      </trkpt>
      <trkpt lat="37.4692310" lon="-4.4485760">
        <ele>-100.8</ele>
        <time>2020-05-02T07:42:16Z</time>
      </trkpt>
      <trkpt lat="37.4693200" lon="-4.4484300">
        <ele>-100.2</ele>
        <time>2020-05-02T07:42:20Z</time>
      </trkpt>
      <trkpt lat="37.4694530" lon="-4.4482210">
        <ele>-100.0</ele>
        <time>2020-05-02T07:42:24Z</time>
      </trkpt>
      <trkpt lat="37.4695700" lon="-4.4480400">
        <ele>-99.0</ele>
        <time>2020-05-02T07:42:28Z</time>
      </trkpt>
      <trkpt lat="37.4696660" lon="-4.4479080">
        <ele>-98.0</ele>
        <time>2020-05-02T07:42:32Z</time>
      </trkpt>
      <trkpt lat="37.4697530" lon="-4.4477650">
        <ele>-97.4</ele>
        <time>2020-05-02T07:42:36Z</time>
      </trkpt>
      <trkpt lat="37.4698310" lon="-4.4476250">
        <ele>-96.8</ele>
        <time>2020-05-02T07:42:40Z</time>
      </trkpt>
      <trkpt lat="37.4699130" lon="-4.4474510">
        <ele>-96.0</ele>
        <time>2020-05-02T07:42:44Z</time>
      </trkpt>
      <trkpt lat="37.4699760" lon="-4.4472660">
        <ele>-95.4</ele>
        <time>2020-05-02T07:42:48Z</time>
      </trkpt>
      <trkpt lat="37.4700410" lon="-4.4470700">
        <ele>-95.0</ele>
        <time>2020-05-02T07:42:52Z</time>
      </trkpt>
      <trkpt lat="37.4700810" lon="-4.4469180">
        <ele>-94.2</ele>
        <time>2020-05-02T07:42:56Z</time>
      </trkpt>
      <trkpt lat="37.4701210" lon="-4.4467730">
        <ele>-93.8</ele>
        <time>2020-05-02T07:43:00Z</time>
      </trkpt>
      <trkpt lat="37.4701750" lon="-4.4465860">
        <ele>-93.8</ele>
        <time>2020-05-02T07:43:04Z</time>
      </trkpt>
      <trkpt lat="37.4702110" lon="-4.4464500">
        <ele>-93.0</ele>
        <time>2020-05-02T07:43:08Z</time>
      </trkpt>
      <trkpt lat="37.4702830" lon="-4.4462960">
        <ele>-92.2</ele>
        <time>2020-05-02T07:43:12Z</time>
      </trkpt>
      <trkpt lat="37.4703600" lon="-4.4461650">
        <ele>-91.6</ele>
        <time>2020-05-02T07:43:16Z</time>
      </trkpt>
      <trkpt lat="37.4704710" lon="-4.4460430">
        <ele>-91.2</ele>
        <time>2020-05-02T07:43:20Z</time>
      </trkpt>
      <trkpt lat="37.4706130" lon="-4.4459610">
        <ele>-91.2</ele>
        <time>2020-05-02T07:43:24Z</time>
      </trkpt>
      <trkpt lat="37.4707310" lon="-4.4459100">
        <ele>-90.0</ele>
        <time>2020-05-02T07:43:28Z</time>
      </trkpt>
      <trkpt lat="37.4708750" lon="-4.4458980">
        <ele>-88.4</ele>
        <time>2020-05-02T07:43:32Z</time>
      </trkpt>
      <trkpt lat="37.4710000" lon="-4.4459030">
        <ele>-87.8</ele>
        <time>2020-05-02T07:43:36Z</time>
      </trkpt>
      <trkpt lat="37.4711560" lon="-4.4459230">
        <ele>-86.2</ele>
        <time>2020-05-02T07:43:40Z</time>
      </trkpt>
      <trkpt lat="37.4712880" lon="-4.4459550">
        <ele>-85.6</ele>
        <time>2020-05-02T07:43:44Z</time>
      </trkpt>
      <trkpt lat="37.4713950" lon="-4.4459410">
        <ele>-84.2</ele>
        <time>2020-05-02T07:43:48Z</time>
      </trkpt>
      <trkpt lat="37.4715050" lon="-4.4458930">
        <ele>-83.8</ele>
        <time>2020-05-02T07:43:52Z</time>
      </trkpt>
      <trkpt lat="37.4714850" lon="-4.4457830">
        <ele>-83.8</ele>
        <time>2020-05-02T07:43:56Z</time>
      </trkpt>
      <trkpt lat="37.4713910" lon="-4.4456680">
        <ele>-84.0</ele>
        <time>2020-05-02T07:44:00Z</time>
      </trkpt>
      <trkpt lat="37.4713060" lon="-4.4455410">
        <ele>-84.4</ele>
        <time>2020-05-02T07:44:04Z</time>
      </trkpt>
      <trkpt lat="37.4712610" lon="-4.4453730">
        <ele>-84.6</ele>
        <time>2020-05-02T07:44:08Z</time>
      </trkpt>
      <trkpt lat="37.4712160" lon="-4.4452150">
        <ele>-84.0</ele>
        <time>2020-05-02T07:44:12Z</time>
      </trkpt>
      <trkpt lat="37.4711330" lon="-4.4451060">
        <ele>-83.0</ele>
        <time>2020-05-02T07:44:16Z</time>
      </trkpt>
      <trkpt lat="37.4709900" lon="-4.4450010">
        <ele>-82.2</ele>
        <time>2020-05-02T07:44:20Z</time>
      </trkpt>
      <trkpt lat="37.4708280" lon="-4.4449100">
        <ele>-81.8</ele>
        <time>2020-05-02T07:44:24Z</time>
      </trkpt>
      <trkpt lat="37.4706700" lon="-4.4448080">
        <ele>-81.6</ele>
        <time>2020-05-02T07:44:28Z</time>
      </trkpt>
      <trkpt lat="37.4705580" lon="-4.4446810">
        <ele>-80.8</ele>
        <time>2020-05-02T07:44:32Z</time>
      </trkpt>
      <trkpt lat="37.4705060" lon="-4.4445510">
        <ele>-80.2</ele>
        <time>2020-05-02T07:44:36Z</time>
      </trkpt>
      <trkpt lat="37.4705060" lon="-4.4445510">
        <ele>-80.0</ele>
        <time>2020-05-02T07:44:40Z</time>
      </trkpt>
      <trkpt lat="37.4705060" lon="-4.4445510">
        <ele>-80.6</ele>
        <time>2020-05-02T07:44:44Z</time>
      </trkpt>
      <trkpt lat="37.4705060" lon="-4.4445510">
        <ele>-80.4</ele>
        <time>2020-05-02T07:44:48Z</time>
      </trkpt>
      <trkpt lat="37.4705060" lon="-4.4445510">
        <ele>-79.8</ele>
        <time>2020-05-02T07:44:52Z</time>
      </trkpt>
      <trkpt lat="37.4705060" lon="-4.4445510">
        <ele>-80.2</ele>
        <time>2020-05-02T07:44:56Z</time>
      </trkpt>
      <trkpt lat="37.4705060" lon="-4.4445510">
        <ele>-80.2</ele>
        <time>2020-05-02T07:45:00Z</time>
      </trkpt>
      <trkpt lat="37.4705060" lon="-4.4445510">
        <ele>-80.0</ele>
        <time>2020-05-02T07:45:04Z</time>
      </trkpt>
      <trkpt lat="37.4705060" lon="-4.4445510">
        <ele>-80.4</ele>
        <time>2020-05-02T07:45:08Z</time>
      </trkpt>
      <trkpt lat="37.4705060" lon="-4.4445510">
        <ele>-80.2</ele>
        <time>2020-05-02T07:45:12Z</time>
      </trkpt>
      <trkpt lat="37.4705060" lon="-4.4445510">
        <ele>-80.0</ele>
        <time>2020-05-02T07:45:16Z</time>
      </trkpt>
      <trkpt lat="37.4705060" lon="-4.4445510">
        <ele>-80.0</ele>
        <time>2020-05-02T07:45:20Z</time>
      </trkpt>
      <trkpt lat="37.4705060" lon="-4.4445510">
        <ele>-80.2</ele>
        <time>2020-05-02T07:45:24Z</time>
      </trkpt>
      <trkpt lat="37.4705060" lon="-4.4445510">
        <ele>-80.2</ele>
        <time>2020-05-02T07:45:28Z</time>
      </trkpt>
      <trkpt lat="37.4704800" lon="-4.4444400">
        <ele>-80.0</ele>
        <time>2020-05-02T07:45:32Z</time>
      </trkpt>
      <trkpt lat="37.4704260" lon="-4.4444010">
        <ele>-80.2</ele>
        <time>2020-05-02T07:45:36Z</time>
      </trkpt>
      <trkpt lat="37.4703580" lon="-4.4442980">
        <ele>-79.4</ele>
        <time>2020-05-02T07:45:40Z</time>
      </trkpt>
      <trkpt lat="37.4703000" lon="-4.4441160">
        <ele>-79.2</ele>
        <time>2020-05-02T07:45:44Z</time>
      </trkpt>
      <trkpt lat="37.4702480" lon="-4.4439200">
        <ele>-77.8</ele>
        <time>2020-05-02T07:45:48Z</time>
      </trkpt>
      <trkpt lat="37.4702200" lon="-4.4437460">
        <ele>-77.2</ele>
        <time>2020-05-02T07:45:52Z</time>
      </trkpt>
      <trkpt lat="37.4701950" lon="-4.4435510">
        <ele>-76.4</ele>
        <time>2020-05-02T07:45:56Z</time>
      </trkpt>
      <trkpt lat="37.4702080" lon="-4.4434030">
        <ele>-75.6</ele>
        <time>2020-05-02T07:46:00Z</time>
      </trkpt>
      <trkpt lat="37.4701660" lon="-4.4432760">
        <ele>-75.4</ele>
        <time>2020-05-02T07:46:04Z</time>
      </trkpt>
      <trkpt lat="37.4701660" lon="-4.4432760">
        <ele>-75.4</ele>
        <time>2020-05-02T07:46:08Z</time>
      </trkpt>
    </trkseg>
  </trk>
</gpx>
